[[{"header":{"parameterUnit":"m.s-1","parameterCategory":1,"la1":31.0,"la2":29.5877,"lo1":-88.7671,"lo2":-86.6584,"dy":0.0162,"dx":0.0185,"nx":115,"ny":88,"refTime":"2026-05-05T12:00:00:Z","depth":0,"parameterNumber":2,"parameterNumberName":"U-component_of_WINDS"},"data":[0.0,0.0,0.0,0.0,0.0,0.0,0.0,0.0,0.0,0.0,0.0,0.0,0.0,0.0,0.0,0.0,0.0,0.0,0.0,0.0,0.0,0.0,0.0,0.0,0.0,0.0,0.0,0.0,0.0,0.0,0.0,0.0,0.0,0.0,0.0,0.0,0.0,0.0,0.0,0.0,0.0,0.0,0.0,0.0,0.0,0.0,0.0,0.0,0.0,0.0,0.0,0.0,0.0,0.0,0.0,0.0,0.0,0.0,0.0,0.0,0.0,0.0,0.0,0.0,0.0,0.0,0.0,0.0,0.0,0.0,0.0,0.0,0.0,0.0,0.0,0.0,0.0,0.0,0.0,0.0,0.0,0.0,0.0,0.0,0.0,0.0,0.0,0.0,0.0,0.0,0.0,0.0,0.0,0.0,0.0,0.0,0.0,0.0,0.0,0.0,0.0,0.0,0.0,0.0,0.0,0.0,0.0,0.0,0.0,0.0,0.0,0.0,0.0,0.0,0.0,0.0,0.0,0.0,0.0,0.0,0.0,0.0,0.0,0.0,0.0,0.0,0.0,0.0,0.0,0.0,0.0,0.0,0.0,0.0,0.0,0.0,0.0,0.0,0.0,0.0,0.0,0.0,0.0,0.0,0.0,0.0,0.0,0.0,0.0,0.0,0.0,0.0,0.0,0.0,0.0,0.0,0.0,0.0,0.0,0.0,0.0,0.0,0.0,0.0,0.0,0.0,0.0,0.0,0.0,0.0,0.0,0.0,0.0,0.0,0.0,0.0,0.0,0.0,0.0,0.0,0.0,0.0,0.0,0.0,0.0,0.0,0.0,0.0,0.0,0.0,0.0,0.0,0.0,0.0,0.0,0.0,0.0,0.0,0.0,0.0,0.0,0.0,0.0,0.0,0.0,0.0,0.0,0.0,0.0,0.0,0.0,0.0,0.0,0.0,0.0,0.0,0.0,0.0,0.0,0.0,0.0,0.0,0.0,0.0,0.0,0.0,0.0,0.0,0.0,0.0,0.0,0.0,0.0,0.0,0.0,0.0,0.0,0.0,0.0,0.0,0.0,0.0,0.0,0.0,0.0,0.0,0.0,0.0,0.0,0.0,0.0,0.0,0.0,0.0,0.0,0.0,0.0,0.0,0.0,0.0,0.0,0.0,0.0,0.0,0.0,0.0,0.0,0.0,0.0,0.0,0.0,0.0,0.0,0.0,0.0,0.0,0.0,0.0,0.0,0.0,0.0,0.0,0.0,0.0,0.0,0.0,0.0,0.0,0.0,0.0,0.0,0.0,0.0,0.0,0.0,0.0,0.0,0.0,0.0,0.0,0.0,0.0,0.0,0.0,0.0,0.0,0.0,0.0,0.0,0.0,0.0,0.0,0.0,0.0,0.0,0.0,0.0,0.0,0.0,0.0,0.0,0.0,0.0,0.0,0.0,0.0,0.0,0.0,0.0,0.0,0.0,0.0,0.0,0.0,0.0,0.0,0.0,0.0,0.0,0.0,0.0,0.0,0.0,0.0,0.0,0.0,0.0,0.0,0.0,0.0,0.0,0.0,0.0,0.0,0.0,0.0,0.0,0.0,0.0,0.0,0.0,0.0,0.0,0.0,0.0,0.0,0.0,0.0,0.0,0.0,0.0,0.0,0.0,0.0,0.0,0.0,0.0,0.0,0.0,0.0,0.0,0.0,0.0,0.0,0.0,0.0,0.0,0.0,0.0,0.0,0.0,0.0,0.0,0.0,0.0,0.0,0.0,0.0,0.0,0.0,0.0,0.0,0.0,0.0,0.0,0.0,0.0,0.0,0.0,0.0,0.0,0.0,0.0,0.0,0.0,0.0,0.0,0.0,0.0,0.0,0.0,0.0,0.0,0.0,0.0,0.0,0.0,0.0,0.0,0.0,0.0,0.0,0.0,0.0,0.0,0.0,0.0,0.0,0.0,0.0,0.0,0.0,0.0,0.0,0.0,0.0,0.0,0.0,0.0,0.0,0.0,0.0,0.0,0.0,0.0,0.0,0.0,0.0,0.0,0.0,0.0,0.0,0.0,0.0,0.0,0.0,0.0,0.0,0.0,0.0,0.0,0.0,0.0,0.0,0.0,0.0,0.0,0.0,0.0,0.0,0.0,0.0,0.0,0.0,0.0,0.0,0.0,0.0,0.0,0.0,0.0,0.0,0.0,0.0,0.0,0.0,0.0,0.0,0.0,0.0,0.0,0.0,0.0,0.0,0.0,0.0,0.0,0.0,0.0,0.0,0.0,0.0,0.0,0.0,0.0,0.0,0.0,0.0,0.0,0.0,0.0,0.0,0.0,0.0,0.0,0.0,0.0,0.0,0.0,0.0,0.0,0.0,0.0,0.0,0.0,0.0,0.0,0.0,0.0,0.0,0.0,0.0,0.0,0.0,0.0,0.0,0.0,0.0,0.0,0.0,0.0,0.0,0.0,0.0,0.0,0.0,0.0,0.0,0.0,0.0,0.0,0.0,0.0,0.0,0.0,0.0,0.0,0.0,0.0,0.0,0.0,0.0,0.0,0.0,0.0,0.0,0.0,0.0,0.0,0.0,0.0,0.0,0.0,0.0,0.0,0.0,0.0,0.0,0.0,0.0,0.0,0.0,0.0,0.0,0.0,0.0,0.0,0.0,0.0,0.0,0.0,0.0,0.0,0.0,0.0,0.0,0.0,0.0,0.0,0.0,0.0,0.0,0.0,0.0,0.0,0.0,0.0,0.0,0.0,0.0,0.0,0.0,0.0,0.0,0.0,0.0,0.0,0.0,0.0,0.0,0.0,0.0,0.0,0.0,0.0,0.0,0.0,0.0,0.0,0.0,0.0,0.0,0.0,0.0,0.0,0.0,0.0,0.0,0.0,0.0,0.0,0.0,0.0,0.0,0.0,0.0,0.0,0.0,0.0,0.0,0.0,0.0,0.0,0.0,0.0,0.0,0.0,0.0,0.0,0.0,0.0,0.0,0.0,0.0,0.0,0.0,0.0,0.0,0.0,0.0,0.0,0.0,0.0,0.0,0.0,0.0,0.0,0.0,0.0,0.0,0.0,0.0,0.0,0.0,0.0,0.0,0.0,0.0,0.0,0.0,0.0,0.0,0.0,0.0,0.0,0.0,0.0,0.0,0.0,0.0,0.0,0.0,0.0,0.0,0.0,0.0,0.0,0.0,0.0,0.0,0.0,0.0,0.0,0.0,0.0,0.0,0.0,0.0,0.0,0.0,0.0,0.0,0.0,0.0,0.0,0.0,0.0,0.0,0.0,0.0,0.0,0.0,0.0,0.0,0.0,0.0,0.0,0.0,0.0,0.0,0.0,0.0,0.0,0.0,0.0,0.0,0.0,0.0,0.0,0.0,0.0,0.0,0.0,0.0,0.0,0.0,0.0,0.0,0.0,0.0,0.0,0.0,0.0,0.0,0.0,0.0,0.0,0.0,0.0,0.0,0.0,0.0,0.0,0.0,0.0,0.0,0.0,0.0,0.0,0.0,0.0,0.0,0.0,0.0,0.0,0.0,0.0,0.0,0.0,0.0,0.0,0.0,0.0,0.0,0.0,0.0,0.0,0.0,0.0,0.0,0.0,0.0,0.0,0.0,0.0,0.0,0.0,0.0,0.0,0.0,0.0,0.0,0.0,0.0,0.0,0.0,0.0,0.0,0.0,0.0,0.0,0.0,0.0,0.0,0.0,0.0,0.0,0.0,0.0,0.0,0.0,0.0,0.0,0.0,0.0,0.0,0.0,0.0,0.0,0.0,0.0,0.0,0.0,0.0,0.0,0.0,0.0,0.0,0.0,0.0,0.0,0.0,0.0,0.0,0.0,0.0,0.0,0.0,0.0,0.0,0.0,0.0,0.0,0.0,0.0,0.0,0.0,0.0,0.0,0.0,0.0,0.0,0.0,0.0,0.0,0.0,0.0,0.0,0.0,0.0,0.0,0.0,0.0,0.0,0.0,0.0,0.0,0.0,0.0,0.0,0.0,0.0,0.0,0.0,0.0,0.0,0.0,0.0,0.0,0.0,0.0,0.0,0.0,0.0,0.0,0.0,0.0,0.0,0.0,0.0,0.0,0.0,0.0,0.0,0.0,0.0,0.0,0.0,0.0,0.0,0.0,0.0,0.0,0.0,0.0,0.0,0.0,0.0,0.0,0.0,0.0,0.0,0.0,0.0,0.0,0.0,0.0,0.0,0.0,0.0,0.0,0.0,0.0,0.0,0.0,0.0,0.0,0.0,0.0,0.0,0.0,0.0,0.0,0.0,0.0,0.0,-1.1212,0.0,0.0,0.0,0.0,0.0,0.0,0.0,0.0,0.0,0.0,0.0,0.0,0.0,0.0,0.0,0.0,0.0,0.0,0.0,0.0,0.0,0.0,0.0,0.0,0.0,0.0,0.0,0.0,0.0,0.0,0.0,0.0,0.0,0.0,0.0,0.0,0.0,0.0,0.0,0.0,0.0,0.0,0.0,0.0,0.0,0.0,0.0,0.0,0.0,0.0,0.0,0.0,0.0,0.0,0.0,0.0,0.0,0.0,0.0,0.0,0.0,0.0,0.0,0.0,0.0,0.0,0.0,0.0,0.0,0.0,0.0,0.0,0.0,0.0,0.0,0.0,0.0,0.0,0.0,0.0,0.0,0.0,0.0,0.0,0.0,0.0,0.0,0.0,0.0,0.0,0.0,0.0,0.0,0.0,0.0,0.0,0.0,0.0,0.0,0.0,0.0,0.0,0.0,0.0,0.0,0.0,0.0,0.0,0.0,0.0,-1.3393,-1.3073,-1.2773,-1.2232,-1.1421,0.0,0.0,0.0,0.0,0.0,0.0,0.0,0.0,0.0,0.0,0.0,0.0,0.0,0.0,0.0,0.0,0.0,0.0,0.0,0.0,0.0,0.0,0.0,0.0,0.0,0.0,0.0,0.0,0.0,0.0,0.0,0.0,0.0,0.0,0.0,0.0,0.0,0.0,0.0,0.0,0.0,0.0,0.0,0.0,0.0,0.0,0.0,0.0,0.0,0.0,0.0,0.0,0.0,0.0,0.0,0.0,0.0,0.0,0.0,0.0,0.0,0.0,0.0,0.0,0.0,0.0,0.0,0.0,0.0,0.0,0.0,0.0,0.0,0.0,0.0,0.0,0.0,0.0,0.0,0.0,0.0,0.0,0.0,0.0,0.0,0.0,0.0,0.0,0.0,0.0,0.0,0.0,0.0,0.0,0.0,0.0,0.0,0.0,0.0,0.0,0.0,0.0,0.0,0.0,0.0,0.0,0.0,0.0,0.0,0.0,0.0,0.0,-1.3929,-1.3045,-1.1464,0.0,0.0,0.0,0.0,0.0,0.0,0.0,0.0,0.0,0.0,0.0,0.0,0.0,0.0,0.0,0.0,0.0,0.0,0.0,0.0,0.0,0.0,0.0,0.0,0.0,0.0,0.0,0.0,0.0,0.0,0.0,0.0,0.0,0.0,0.0,0.0,0.0,0.0,0.0,0.0,0.0,0.0,0.0,0.0,0.0,0.0,0.0,0.0,0.0,0.0,0.0,0.0,0.0,0.0,0.0,0.0,0.0,0.0,0.0,0.0,0.0,0.0,0.0,0.0,0.0,0.0,0.0,0.0,0.0,0.0,0.0,0.0,0.0,0.0,0.0,0.0,0.0,0.0,0.0,0.0,0.0,0.0,0.0,0.0,0.0,0.0,0.0,0.0,0.0,0.0,0.0,0.0,0.0,0.0,0.0,0.0,0.0,0.0,0.0,0.0,0.0,0.0,0.0,0.0,0.0,0.0,0.0,0.0,0.0,0.0,-1.5156,-1.5921,-1.4569,0.0,-1.1492,0.0,0.0,0.0,0.0,0.0,0.0,0.0,0.0,0.0,0.0,0.0,0.0,0.0,0.0,0.0,0.0,0.0,0.0,0.0,0.0,0.0,0.0,0.0,0.0,0.0,0.0,0.0,0.0,0.0,0.0,0.0,0.0,0.0,0.0,0.0,0.0,0.0,0.0,0.0,0.0,0.0,0.0,0.0,0.0,0.0,0.0,0.0,0.0,0.0,0.0,0.0,0.0,0.0,0.0,0.0,0.0,0.0,0.0,0.0,0.0,0.0,0.0,0.0,0.0,0.0,0.0,0.0,0.0,0.0,0.0,0.0,0.0,0.0,0.0,0.0,0.0,0.0,0.0,0.0,0.0,0.0,0.0,0.0,0.0,0.0,0.0,0.0,0.0,0.0,0.0,0.0,0.0,0.0,0.0,0.0,0.0,0.0,0.0,0.0,0.0,0.0,0.0,0.0,0.0,0.0,0.0,0.0,0.0,0.0,0.0,-1.6045,-1.7011,-1.5457,-1.4096,0.0,0.0,0.0,0.0,0.0,0.0,0.0,0.0,0.0,0.0,0.0,0.0,0.0,0.0,0.0,0.0,0.0,0.0,0.0,0.0,0.0,0.0,0.0,0.0,0.0,0.0,0.0,0.0,0.0,0.0,0.0,0.0,0.0,0.0,0.0,0.0,0.0,0.0,0.0,0.0,0.0,0.0,0.0,0.0,0.0,0.0,0.0,0.0,0.0,0.0,0.0,0.0,0.0,0.0,0.0,0.0,0.0,0.0,0.0,0.0,0.0,0.0,0.0,0.0,0.0,0.0,0.0,0.0,0.0,0.0,0.0,0.0,0.0,0.0,0.0,0.0,0.0,0.0,0.0,0.0,0.0,0.0,0.0,0.0,0.0,0.0,0.0,0.0,0.0,0.0,0.0,0.0,0.0,0.0,0.0,0.0,0.0,0.0,0.0,0.0,0.0,0.0,0.0,0.0,0.0,0.0,0.0,0.0,0.0,0.0,-1.4715,-1.6158,-1.682,-1.5795,-1.4723,-1.3668,0.0,0.0,0.0,0.0,0.0,0.0,0.0,0.0,0.0,0.0,0.0,0.0,0.0,0.0,0.0,0.0,0.0,0.0,0.0,0.0,0.0,0.0,0.0,0.0,0.0,0.0,0.0,0.0,0.0,0.0,0.0,0.0,0.0,0.0,0.0,0.0,0.0,0.0,0.0,0.0,0.0,0.0,0.0,0.0,0.0,0.0,0.0,0.0,0.0,0.0,0.0,0.0,0.0,0.0,0.0,0.0,0.0,0.0,0.0,0.0,0.0,0.0,0.0,0.0,0.0,0.0,0.0,0.0,0.0,0.0,0.0,0.0,0.0,0.0,0.0,0.0,0.0,0.0,0.0,0.0,0.0,0.0,0.0,0.0,0.0,0.0,0.0,0.0,0.0,0.0,0.0,0.0,0.0,0.0,0.0,0.0,0.0,0.0,0.0,0.0,0.0,0.0,0.0,0.0,0.0,0.0,0.0,0.0,-1.3552,-1.4562,-1.517,-1.5357,-1.5222,-1.4437,0.0,0.0,0.0,0.0,0.0,0.0,0.0,0.0,0.0,0.0,0.0,0.0,0.0,0.0,0.0,0.0,0.0,0.0,0.0,0.0,0.0,0.0,0.0,0.0,0.0,0.0,0.0,0.0,0.0,0.0,0.0,0.0,0.0,0.0,0.0,0.0,0.0,0.0,0.0,0.0,0.0,0.0,0.0,0.0,0.0,0.0,0.0,0.0,0.0,0.0,0.0,0.0,0.0,0.0,0.0,0.0,0.0,0.0,0.0,0.0,0.0,0.0,0.0,0.0,0.0,0.0,0.0,0.0,0.0,0.0,0.0,0.0,0.0,0.0,0.0,0.0,0.0,0.0,0.0,0.0,0.0,0.0,0.0,0.0,0.0,0.0,0.0,0.0,0.0,0.0,0.0,0.0,0.0,0.0,0.0,0.0,0.0,0.0,0.0,0.0,0.0,0.0,0.0,0.0,0.0,0.0,0.0,0.0,0.0,-1.3813,-1.5691,-1.6505,-1.6051,-1.5497,-1.442,0.0,0.0,0.0,0.0,0.0,0.0,0.0,0.0,0.0,0.0,0.0,0.0,0.0,0.0,0.0,0.0,0.0,0.0,0.0,0.0,0.0,0.0,0.0,0.0,0.0,0.0,0.0,0.0,0.0,0.0,0.0,0.0,0.0,0.0,0.0,0.0,0.0,0.0,0.0,0.0,0.0,0.0,0.0,0.0,0.0,0.0,0.0,0.0,0.0,0.0,0.0,0.0,0.0,0.0,0.0,0.0,0.0,0.0,0.0,0.0,0.0,0.0,0.0,0.0,0.0,0.0,0.0,0.0,0.0,0.0,0.0,0.0,0.0,0.0,0.0,0.0,0.0,0.0,0.0,0.0,0.0,0.0,0.0,0.0,0.0,0.0,0.0,0.0,0.0,0.0,0.0,0.0,0.0,0.0,0.0,0.0,0.0,0.0,0.0,0.0,0.0,0.0,0.0,0.0,0.0,0.0,0.0,0.0,0.0,-1.5068,0.0,-1.7586,-1.6513,-1.5923,-1.4693,0.0,0.0,0.0,0.0,0.0,0.0,0.0,0.0,0.0,0.0,0.0,0.0,0.0,0.0,0.0,0.0,0.0,0.0,0.0,0.0,0.0,0.0,0.0,0.0,0.0,0.0,0.0,0.0,0.0,0.0,0.0,0.0,0.0,0.0,0.0,0.0,0.0,0.0,0.0,0.0,0.0,0.0,0.0,0.0,0.0,0.0,0.0,0.0,0.0,0.0,0.0,0.0,0.0,0.0,0.0,0.0,0.0,0.0,0.0,0.0,0.0,0.0,0.0,0.0,0.0,0.0,0.0,0.0,0.0,0.0,0.0,0.0,0.0,0.0,0.0,0.0,0.0,0.0,0.0,0.0,0.0,0.0,0.0,0.0,0.0,0.0,0.0,0.0,0.0,0.0,0.0,0.0,0.0,0.0,0.0,0.0,0.0,0.0,0.0,0.0,0.0,0.0,0.0,0.0,0.0,0.0,0.0,0.0,-1.6762,-1.76,-1.8462,-1.8191,-1.6505,-1.6471,-1.5289,0.0,0.0,0.0,0.0,0.0,0.0,0.0,0.0,0.0,0.0,0.0,0.0,0.0,0.0,0.0,0.0,0.0,0.0,0.0,0.0,0.0,0.0,0.0,0.0,0.0,0.0,0.0,0.0,0.0,0.0,0.0,0.0,0.0,0.0,0.0,0.0,0.0,0.0,0.0,0.0,0.0,0.0,0.0,0.0,0.0,0.0,0.0,0.0,0.0,0.0,0.0,0.0,0.0,0.0,0.0,0.0,0.0,0.0,0.0,0.0,0.0,0.0,0.0,0.0,0.0,0.0,0.0,0.0,0.0,0.0,0.0,0.0,0.0,0.0,0.0,0.0,0.0,0.0,0.0,0.0,0.0,0.0,0.0,0.0,0.0,0.0,0.0,0.0,0.0,0.0,0.0,0.0,0.0,0.0,0.0,0.0,0.0,0.0,0.0,0.0,0.0,0.0,0.0,0.0,0.0,0.0,0.0,0.0,0.0,-1.9259,-2.0054,-1.9712,-1.8104,-1.7046,-1.5584,0.0,0.0,0.0,0.0,0.0,0.0,0.0,0.0,0.0,0.0,0.0,0.0,0.0,0.0,0.0,0.0,0.0,0.0,0.0,0.0,0.0,0.0,0.0,0.0,0.0,0.0,0.0,0.0,0.0,0.0,0.0,0.0,0.0,0.0,0.0,0.0,0.0,0.0,0.0,0.0,0.0,0.0,0.0,0.0,0.0,0.0,0.0,0.0,0.0,0.0,0.0,0.0,0.0,0.0,0.0,0.0,0.0,0.0,0.0,0.0,0.0,0.0,0.0,0.0,0.0,0.0,0.0,0.0,0.0,0.0,0.0,0.0,0.0,0.0,0.0,0.0,0.0,0.0,0.0,0.0,0.0,0.0,0.0,0.0,0.0,0.0,0.0,0.0,0.0,0.0,0.0,0.0,0.0,0.0,0.0,0.0,0.0,0.0,0.0,0.0,0.0,0.0,0.0,0.0,0.0,0.0,0.0,0.0,0.0,-2.2785,-2.2717,-2.1888,-2.0279,-1.8732,-1.6968,-1.4997,0.0,0.0,0.0,0.0,0.0,0.0,0.0,0.0,0.0,0.0,0.0,0.0,0.0,0.0,0.0,0.0,0.0,0.0,0.0,0.0,0.0,0.0,0.0,0.0,0.0,0.0,0.0,0.0,0.0,0.0,0.0,0.0,0.0,0.0,0.0,0.0,0.0,0.0,0.0,0.0,0.0,0.0,0.0,0.0,0.0,0.0,0.0,0.0,0.0,0.0,0.0,0.0,0.0,0.0,0.0,0.0,0.0,0.0,0.0,0.0,0.0,0.0,0.0,0.0,0.0,0.0,0.0,0.0,0.0,0.0,0.0,0.0,0.0,0.0,0.0,0.0,0.0,0.0,0.0,0.0,0.0,0.0,0.0,0.0,0.0,0.0,0.0,0.0,0.0,0.0,0.0,0.0,0.0,0.0,0.0,0.0,0.0,0.0,0.0,0.0,0.0,0.0,0.0,0.0,0.0,0.0,0.0,0.0,-2.7624,-2.6263,-2.4729,-2.3025,-2.1393,-1.9295,0.0,0.0,0.0,0.0,0.0,0.0,0.0,0.0,0.0,0.0,0.0,0.0,0.0,0.0,0.0,0.0,0.0,0.0,0.0,0.0,0.0,0.0,0.0,0.0,0.0,0.0,0.0,0.0,0.0,0.0,0.0,0.0,0.0,0.0,0.0,0.0,0.0,0.0,0.0,0.0,0.0,0.0,0.0,0.0,0.0,0.0,0.0,0.0,0.0,0.0,0.0,0.0,0.0,0.0,0.0,0.0,0.0,0.0,0.0,0.0,0.0,0.0,0.0,0.0,0.0,0.0,0.0,0.0,0.0,0.0,0.0,0.0,0.0,0.0,0.0,0.0,0.0,0.0,0.0,0.0,0.0,0.0,0.0,0.0,0.0,0.0,0.0,0.0,0.0,0.0,0.0,0.0,0.0,0.0,0.0,0.0,0.0,0.0,0.0,0.0,0.0,0.0,0.0,0.0,0.0,0.0,0.0,0.0,0.0,-2.8549,-2.9984,-2.9327,-2.6489,-2.425,-2.1629,0.0,0.0,0.0,0.0,0.0,0.0,0.0,0.0,0.0,0.0,0.0,0.0,0.0,0.0,0.0,0.0,0.0,0.0,0.0,0.0,0.0,0.0,0.0,0.0,0.0,0.0,0.0,0.0,0.0,0.0,0.0,0.0,0.0,0.0,0.0,0.0,0.0,0.0,0.0,0.0,0.0,0.0,0.0,0.0,0.0,0.0,0.0,0.0,0.0,0.0,0.0,0.0,0.0,0.0,0.0,0.0,0.0,0.0,0.0,0.0,0.0,0.0,0.0,0.0,0.0,0.0,0.0,0.0,0.0,0.0,0.0,0.0,0.0,0.0,0.0,0.0,0.0,0.0,0.0,0.0,0.0,0.0,0.0,0.0,0.0,0.0,0.0,0.0,0.0,0.0,0.0,0.0,0.0,0.0,0.0,0.0,0.0,0.0,0.0,0.0,0.0,0.0,0.0,0.0,0.0,0.0,0.0,0.0,-2.7179,-3.0087,-3.2582,-3.2434,-2.9455,-2.6614,-2.3743,0.0,0.0,0.0,0.0,0.0,0.0,0.0,0.0,0.0,0.0,0.0,0.0,0.0,0.0,0.0,0.0,0.0,0.0,0.0,0.0,0.0,0.0,0.0,0.0,0.0,0.0,0.0,0.0,0.0,0.0,0.0,0.0,0.0,0.0,0.0,0.0,0.0,0.0,0.0,0.0,0.0,0.0,0.0,0.0,0.0,0.0,0.0,0.0,0.0,0.0,0.0,0.0,0.0,0.0,0.0,0.0,0.0,0.0,0.0,0.0,0.0,0.0,0.0,0.0,0.0,0.0,0.0,0.0,0.0,0.0,0.0,0.0,0.0,0.0,0.0,0.0,0.0,0.0,0.0,0.0,0.0,0.0,0.0,0.0,0.0,0.0,0.0,0.0,0.0,0.0,0.0,0.0,0.0,0.0,0.0,0.0,0.0,0.0,0.0,0.0,0.0,0.0,0.0,0.0,0.0,0.0,0.0,0.0,-2.8404,-3.1635,-3.4192,-3.4308,-3.1852,-2.8582,-2.5601,0.0,0.0,0.0,0.0,0.0,0.0,0.0,0.0,0.0,0.0,0.0,0.0,0.0,0.0,0.0,0.0,0.0,0.0,0.0,0.0,0.0,0.0,0.0,0.0,0.0,0.0,0.0,0.0,0.0,0.0,0.0,0.0,0.0,0.0,0.0,0.0,0.0,0.0,0.0,0.0,0.0,0.0,0.0,0.0,0.0,0.0,0.0,0.0,0.0,0.0,0.0,0.0,0.0,0.0,0.0,0.0,0.0,0.0,0.0,0.0,0.0,0.0,0.0,0.0,0.0,0.0,0.0,0.0,0.0,0.0,0.0,0.0,0.0,0.0,0.0,0.0,0.0,0.0,0.0,0.0,0.0,0.0,0.0,0.0,0.0,0.0,0.0,0.0,0.0,0.0,0.0,0.0,0.0,0.0,0.0,0.0,0.0,0.0,0.0,0.0,0.0,0.0,0.0,0.0,0.0,0.0,0.0,0.0,-2.9505,-3.1591,-3.4166,-3.4596,-3.2679,-2.9987,-2.677,0.0,0.0,0.0,0.0,0.0,0.0,0.0,0.0,0.0,0.0,0.0,0.0,0.0,0.0,0.0,0.0,0.0,0.0,0.0,0.0,0.0,0.0,0.0,0.0,0.0,0.0,0.0,0.0,0.0,0.0,0.0,0.0,0.0,0.0,0.0,0.0,0.0,0.0,0.0,0.0,0.0,0.0,0.0,0.0,0.0,0.0,0.0,0.0,-1.6113,0.0,0.0,0.0,0.0,0.0,0.0,0.0,0.0,0.0,0.0,0.0,0.0,0.0,0.0,0.0,0.0,0.0,0.0,0.0,0.0,0.0,0.0,0.0,0.0,0.0,0.0,0.0,0.0,0.0,0.0,0.0,0.0,0.0,0.0,0.0,0.0,0.0,0.0,0.0,0.0,0.0,0.0,0.0,0.0,0.0,0.0,0.0,0.0,0.0,0.0,0.0,0.0,0.0,0.0,0.0,0.0,0.0,0.0,0.0,-3.0342,-3.2108,-3.4338,-3.4673,-3.2929,-3.0833,-2.792,0.0,0.0,0.0,0.0,0.0,0.0,0.0,0.0,0.0,0.0,0.0,0.0,0.0,0.0,0.0,0.0,0.0,0.0,0.0,0.0,0.0,0.0,0.0,0.0,0.0,0.0,0.0,0.0,0.0,0.0,0.0,0.0,0.0,0.0,0.0,0.0,0.0,0.0,0.0,0.0,0.0,0.0,0.0,0.0,0.0,0.0,0.0,0.0,0.0,0.0,0.0,0.0,0.0,0.0,0.0,0.0,0.0,0.0,0.0,0.0,0.0,0.0,0.0,0.0,0.0,0.0,0.0,0.0,0.0,0.0,0.0,0.0,0.0,0.0,0.0,0.0,0.0,0.0,0.0,0.0,0.0,0.0,0.0,0.0,0.0,0.0,0.0,0.0,0.0,0.0,0.0,0.0,0.0,0.0,0.0,0.0,0.0,0.0,0.0,0.0,0.0,0.0,0.0,0.0,0.0,0.0,0.0,-2.8387,-3.0939,-3.2479,-3.4337,-3.443,-3.2564,-3.0885,-2.8434,-2.5106,0.0,0.0,0.0,0.0,0.0,0.0,0.0,0.0,0.0,0.0,0.0,0.0,0.0,0.0,0.0,0.0,0.0,0.0,0.0,0.0,0.0,0.0,0.0,0.0,0.0,0.0,0.0,0.0,0.0,0.0,0.0,0.0,0.0,0.0,0.0,0.0,0.0,0.0,-1.4082,-1.5789,0.0,0.0,0.0,0.0,0.0,0.0,0.0,0.0,-1.6624,0.0,0.0,0.0,0.0,0.0,0.0,0.0,0.0,0.0,0.0,0.0,0.0,0.0,0.0,0.0,0.0,0.0,0.0,0.0,0.0,0.0,0.0,0.0,0.0,0.0,0.0,0.0,0.0,0.0,0.0,0.0,0.0,0.0,0.0,0.0,0.0,0.0,0.0,0.0,0.0,0.0,0.0,0.0,0.0,0.0,0.0,0.0,0.0,0.0,0.0,0.0,0.0,0.0,0.0,0.0,0.0,-2.4825,-2.8898,-3.1219,-3.162,-3.3447,-3.3256,-3.0885,-2.9179,-2.6722,-2.3379,0.0,0.0,0.0,0.0,0.0,0.0,0.0,0.0,0.0,0.0,0.0,0.0,0.0,0.0,0.0,0.0,0.0,0.0,0.0,0.0,0.0,0.0,0.0,0.0,0.0,0.0,0.0,0.0,0.0,0.0,0.0,0.0,0.0,0.0,0.0,0.0,0.0,0.0,0.0,-1.7687,-1.8532,0.0,0.0,0.0,0.0,0.0,0.0,0.0,0.0,-1.5282,0.0,0.0,0.0,0.0,0.0,0.0,0.0,0.0,0.0,0.0,0.0,0.0,0.0,0.0,0.0,0.0,0.0,0.0,0.0,0.0,0.0,0.0,0.0,0.0,0.0,0.0,0.0,0.0,0.0,0.0,0.0,0.0,0.0,0.0,0.0,0.0,0.0,0.0,0.0,0.0,0.0,0.0,0.0,0.0,0.0,0.0,0.0,0.0,0.0,0.0,0.0,0.0,0.0,0.0,0.0,-2.4749,-2.8504,-3.0744,-3.1356,-3.2767,-3.2526,-3.0462,-2.8346,-2.5837,0.0,0.0,0.0,0.0,0.0,0.0,0.0,0.0,0.0,0.0,0.0,0.0,0.0,0.0,0.0,0.0,0.0,0.0,0.0,0.0,0.0,0.0,0.0,0.0,0.0,0.0,0.0,0.0,0.0,0.0,0.0,0.0,0.0,0.0,0.0,0.0,0.0,0.0,0.0,0.0,-1.8493,-1.9651,-1.9206,0.0,0.0,0.0,0.0,0.0,0.0,-1.5944,-1.5448,0.0,0.0,0.0,0.0,0.0,0.0,0.0,0.0,0.0,0.0,0.0,0.0,0.0,0.0,0.0,0.0,0.0,0.0,0.0,0.0,0.0,0.0,0.0,0.0,0.0,0.0,0.0,0.0,0.0,0.0,0.0,0.0,0.0,0.0,0.0,0.0,0.0,0.0,0.0,0.0,0.0,0.0,0.0,0.0,0.0,0.0,0.0,0.0,0.0,0.0,0.0,0.0,0.0,0.0,0.0,-2.4578,-2.8003,-3.0156,-3.0988,-3.206,-3.1725,-2.9874,-2.7555,-2.5048,0.0,0.0,0.0,0.0,0.0,0.0,0.0,0.0,0.0,0.0,0.0,0.0,0.0,0.0,0.0,0.0,0.0,0.0,0.0,0.0,0.0,0.0,0.0,0.0,0.0,0.0,0.0,0.0,0.0,0.0,0.0,0.0,0.0,0.0,0.0,0.0,0.0,0.0,0.0,0.0,0.0,-2.051,-2.0852,-2.0865,0.0,0.0,0.0,0.0,-1.8313,-1.7295,0.0,0.0,0.0,0.0,0.0,0.0,0.0,0.0,0.0,0.0,0.0,0.0,0.0,0.0,0.0,0.0,0.0,0.0,0.0,0.0,0.0,0.0,0.0,0.0,0.0,0.0,0.0,0.0,0.0,0.0,0.0,0.0,0.0,0.0,0.0,0.0,0.0,0.0,0.0,0.0,0.0,0.0,0.0,0.0,0.0,0.0,0.0,0.0,0.0,0.0,0.0,0.0,0.0,0.0,0.0,0.0,-2.452,-2.789,-2.9753,-3.0004,-3.1016,-3.0444,-2.8083,-2.6288,-2.3836,0.0,0.0,0.0,0.0,0.0,0.0,0.0,0.0,0.0,0.0,0.0,0.0,0.0,0.0,0.0,0.0,0.0,0.0,0.0,0.0,0.0,0.0,0.0,0.0,0.0,0.0,0.0,0.0,0.0,0.0,0.0,0.0,0.0,0.0,0.0,0.0,0.0,0.0,0.0,0.0,0.0,-2.0949,-2.2414,-2.2597,-2.2599,0.0,0.0,-2.0058,-2.027,-2.0061,0.0,0.0,0.0,0.0,0.0,0.0,0.0,0.0,0.0,0.0,0.0,0.0,0.0,0.0,0.0,0.0,0.0,0.0,0.0,0.0,0.0,0.0,0.0,0.0,0.0,0.0,0.0,0.0,0.0,0.0,0.0,0.0,0.0,0.0,0.0,0.0,0.0,0.0,0.0,0.0,0.0,0.0,0.0,0.0,0.0,0.0,0.0,0.0,0.0,0.0,0.0,0.0,0.0,0.0,0.0,-2.08,-2.3725,-2.6606,-2.837,-2.8946,-2.9929,-2.9521,-2.7587,-2.545,-2.3021,0.0,0.0,0.0,0.0,0.0,0.0,0.0,0.0,0.0,0.0,0.0,0.0,0.0,0.0,0.0,0.0,0.0,0.0,0.0,0.0,0.0,0.0,0.0,0.0,0.0,0.0,0.0,0.0,0.0,0.0,0.0,0.0,0.0,0.0,0.0,0.0,0.0,0.0,0.0,0.0,0.0,0.0,-2.2845,-2.3785,0.0,0.0,0.0,-2.3047,-2.1774,0.0,0.0,0.0,0.0,0.0,0.0,0.0,0.0,0.0,0.0,0.0,0.0,0.0,0.0,0.0,0.0,0.0,0.0,0.0,0.0,0.0,0.0,0.0,0.0,0.0,0.0,0.0,0.0,0.0,0.0,0.0,0.0,0.0,0.0,0.0,0.0,0.0,0.0,0.0,0.0,0.0,0.0,0.0,0.0,0.0,0.0,0.0,0.0,0.0,0.0,0.0,0.0,0.0,0.0,0.0,0.0,0.0,-2.285,-2.5503,-2.7317,-2.8241,-2.8959,-2.8717,-2.7346,-2.4972,0.0,0.0,0.0,0.0,0.0,0.0,0.0,0.0,0.0,0.0,0.0,0.0,0.0,0.0,0.0,0.0,0.0,0.0,0.0,0.0,0.0,0.0,0.0,0.0,0.0,0.0,0.0,-1.0905,0.0,0.0,0.0,0.0,0.0,0.0,0.0,0.0,0.0,0.0,0.0,0.0,0.0,0.0,-2.2118,-2.2991,-2.4503,-2.5132,0.0,0.0,-2.5019,-2.3024,-2.187,-2.1062,0.0,0.0,0.0,0.0,0.0,0.0,0.0,0.0,0.0,0.0,0.0,0.0,0.0,0.0,0.0,0.0,0.0,0.0,0.0,0.0,0.0,0.0,0.0,0.0,0.0,0.0,0.0,0.0,0.0,0.0,0.0,0.0,0.0,0.0,0.0,0.0,0.0,0.0,0.0,0.0,0.0,0.0,0.0,0.0,0.0,0.0,0.0,0.0,0.0,0.0,0.0,0.0,0.0,0.0,-1.9456,-2.1982,-2.5162,-2.7202,-2.8078,-2.8297,-2.7997,-2.7119,-2.4832,-2.2483,0.0,0.0,0.0,0.0,0.0,0.0,0.0,0.0,0.0,0.0,0.0,0.0,0.0,0.0,0.0,0.0,0.0,0.0,0.0,0.0,0.0,0.0,0.0,0.0,0.0,0.0,0.0,0.0,0.0,0.0,0.0,0.0,0.0,0.0,0.0,0.0,0.0,0.0,0.0,0.0,0.0,-2.2118,-2.2982,-2.4588,-2.5642,0.0,-2.5625,-2.5273,-2.4081,-2.3335,-2.2388,-2.0767,0.0,0.0,0.0,0.0,0.0,0.0,0.0,0.0,0.0,0.0,0.0,0.0,0.0,0.0,0.0,0.0,0.0,0.0,0.0,0.0,0.0,0.0,0.0,0.0,0.0,0.0,0.0,0.0,0.0,0.0,0.0,0.0,0.0,0.0,0.0,0.0,0.0,0.0,0.0,0.0,0.0,0.0,0.0,0.0,0.0,0.0,0.0,0.0,0.0,0.0,0.0,0.0,0.0,-1.8599,-2.1036,-2.4284,-2.6091,-2.6443,-2.6982,-2.6894,-2.6135,-2.4321,-2.2257,0.0,0.0,0.0,0.0,0.0,0.0,0.0,0.0,0.0,0.0,0.0,0.0,0.0,0.0,0.0,0.0,0.0,0.0,0.0,0.0,0.0,0.0,0.0,0.0,0.0,0.0,0.0,0.0,-1.3632,-1.3847,-1.4394,0.0,0.0,0.0,0.0,0.0,0.0,0.0,0.0,0.0,0.0,-2.2167,-2.2988,-2.4587,0.0,0.0,-2.5703,-2.5547,-2.5137,-2.3907,-2.2456,-2.0707,-1.9425,0.0,0.0,0.0,0.0,0.0,0.0,0.0,0.0,0.0,0.0,0.0,0.0,0.0,0.0,0.0,0.0,0.0,0.0,0.0,0.0,0.0,0.0,0.0,0.0,0.0,0.0,0.0,0.0,0.0,0.0,0.0,0.0,0.0,0.0,0.0,0.0,0.0,0.0,0.0,0.0,0.0,0.0,0.0,0.0,0.0,0.0,0.0,0.0,0.0,0.0,0.0,0.0,-1.7972,-2.0126,-2.3612,-2.5384,-2.5403,-2.5952,-2.5993,-2.5484,-2.3764,-2.1939,0.0,0.0,0.0,0.0,0.0,0.0,0.0,0.0,0.0,0.0,0.0,0.0,0.0,0.0,0.0,0.0,0.0,0.0,0.0,0.0,0.0,0.0,0.0,0.0,0.0,0.0,0.0,0.0,-1.4256,-1.4336,-1.4941,0.0,0.0,0.0,0.0,0.0,0.0,0.0,0.0,0.0,0.0,-2.248,-2.3027,-2.459,-2.5703,-2.5703,-2.5703,-2.5703,-2.5703,-2.3755,-2.1801,-2.0578,0.0,0.0,0.0,0.0,0.0,0.0,0.0,0.0,0.0,0.0,0.0,0.0,0.0,0.0,0.0,0.0,0.0,0.0,0.0,0.0,0.0,0.0,0.0,0.0,0.0,0.0,0.0,-1.5704,0.0,0.0,-1.4285,0.0,0.0,0.0,0.0,0.0,0.0,0.0,0.0,0.0,0.0,0.0,0.0,0.0,0.0,0.0,0.0,0.0,0.0,0.0,0.0,0.0,0.0,-1.7704,-1.937,-2.33,-2.5356,-2.5384,-2.5393,-2.5441,-2.5417,-2.3185,-2.1546,-2.0706,0.0,0.0,0.0,0.0,0.0,0.0,0.0,0.0,0.0,0.0,0.0,0.0,0.0,0.0,0.0,0.0,0.0,0.0,0.0,0.0,0.0,0.0,0.0,0.0,0.0,0.0,-1.5257,-1.4607,-1.4121,0.0,0.0,0.0,0.0,0.0,0.0,0.0,0.0,0.0,-2.0293,-2.2012,-2.3086,-2.3105,-2.459,-2.5703,-2.5703,-2.5703,-2.5703,-2.5703,-2.277,-2.0423,0.0,0.0,0.0,0.0,0.0,0.0,0.0,0.0,0.0,0.0,0.0,0.0,0.0,0.0,0.0,0.0,0.0,0.0,0.0,0.0,0.0,0.0,0.0,0.0,0.0,0.0,0.0,-1.8947,-1.8602,0.0,0.0,0.0,0.0,0.0,0.0,0.0,0.0,0.0,0.0,0.0,-1.987,-1.9913,0.0,0.0,0.0,0.0,0.0,0.0,0.0,0.0,0.0,0.0,0.0,0.0,-1.7142,-1.9334,-2.2263,-2.4061,-2.4585,-2.4593,-2.4631,-2.4604,-2.2812,-2.0704,-1.8326,0.0,0.0,0.0,0.0,0.0,0.0,0.0,0.0,0.0,0.0,0.0,0.0,0.0,0.0,0.0,0.0,0.0,0.0,0.0,0.0,0.0,0.0,0.0,0.0,0.0,-1.5042,0.0,0.0,0.0,0.0,0.0,0.0,0.0,0.0,0.0,0.0,0.0,-1.9941,-2.0527,-2.2539,-2.3769,-2.3242,-2.4609,-2.5703,0.0,0.0,0.0,0.0,0.0,0.0,0.0,0.0,0.0,0.0,0.0,0.0,0.0,0.0,-1.9408,-1.6564,-1.7119,-1.8154,-1.8519,0.0,0.0,0.0,0.0,0.0,0.0,0.0,0.0,0.0,0.0,0.0,0.0,0.0,0.0,-2.1024,-2.0646,-1.9368,0.0,0.0,0.0,0.0,0.0,0.0,0.0,0.0,-2.1036,-2.1699,-2.2046,-2.1897,-2.1896,0.0,-2.1852,-2.0283,0.0,0.0,0.0,0.0,0.0,0.0,0.0,0.0,-1.7582,-1.9711,-2.2171,-2.3676,-2.4153,-2.3914,-2.3786,-2.3749,-2.2225,-2.0131,-1.7502,-1.7045,-1.6327,0.0,0.0,0.0,0.0,0.0,0.0,0.0,0.0,0.0,0.0,0.0,0.0,0.0,0.0,0.0,0.0,0.0,0.0,0.0,0.0,0.0,0.0,0.0,-1.5663,0.0,0.0,0.0,0.0,0.0,0.0,0.0,0.0,0.0,-1.8652,-1.9883,-2.0801,-2.1387,-2.3164,-2.4316,-2.4082,0.0,0.0,0.0,0.0,0.0,0.0,0.0,-2.1992,-2.1308,-2.1633,-2.1814,-2.1258,-1.9754,-1.8984,-2.0115,0.0,0.0,-1.8811,-1.8927,-1.9423,-2.0154,-1.9366,-1.8467,-1.8159,-1.8506,-1.8773,0.0,0.0,0.0,0.0,0.0,0.0,0.0,0.0,-2.3049,-2.2621,0.0,-2.1143,0.0,0.0,0.0,0.0,0.0,-1.9457,0.0,0.0,-2.3173,-2.392,-2.468,-2.4126,-2.394,-2.4064,-2.3441,-2.2758,-2.189,-1.9133,0.0,0.0,0.0,0.0,0.0,0.0,-1.8896,-2.0484,-2.2887,-2.4153,-2.4135,-2.3419,-2.2969,-2.2878,-2.1415,-1.9862,-1.8333,-1.8314,-1.7665,-1.6143,-1.5292,0.0,0.0,0.0,0.0,0.0,0.0,0.0,0.0,0.0,0.0,0.0,0.0,0.0,0.0,0.0,0.0,0.0,0.0,0.0,0.0,-1.6064,0.0,0.0,0.0,0.0,0.0,0.0,0.0,0.0,0.0,0.0,-2.0391,-2.0684,-2.1269,-2.291,0.0,0.0,0.0,0.0,-2.5703,-2.5703,-2.5703,-2.5703,-2.5703,-2.5616,-2.4951,-2.3273,0.0,0.0,-2.2891,-2.1504,-2.0346,-2.0308,-2.0288,-2.0288,-2.025,-2.0212,-2.025,-2.0288,-2.0184,-1.9865,-1.9116,-1.9352,-1.9796,-2.5212,0.0,0.0,0.0,0.0,-2.3552,-2.3911,-2.4495,-2.4508,-2.436,-2.4102,-2.3324,0.0,0.0,0.0,0.0,0.0,0.0,-2.2253,-2.272,-2.3694,-2.4379,-2.4716,-2.4163,-2.4006,-2.4138,-2.3679,-2.3014,-2.2224,-2.139,-1.9466,-1.6578,0.0,0.0,0.0,0.0,-1.8896,-2.0493,-2.2382,-2.3336,-2.3336,-2.3116,-2.2419,-2.1245,-2.0784,-2.0047,-1.9022,-1.8497,-1.8079,-1.7615,-1.5801,0.0,0.0,0.0,0.0,0.0,0.0,0.0,0.0,0.0,0.0,0.0,0.0,0.0,0.0,0.0,0.0,0.0,0.0,0.0,-1.6006,-1.6413,-1.6502,0.0,0.0,0.0,0.0,0.0,0.0,0.0,0.0,0.0,-2.207,-2.207,-2.2363,0.0,0.0,-2.543,-2.5664,-2.5703,-2.5703,-2.5703,-2.5703,0.0,-2.5703,-2.5679,-2.5503,-2.498,-2.4307,-2.4016,-2.4561,-2.3242,-2.1696,-2.0542,-2.0288,-2.0288,-2.0288,-2.0288,-2.0288,-2.0285,-2.0237,-2.0118,-1.9831,-1.9812,-1.9803,-2.7585,-2.6088,-2.5084,-2.5153,-2.5918,-2.5782,-2.6068,-2.6619,-2.6311,-2.6157,-2.6088,-2.5043,-2.3913,-2.276,-2.1838,0.0,0.0,0.0,-2.353,-2.393,-2.4632,-2.5178,-2.5538,-2.4749,-2.4454,-2.4647,-2.3922,-2.3343,-2.2851,-2.2557,-2.1452,-1.9514,0.0,0.0,-1.6537,-1.8185,-1.9704,-2.1006,-2.2327,-2.3006,-2.3006,-2.2337,-2.1365,-2.0097,-2.0016,-1.9803,-1.9315,-1.8908,-1.8548,-1.8271,-1.6599,-1.5378,0.0,0.0,0.0,0.0,0.0,0.0,0.0,0.0,0.0,0.0,0.0,-1.0248,-1.0579,0.0,0.0,0.0,-1.4714,-1.6419,-1.6959,-1.7359,0.0,0.0,0.0,0.0,0.0,0.0,0.0,-1.791,-1.8926,-2.0742,-2.375,-2.3867,-2.3828,-2.4355,-2.5156,-2.5703,-2.5703,0.0,-2.5703,-2.5703,-2.5703,-2.5703,-2.5703,-2.5703,-2.5699,-2.5696,-2.5184,-2.4916,-2.5314,-2.403,-2.2299,-2.0796,-2.0288,-2.0288,-2.0288,-2.0288,-2.0288,-2.0288,-2.0273,-2.0208,-2.0088,-1.9944,-1.9799,-2.9344,-2.9333,-2.8045,-2.7836,-2.8353,-2.8288,-2.8544,-2.8925,-2.8129,-2.7789,-2.7689,-2.6302,-2.527,-2.4521,-2.3381,0.0,-2.3967,-2.3974,-2.4643,-2.5875,-2.5756,-2.6147,-2.6922,-2.5599,-2.5147,-2.5389,-2.4235,-2.3682,-2.3646,-2.3009,-2.264,-2.2512,-2.0317,-1.8873,-1.8398,-1.9829,-2.0996,-2.1794,-2.2593,-2.2914,-2.2767,-2.1226,-2.006,-1.9334,-1.9224,-1.9205,-1.9205,-1.9191,-1.8878,-1.8215,-1.7503,-1.6446,-1.504,0.0,0.0,0.0,0.0,0.0,0.0,0.0,0.0,0.0,0.0,0.0,0.0,0.0,0.0,-1.3997,-1.6346,0.0,-1.7905,-1.8621,0.0,0.0,0.0,-1.7845,-1.7988,-1.8775,-1.9031,-1.8281,0.0,0.0,-2.5273,-2.5703,-2.541,-2.4609,-2.5195,-2.5703,-2.5703,-2.5703,-2.5703,-2.5703,-2.5703,-2.5703,-2.5703,-2.5703,-2.5702,-2.5704,-2.5653,-2.5572,-2.5513,-2.4355,-2.2547,-2.0604,-2.0404,-2.0442,-2.0346,-2.0423,-2.0462,-2.0346,-2.0288,-2.0241,-2.006,-1.9957,-1.9841,-3.0707,-3.0728,-3.0393,-2.9807,-2.9059,-2.8937,-2.8914,-2.8925,-2.8145,-2.7789,-2.7756,-2.6843,-2.6064,-2.5382,-2.4626,-2.4393,-2.4558,-2.5118,-2.5535,-2.5785,-2.6216,-2.6639,-2.6939,-2.565,-2.5139,-2.53,-2.4207,-2.3627,-2.3605,-2.3447,-2.3084,-2.252,-2.1883,-2.1272,-2.0715,-2.122,-2.1574,-2.1794,-2.2593,-2.2382,-2.1135,-2.0107,-1.9499,-1.9297,-1.8709,-1.839,-1.8372,-1.7803,-1.7707,-1.807,-1.7378,-1.7054,-1.7269,-1.6011,0.0,0.0,0.0,0.0,0.0,0.0,0.0,0.0,0.0,-1.1714,-1.319,0.0,-1.4808,0.0,-1.7603,-1.8691,-1.8701,-1.8908,0.0,0.0,-1.8205,-1.8086,-1.8819,-1.9677,-2.0135,-1.9997,-2.1464,-2.332,-2.5449,-2.5703,-2.5625,-2.543,-2.5566,-2.5703,-2.5703,-2.5703,-2.5703,-2.5703,-2.5703,-2.5703,-2.5703,-2.5703,-2.5703,-2.5702,-2.5691,-2.5677,-2.5675,-2.5265,-2.3897,-2.1109,-2.1389,-2.162,-2.0519,-2.1293,-2.16,-2.0619,-2.0288,-2.0249,-2.0115,-2.0017,-1.9939,-3.119,-3.119,-3.119,-3.0796,-3.0127,-3.0068,-2.9993,-2.9924,-2.9159,-2.8635,-2.8281,-2.7182,-2.6505,-2.6114,-2.5802,-2.5631,-2.5635,-2.6058,-2.6213,-2.6165,-2.6183,-2.63,-2.641,-2.5117,-2.4625,-2.4777,-2.3868,-2.344,-2.3476,-2.344,-2.322,-2.2832,-2.2431,-2.2225,-2.2247,-2.2178,-2.1999,-2.1679,-2.1815,-2.1246,-2.0005,-1.9528,-1.9279,-1.9279,-1.8519,-1.8096,-1.8096,-1.7337,-1.7275,-1.8016,-1.6988,-1.6738,-1.7477,-1.6116,-1.4716,0.0,0.0,0.0,0.0,0.0,0.0,0.0,0.0,0.0,0.0,0.0,-1.6311,-1.751,-1.8453,-1.9322,-2.0035,-2.0111,-2.028,-2.0692,-2.032,-2.0244,-2.0784,-2.1299,-2.1639,-2.1724,-2.2537,-2.375,-2.5449,-2.5703,-2.5703,-2.5703,-2.5703,-2.5703,-2.5703,-2.5703,-2.5703,-2.5703,-2.5703,-2.5703,-2.5703,-2.5703,-2.5703,-2.5703,-2.5698,-2.5687,-2.5706,-2.5595,-2.4802,-2.3,-2.2697,-2.2254,-2.0754,-2.1658,-2.2427,-2.1677,-2.0788,-2.0315,-2.0186,-2.0139,-2.0074,-3.119,-3.119,-3.119,-3.119,-3.119,-3.119,-3.119,-3.114,-3.0328,-2.9482,-2.862,-2.73,-2.6708,-2.6708,-2.6708,-2.6708,-2.6708,-2.6708,-2.6708,-2.6657,-2.6048,-2.5758,-2.5763,-2.4597,-2.4052,-2.4051,-2.3462,-2.323,-2.3248,-2.323,-2.3195,-2.3177,-2.2499,-2.2517,-2.3147,-2.278,-2.2144,-2.1343,-2.0649,-2.001,-1.9315,-1.9279,-1.9279,-1.926,-1.8427,-1.7942,-1.7924,-1.7073,-1.7018,-1.7832,-1.6518,-1.6114,-1.6945,-1.5606,-1.4479,0.0,-1.3742,0.0,0.0,0.0,0.0,0.0,0.0,0.0,0.0,-1.6923,-1.76,-1.9049,-1.9242,-1.9912,-2.135,-2.16,-2.1966,-2.2701,-2.2797,-2.2831,-2.2893,-2.3046,-2.3132,-2.3114,-2.3296,-2.4043,-2.5469,-2.5703,-2.5703,-2.5703,-2.5703,-2.5703,-2.5703,-2.5703,-2.5703,-2.5703,-2.5703,-2.5703,-2.5703,-2.5703,-2.5703,-2.5703,-2.5698,-2.5688,-2.5687,-2.5576,-2.5418,-2.51,-2.4058,-2.2581,-2.0692,-2.1812,-2.3028,-2.2716,-2.1408,-2.0346,-2.03,-2.0237,-2.0201,-3.119,-3.119,-3.119,-3.119,-3.119,-3.119,-3.119,-3.1106,-2.977,-2.8434,-2.7114,-2.6826,-2.6708,-2.6708,-2.6708,-2.6708,-2.6708,-2.6708,-2.6708,-2.6708,-2.6556,-2.6266,-2.5864,-2.5119,-2.4489,-2.3935,-2.3377,-2.3084,-2.307,-2.3114,-2.3145,-2.3194,-2.31,-2.3141,-2.323,0.0,0.0,0.0,-1.9718,-1.9352,-1.9315,-1.9279,-1.9279,-1.926,-1.7887,0.0,-1.7092,-1.5716,-1.5625,-1.7007,-1.62,0.0,0.0,0.0,0.0,0.0,0.0,0.0,0.0,0.0,0.0,0.0,-1.7766,-1.7902,-1.8425,-1.9135,-1.9715,-2.0038,-2.0658,-2.1158,-2.1466,-2.2158,-2.2624,-2.2778,-2.2797,-2.2827,-2.2913,-2.3547,-2.3757,-2.3192,-2.4332,-2.5312,-2.5605,-2.5703,-2.5703,-2.5703,-2.5703,-2.5703,-2.5703,-2.5703,-2.5703,-2.5703,-2.5703,-2.5703,-2.5703,-2.5703,-2.5703,-2.5703,-2.5698,-2.5689,-2.5684,-2.5595,-2.546,-2.5322,-2.5058,-2.3788,-2.1019,-2.2731,-2.4308,-2.3062,-2.1446,-2.0288,-2.0288,-2.0257,-2.0207,-3.119,-3.119,-3.119,-3.119,0.0,-3.119,-3.119,-3.1123,-3.0006,-2.8687,-2.7215,-2.686,-2.6708,-2.6708,-2.6708,-2.6708,-2.6708,-2.6708,-2.6708,-2.6674,-2.6319,-2.5859,-2.5285,-2.4721,-2.4074,-2.3357,-2.3058,-2.2892,-2.2889,-2.2892,-2.2968,-2.3096,-2.32,-2.3259,-2.3224,-2.2183,-2.1164,-2.021,-1.951,-1.9188,-1.9289,-1.9279,-1.9279,-1.926,-1.8126,0.0,0.0,0.0,0.0,0.0,0.0,0.0,0.0,0.0,0.0,-1.6392,-1.6075,-1.6081,-1.6565,-1.6969,-1.7547,-1.8389,-1.9313,-1.9727,-1.9522,-1.9987,-2.0462,-2.0846,-2.1273,-2.185,-2.2701,-2.3201,-2.3605,-2.3966,-2.4024,-2.4047,-2.4168,-2.4534,-2.4685,-2.447,-2.5144,-2.5703,-2.5703,-2.5703,-2.5703,-2.5703,-2.5703,-2.5703,-2.5703,-2.5703,-2.5703,-2.5703,-2.5703,-2.5703,-2.5703,-2.5703,-2.5703,-2.5703,-2.5699,-2.5691,-2.5688,-2.5576,-2.5456,-2.5346,-2.5308,-2.4615,-2.3419,-2.4226,-2.4788,-2.312,-2.1446,-2.0346,-2.0288,-2.0285,-2.0261,-3.119,-3.119,-3.119,-3.1106,-3.1021,-3.114,-3.1075,-3.0768,0.0,0.0,0.0,-2.6962,-2.6708,-2.6708,-2.6708,-2.6708,-2.6708,-2.6708,-2.6708,-2.6674,-2.6082,-2.5402,-2.4675,-2.4259,-2.3598,-2.2768,-2.2708,-2.2708,-2.2764,-2.2734,-2.2807,-2.301,-2.3141,-2.3088,-2.2774,-2.1569,-2.0627,-2.0002,-1.9454,-1.9232,-1.9297,-1.9279,-1.9279,-1.9279,-1.8519,-1.8096,-1.8096,-1.7337,-1.7257,-1.8016,-1.733,-1.7257,-1.8023,-1.739,-1.7055,-1.7186,-1.7256,-1.7355,-1.756,-1.8186,-1.8627,-1.8795,-2.0327,-2.0994,-2.0365,-2.0561,-2.1011,-2.1673,-2.1865,-2.2562,-2.3956,-2.424,-2.4567,-2.5231,-2.5308,-2.5308,-2.5382,-2.5394,-2.5385,-2.556,-2.56,-2.5698,-2.5703,-2.5703,-2.5703,-2.5703,-2.5703,-2.5703,-2.5703,-2.5703,-2.5703,-2.5703,-2.5703,-2.5703,-2.5703,-2.5703,-2.5703,-2.5703,-2.57,-2.5694,-2.5684,-2.5607,-2.5462,-2.5369,-2.5322,-2.525,-2.5269,-2.5212,-2.4577,-2.2735,-2.1273,-2.0288,-2.0288,-2.0288,-2.0288,-3.119,-3.119,-3.119,-3.0835,-3.0311,-3.0937,-3.0482,-2.9314,-2.9196,-2.8282,-2.686,-2.6742,-2.6708,-2.6708,-2.6708,-2.6708,-2.6708,-2.6708,-2.6708,-2.6708,-2.6573,-2.5861,-2.465,-2.4643,-2.393,-2.2624,-2.2575,-2.2632,-2.2632,-2.2734,-2.2863,-2.3003,-2.3187,-2.265,-2.1444,-2.0691,-1.9966,-1.9264,-1.9162,-1.918,-1.9289,-1.9279,-1.9279,-1.926,-1.8537,-1.8096,-1.8096,-1.7355,-1.7275,-1.8034,-1.733,-1.7264,-1.8023,-1.7381,-1.7215,-1.7865,-1.796,-1.8254,-1.8949,-1.9122,-1.952,-2.0326,-2.1321,-2.1664,-2.1214,-2.19,-2.2441,-2.2627,-2.3245,-2.3802,-2.4125,-2.4716,-2.5135,-2.5269,-2.5308,-2.5322,-2.5379,-2.54,-2.539,-2.5422,-2.5523,-2.5639,-2.5677,-2.5703,-2.5703,-2.5703,-2.5703,-2.5703,-2.5703,-2.5703,-2.5703,-2.5703,-2.5703,-2.5703,-2.5703,-2.5703,-2.5703,-2.5703,-2.5703,-2.5699,-2.5699,-2.5644,-2.5557,-2.5496,-2.5281,-2.5221,-2.5269,-2.5308,-2.3962,-2.1543,-2.0462,-2.0288,-2.0288,-2.0288,-2.0288,-3.119,-3.119,-3.119,-3.0768,-3.0091,-3.004,-2.9364,-2.8383,-2.8349,-2.774,-2.6759,-2.6708,-2.6708,-2.6708,-2.6708,-2.6708,-2.6708,-2.6708,-2.6708,-2.6708,-2.6708,-2.5946,-2.4623,-2.463,-2.3845,-2.2442,-2.2419,-2.2474,-2.2538,-2.269,-2.2841,-2.2963,-2.2835,-2.2043,-2.0692,-2.0373,-1.989,-1.924,-1.9206,-1.9238,-1.9297,-1.9279,-1.9279,-1.9279,-1.8941,-1.8757,-1.8739,-1.839,-1.8364,-1.8746,-1.8416,-1.8372,-1.872,-1.8408,-1.8372,-1.8728,-1.8757,-1.8911,-1.926,-1.9711,-2.0341,-2.1224,-2.2126,-2.2599,-2.2456,-2.2534,-2.2832,-2.3342,-2.3842,-2.4279,-2.4697,-2.5096,-2.5308,-2.5308,-2.5308,-2.5313,-2.5332,-2.5346,-2.5336,-2.5336,-2.5426,-2.5546,-2.5689,-2.5696,-2.5703,-2.5703,-2.5703,-2.5703,-2.5703,-2.5703,-2.5703,-2.5703,-2.5703,-2.5703,-2.5703,-2.5703,-2.5703,-2.5703,-2.5703,-2.5702,-2.5702,-2.565,-2.5637,-2.5507,-2.4805,-2.4463,-2.4976,-2.4505,-2.2928,-2.1154,-2.0288,-2.0288,-2.0288,-2.0288,-2.0288,-3.119,-3.119,-3.119,-3.0768,-3.0004,-2.911,-2.8366,-2.7824,-2.7824,-2.7367,-2.6742,-2.6708,-2.6708,-2.6708,-2.6708,-2.6708,-2.6708,-2.6708,-2.6708,-2.6708,-2.6708,-2.5912,-2.4609,-2.4508,-2.3746,-2.2448,-2.2313,-2.2349,-2.2487,-2.2603,-2.2694,-2.2665,-2.221,-2.1343,-2.0173,-2.0011,-1.9725,-1.929,-1.9259,-1.9256,-1.9297,-1.9279,-1.9279,-1.9279,-1.9279,-1.9279,-1.9279,-1.9279,-1.9279,-1.9279,-1.9279,-1.9279,-1.9279,-1.9279,-1.9279,-1.9279,-1.9279,-1.9389,-1.962,-2.0511,-2.1353,-2.2021,-2.2909,-2.3491,-2.3576,-2.3243,-2.3307,-2.4031,-2.4303,-2.4659,-2.5135,-2.5288,-2.5308,-2.5308,-2.5308,-2.5308,-2.5308,-2.5308,-2.5308,-2.5293,-2.5346,-2.5445,-2.5574,-2.5641,-2.5674,-2.5701,-2.5703,-2.5703,-2.5703,-2.5703,-2.5703,-2.5703,-2.5703,-2.5703,-2.5703,-2.5703,-2.5703,-2.5703,-2.5703,-2.5703,-2.5703,-2.5702,-2.5695,-2.5522,-2.4209,-2.3382,-2.3944,-2.3598,-2.2245,-2.0758,-2.03,-2.0288,-2.0288,-2.0288,-2.0288,-3.119,-3.119,-3.119,-3.0768,-2.9956,-2.8517,-2.7858,-2.779,-2.7807,-2.7402,-2.6725,-2.6708,-2.6708,-2.6708,-2.6708,-2.6708,-2.6708,-2.6708,-2.6708,-2.6708,-2.6708,-2.5912,-2.4575,-2.4508,-2.3746,-2.2448,-2.2313,-2.2352,-2.2422,-2.2538,-2.2345,-2.1894,-2.126,-2.0594,-1.9909,-1.9281,-1.9003,-1.912,-1.9112,-1.9176,-1.9289,-1.9279,-1.9279,-1.9279,-1.9297,-1.9279,-1.9279,-1.9279,-1.9279,-1.9279,-1.9279,-1.9279,-1.9279,-1.9279,-1.9279,-1.9279,-1.9297,-1.9601,-2.0401,-2.1868,-2.2749,-2.2923,-2.3603,-2.4128,-2.4276,-2.4335,-2.4537,-2.4884,-2.5074,-2.5173,-2.5308,-2.5308,-2.5308,-2.5308,-2.5308,-2.5308,-2.5308,-2.5308,-2.5308,-2.5308,-2.5317,-2.5308,-2.538,-2.5508,-2.5646,-2.5685,-2.5692,-2.5679,-2.5703,-2.5703,-2.5703,-2.5703,-2.5703,-2.5703,-2.5703,-2.5703,-2.5703,-2.5703,-2.5703,-2.5703,-2.5703,-2.5703,-2.5702,-2.5533,-2.407,-2.2625,-2.1911,-2.1768,-2.2221,-2.0852,-2.0318,-2.0292,-2.0288,-2.0288,-2.0288,-3.119,-3.119,-3.119,-3.0514,-2.9314,-2.7807,-2.7148,-2.7148,-2.7148,-2.6979,-2.6725,-2.6708,-2.6708,-2.6708,-2.6708,-2.6708,-2.6708,-2.6708,-2.6708,-2.6708,-2.6691,-2.5929,-2.4609,-2.4508,-2.3714,-2.2398,-2.2313,-2.231,-2.2352,-2.2377,-2.186,-2.0852,-2.0537,-1.9928,-1.8953,-1.8667,-1.865,-1.8798,-1.8798,-1.8843,-1.8895,-1.9073,-1.9214,-1.9248,-1.928,-1.9292,-1.9297,-1.9279,-1.9279,-1.9279,-1.9279,-1.9279,-1.9279,-1.9279,-1.9279,-1.9315,-1.9748,-2.0603,-2.1905,-2.2621,-2.3208,-2.3666,-2.3988,-2.4257,-2.4389,-2.4564,-2.4771,-2.5,-2.5206,-2.5308,-2.5308,-2.5308,-2.5308,-2.5308,-2.5308,-2.5308,-2.5308,-2.5308,-2.5308,-2.5308,-2.5308,-2.5308,-2.5313,-2.5449,-2.5563,-2.5582,-2.5621,-2.5641,-2.568,-2.57,-2.5701,-2.5703,-2.5703,-2.5703,-2.5703,-2.5703,-2.5703,-2.5703,-2.5703,-2.5703,-2.5644,-2.5684,-2.5703,-2.5644,-2.3418,-2.1699,-2.0881,-2.0885,-2.1172,-2.0432,-2.0324,-2.0288,-2.0292,-2.0296,-2.0292,-3.119,-3.1123,-3.0768,-2.9991,-2.8874,-2.7351,-2.6708,-2.6708,-2.6708,-2.6708,-2.6708,-2.6708,-2.6708,-2.6708,-2.6708,-2.6708,-2.6708,-2.6708,-2.6708,-2.6708,-2.6708,-2.6031,-2.4897,-2.4812,-2.4019,-2.2801,-2.2615,-2.2499,-2.2347,-2.2313,-2.162,-2.0517,-2.042,-1.9822,-1.8635,-1.8586,-1.8598,-1.8526,-1.8518,-1.8518,-1.8556,-1.878,-1.9008,-1.9135,-1.92,-1.9272,-1.9297,-1.9279,-1.9279,-1.9279,-1.9279,-1.9279,-1.9279,-1.9279,-1.9407,-1.9683,-2.0391,-2.1483,-2.2914,-2.3217,-2.3584,-2.4116,-2.4199,-2.4257,-2.4408,-2.4604,-2.478,-2.4994,-2.5171,-2.5308,-2.5308,-2.5308,-2.5308,-2.5308,-2.5308,-2.5308,-2.5308,-2.5308,-2.5308,-2.5308,-2.5308,-2.5308,-2.5303,-2.5385,-2.5459,-2.5496,-2.5549,-2.56,-2.5661,-2.5687,-2.5694,-2.5703,-2.5703,-2.5703,-2.5703,-2.5703,-2.5703,-2.5703,-2.5684,-2.5566,-2.5449,-2.5391,-2.4687,-2.375,-2.1777,-2.084,-2.0664,-2.0614,-2.0594,-2.0511,-2.0438,-2.0353,-2.029,-2.03,-2.0292,-3.119,-3.0987,-2.9704,-2.9145,-2.8874,-2.7385,-2.6708,-2.6708,-2.6708,-2.6708,-2.6708,-2.6708,-2.6708,-2.6708,-2.6708,-2.6708,-2.6708,-2.6708,-2.6708,-2.6708,-2.6708,-2.6285,-2.5609,-2.5541,-2.4763,-2.3441,-2.3257,-2.2936,-2.2347,-2.2296,-2.1921,-2.1173,-2.1094,-2.0458,-1.9327,-1.9207,-1.8938,-1.8436,-1.8377,-1.8328,-1.8303,-1.8448,-1.8687,-1.8958,-1.9084,-1.9164,-1.9274,-1.9279,-1.9279,-1.9279,-1.9279,-1.9279,-1.9279,-1.9315,-1.9675,-2.0419,-2.1253,-2.2125,-2.2997,-2.3685,-2.4126,-2.4171,-2.4199,-2.4257,-2.4381,-2.4578,-2.4773,-2.4968,-2.5185,-2.5284,-2.5303,-2.5308,-2.5308,-2.5308,-2.5308,-2.5308,-2.5308,-2.5308,-2.5308,-2.5308,-2.5308,-2.5308,-2.5308,-2.5308,-2.5376,-2.5452,-2.5505,-2.5518,-2.5571,-2.5648,-2.5684,-2.5702,-2.5703,-2.5703,-2.5703,-2.5703,-2.5703,-2.5644,-2.5527,-2.5312,-2.498,-2.4473,-2.332,-2.2227,-2.123,-2.0664,-2.0625,-2.0584,-2.0574,-2.0563,-2.057,-2.0487,-2.0643,-2.0392,-2.03,-3.119,-3.1106,-3.0125,-2.9431,-2.8891,-2.7858,-2.7131,-2.6708,-2.6708,-2.6708,-2.6708,-2.6708,-2.6708,-2.6708,-2.6708,-2.6708,-2.6708,-2.6708,-2.6708,-2.6708,-2.6708,-2.6302,-2.5643,-2.5609,-2.5101,-2.4186,-2.363,-2.3021,-2.2381,-2.2313,-2.1921,-2.1326,-2.1204,-2.0671,-1.9881,-1.9736,-1.9393,-1.8768,-1.8682,-1.846,-1.8055,-1.8117,-1.8294,-1.8506,-1.8816,-1.9049,-1.9222,-1.9272,-1.9285,-1.9297,-1.9279,-1.9279,-1.9334,-1.9785,-2.0437,-2.129,-2.2097,-2.2923,-2.3657,-2.4043,-2.4199,-2.4199,-2.4199,-2.4238,-2.4401,-2.4567,-2.4768,-2.4935,-2.514,-2.5238,-2.5283,-2.5298,-2.5308,-2.5308,-2.5308,-2.5308,-2.5308,-2.5308,-2.5308,-2.5308,-2.5308,-2.5308,-2.5308,-2.5308,-2.5313,-2.5363,-2.539,-2.5449,-2.5478,-2.5513,-2.5595,-2.5677,-2.5703,-2.5703,-2.5703,-2.5703,-2.5664,-2.5488,-2.5293,-2.4766,-2.4336,-2.3926,-2.2949,-2.1641,-2.0703,-2.0762,-2.082,-2.0879,-2.082,-2.0865,-2.0857,-2.1007,-2.119,-2.099,-2.0627,-3.119,-3.1089,-3.0412,-2.982,-2.9228,-2.8246,-2.7519,-2.7029,-2.681,-2.6708,-2.6708,-2.6708,-2.6708,-2.6708,-2.6708,-2.6708,-2.6708,-2.6708,-2.6708,-2.6708,-2.6708,-2.642,-2.6031,-2.5964,-2.5558,-2.478,-2.3833,-2.3021,-2.2381,-2.2313,-2.2057,-2.1583,-2.1563,-2.116,-2.0504,-2.0382,-2.001,-1.9384,-1.9029,-1.8652,-1.8183,-1.803,-1.8031,-1.8205,-1.8537,-1.8869,-1.9137,-1.9192,-1.9264,-1.9289,-1.9279,-1.9426,-1.9711,-2.0199,-2.1006,-2.2079,-2.2676,-2.3354,-2.4061,-2.4199,-2.4199,-2.4199,-2.4199,-2.4247,-2.4358,-2.453,-2.4696,-2.4847,-2.5018,-2.5165,-2.5247,-2.5278,-2.5308,-2.5308,-2.5308,-2.5308,-2.5308,-2.5308,-2.5308,-2.5308,-2.5308,-2.5308,-2.5308,-2.5308,-2.5288,-2.5308,-2.5351,-2.5393,-2.5387,-2.5436,-2.5544,-2.5636,-2.5696,-2.5703,-2.5703,-2.5703,-2.5332,-2.5137,-2.498,-2.4394,-2.375,-2.3301,-2.25,-2.1172,-2.0781,-2.0957,-2.1074,-2.1172,-2.125,-2.1348,-2.1405,-2.1554,-2.1631,-2.1655,-2.1551,-3.119,-3.1106,-3.041,-3.0125,-2.9837,-2.8584,-2.7874,-2.7621,-2.7046,-2.6776,-2.6708,-2.6708,-2.6708,-2.6708,-2.6708,-2.6708,-2.6708,-2.6708,-2.6708,-2.6708,-2.6708,-2.6691,-2.6607,-2.659,-2.6201,-2.5456,-2.412,-2.3071,-2.2431,-2.2347,-2.2245,-2.2262,-2.2195,-2.1837,-2.1207,-2.1173,-2.0788,-2.0065,-1.9435,-1.9029,-1.8821,-1.8387,-1.8154,-1.8177,-1.8333,-1.8588,-1.8958,-1.9051,-1.9148,-1.9266,-1.9289,-1.9675,-2.0291,-2.0566,-2.1263,-2.2621,-2.3006,-2.3428,-2.4061,-2.4199,-2.4199,-2.4199,-2.4199,-2.4237,-2.4312,-2.4436,-2.4578,-2.4723,-2.4966,-2.5137,-2.5206,-2.5334,-2.538,-2.5308,-2.5308,-2.5308,-2.5308,-2.5308,-2.5308,-2.5308,-2.5308,-2.5308,-2.5308,-2.5308,-2.5308,-2.5313,-2.5351,-2.5365,-2.5337,-2.5398,-2.5518,-2.5586,-2.566,-2.5689,-2.5698,-2.5644,-2.5137,-2.4707,-2.457,-2.4199,-2.3457,-2.2891,-2.2031,-2.0957,-2.1992,-2.2187,-2.2168,-2.2246,-2.2363,-2.2422,-2.2324,-2.233,-2.2596,-2.2799,-2.2956,-3.119,-3.1173,-3.0954,-3.0565,-3.0072,-2.9565,-2.8821,-2.7841,-2.7554,-2.7164,-2.6759,-2.6708,-2.6708,-2.6708,-2.6708,-2.6708,-2.6708,-2.6708,-2.6708,-2.6708,-2.6708,-2.6708,-2.6708,-2.6708,-2.6319,-2.5558,-2.4628,-2.378,-2.3071,-2.2533,-2.2313,-2.2313,-2.2313,-2.2209,-2.1955,-2.1938,-2.1583,-2.0906,-2.0615,-2.0242,-1.9727,-1.9447,-1.9127,-1.8699,-1.8773,-1.8758,-1.8485,-1.8735,-1.8973,-1.9162,-1.9174,-1.9553,-2.0396,-2.1071,-2.1896,-2.2878,-2.3547,-2.3896,-2.4135,-2.4199,-2.4199,-2.4199,-2.4199,-2.42,-2.4238,-2.4367,-2.4498,-2.4703,-2.5276,-2.562,-2.5291,-2.5729,-2.5852,-2.5356,-2.5308,-2.5308,-2.5308,-2.5308,-2.5308,-2.5308,-2.5308,-2.5308,-2.5308,-2.5308,-2.5308,-2.5308,-2.5317,-2.5317,-2.5327,-2.5355,-2.5404,-2.5472,-2.5568,-2.5663,-2.5664,-2.5625,-2.5312,-2.4844,-2.4551,-2.4297,-2.3496,-2.2656,-2.1719,-2.1914,-2.291,-2.3223,-2.3203,-2.3359,-2.3496,-2.3457,-2.334,-2.3554,-2.3918,-2.4088,-2.4157,-3.119,-3.119,-3.119,-3.0937,-3.048,-3.0224,-2.9565,-2.8618,-2.8043,-2.7536,-2.7131,-2.681,-2.6708,-2.6708,-2.6708,-2.6708,-2.6708,-2.6708,-2.6708,-2.6708,-2.6708,-2.6708,-2.6708,-2.6708,-2.6319,-2.5575,-2.4846,-2.4118,-2.3393,-2.2668,-2.2313,-2.2313,-2.2313,-2.2296,-2.2313,-2.2296,-2.204,-2.1617,-2.1326,-2.0953,-2.05,-2.0137,-1.9778,-1.9396,-1.9413,-1.9167,-1.8653,-1.8848,-1.8962,-1.9004,-1.9261,-2.0062,-2.1187,-2.1943,-2.2611,-2.3364,-2.3878,-2.4199,-2.4199,-2.4199,-2.4199,-2.4199,-2.4199,-2.4209,-2.4219,-2.4284,-2.4441,-2.4963,-2.5514,-2.5929,-2.5923,-2.6047,-2.6157,-2.5784,-2.5461,-2.5322,-2.5308,-2.5308,-2.5308,-2.5308,-2.5308,-2.5308,-2.5308,-2.5308,-2.5308,-2.5308,-2.5308,-2.5308,-2.5308,-2.5308,-2.5337,-2.5369,-2.5434,-2.5515,-2.5595,-2.5547,-2.5469,-2.5078,-2.4687,-2.4394,-2.3867,-2.3027,-2.2168,-2.3359,-2.4414,-2.3809,-2.3711,-2.4355,-2.4648,-2.4512,-2.4297,-2.4406,-2.4607,-2.5042,-2.5152,-3.1151,-3.1151,-3.1151,-3.1114,-3.0996,-3.0458,-3.0019,-2.97,-2.8534,-2.7824,-2.7519,-2.6945,-2.6708,-2.6708,-2.6708,-2.6708,-2.6708,-2.6708,-2.6708,-2.6708,-2.6708,-2.6708,-2.6708,-2.6708,-2.637,-2.5727,-2.4914,-2.4169,-2.3562,-2.2719,-2.2313,-2.2313,-2.2313,-2.2313,-2.2313,-2.2313,-2.2279,-2.2127,-2.1617,-2.1309,-2.1241,-2.0623,-2.0154,-2.0099,-2.0128,-1.9875,-1.9338,-1.9304,-1.9156,-1.8884,-1.9694,-2.0896,-2.2296,-2.2867,-2.3263,-2.3987,-2.4171,-2.4199,-2.4199,-2.4199,-2.4199,-2.4199,-2.4199,-2.4199,-2.4209,-2.4237,-2.4477,-2.5106,-2.5625,-2.6103,-2.6532,-2.6631,-2.6327,-2.6203,-2.5622,-2.5322,-2.5308,-2.5308,-2.5308,-2.5308,-2.5308,-2.5308,-2.5308,-2.5308,-2.5308,-2.5308,-2.5308,-2.5308,-2.5308,-2.5308,-2.5308,-2.5317,-2.5359,-2.5441,-2.5542,-2.5625,-2.5566,-2.541,-2.5059,-2.4805,-2.4531,-2.3789,-2.3398,-2.459,-2.5156,-2.4551,-2.4434,-2.5019,-2.5352,-2.5254,-2.5137,-2.5098,-2.5226,-2.5527,-2.5611,-3.0692,-3.0675,-3.0692,-3.0733,-3.0818,-3.0697,-3.007,-2.9201,-2.8872,-2.8027,-2.7165,-2.6793,-2.6708,-2.6708,-2.6708,-2.6708,-2.6708,-2.6708,-2.6708,-2.6708,-2.6708,-2.6708,-2.6708,-2.6708,-2.6607,-2.6218,-2.51,-2.4404,-2.4118,-2.2902,-2.233,-2.2313,-2.2313,-2.2313,-2.2313,-2.2313,-2.2313,-2.2279,-2.2144,-2.1989,-2.1955,-2.1789,-2.1431,-2.0906,-2.0899,-2.0552,-1.9874,-1.9813,-1.9682,-1.9433,-2.0274,-2.1302,-2.2461,-2.2796,-2.3278,-2.3948,-2.417,-2.4199,-2.4199,-2.4199,-2.4199,-2.4199,-2.4199,-2.4199,-2.4199,-2.4199,-2.4329,-2.4763,-2.5616,-2.6144,-2.5724,-2.6313,-2.6455,-2.566,-2.5378,-2.5303,-2.5308,-2.5308,-2.5308,-2.5308,-2.5308,-2.5308,-2.5308,-2.5308,-2.5308,-2.5308,-2.5308,-2.5308,-2.5308,-2.5308,-2.5308,-2.5308,-2.5327,-2.5414,-2.5495,-2.5621,-2.5684,-2.5664,-2.5527,-2.5449,-2.5293,-2.5039,-2.5019,-2.5566,-2.5488,-2.5039,-2.5156,-2.5547,-2.5684,-2.5703,-2.5605,-2.541,-2.5469,-2.5686,-2.5611,-3.0032,-3.0032,-3.0032,-3.0156,-3.0342,-3.0551,-3.0066,-2.9252,-2.9003,-2.8333,-2.7283,-2.681,-2.6708,-2.6708,-2.6708,-2.6708,-2.6708,-2.6708,-2.6708,-2.6708,-2.6708,-2.6708,-2.6708,-2.6708,-2.6708,-2.6539,-2.5202,-2.4575,-2.422,-2.3021,-2.2381,-2.2313,-2.2313,-2.2313,-2.2313,-2.2313,-2.2313,-2.2296,-2.2313,-2.2313,-2.2313,-2.2313,-2.211,-2.1718,-2.1651,-2.1295,-2.0636,-2.0517,-2.0457,-2.0495,-2.0951,-2.1706,-2.2663,-2.305,-2.3442,-2.4006,-2.4132,-2.4199,-2.4199,-2.4199,-2.4199,-2.4199,-2.4199,-2.4199,-2.4199,-2.4218,-2.4246,-2.4844,-2.5704,-2.5875,-2.5837,-2.6335,-2.6176,-2.5378,-2.5192,-2.5268,-2.5298,-2.5308,-2.5308,-2.5308,-2.5308,-2.5308,-2.5308,-2.5308,-2.5308,-2.5308,-2.5308,-2.5308,-2.5308,-2.5308,-2.5308,-2.5308,-2.5317,-2.5376,-2.5479,-2.5618,-2.5701,-2.5703,-2.5703,-2.5703,-2.5703,-2.5703,-2.5684,-2.5684,-2.5684,-2.5703,-2.5703,-2.5703,-2.5703,-2.5703,-2.5703,-2.5703,-2.5703,-2.5696,-2.5626,-2.9316,-2.9332,-2.9332,-2.9473,-2.9755,-2.9999,-2.9741,-2.9334,-2.8871,-2.8277,-2.7501,-2.6894,-2.6657,-2.6708,-2.6674,-2.6708,-2.6708,-2.6708,-2.6708,-2.6708,-2.6708,-2.6708,-2.6708,-2.6708,-2.6607,-2.6319,-2.5134,-2.4508,-2.4,-2.2902,-2.2364,-2.2313,-2.2313,-2.2313,-2.2313,-2.2313,-2.2313,-2.2313,-2.2313,-2.2313,-2.2313,-2.2313,-2.2245,-2.2212,-2.2161,-2.1921,-2.1478,-2.1322,-2.1338,-2.1473,-2.163,-2.2195,-2.3081,-2.3484,-2.3724,-2.3888,-2.4084,-2.4199,-2.4199,-2.4199,-2.4199,-2.4218,-2.4309,-2.4328,-2.441,-2.4502,-2.4824,-2.5476,-2.5476,-2.5988,-2.6652,-2.6513,-2.6091,-2.5653,-2.5531,-2.5497,-2.5412,-2.536,-2.5308,-2.5308,-2.5308,-2.5308,-2.5308,-2.5308,-2.5308,-2.5308,-2.5308,-2.5308,-2.5308,-2.5308,-2.5308,-2.5308,-2.5327,-2.5351,-2.5485,-2.5607,-2.5665,-2.5703,-2.5703,-2.5703,-2.5703,-2.5703,-2.5703,-2.5703,-2.5703,-2.5703,-2.5703,-2.5703,-2.5664,-2.5703,-2.5703,-2.5703,-2.5701,-2.5701,-2.5651,-2.885,-2.8834,-2.885,-2.9012,-2.92,-2.9043,-2.8668,-2.815,-2.781,-2.7313,-2.67,-2.6502,-2.6521,-2.6623,-2.6674,-2.6708,-2.6708,-2.6708,-2.6708,-2.6708,-2.6708,-2.6708,-2.6708,-2.6708,-2.6387,-2.5812,-2.4965,-2.422,-2.356,-2.2868,-2.2313,-2.2313,-2.2313,-2.2313,-2.2313,-2.2313,-2.2313,-2.2313,-2.2313,-2.2313,-2.2313,-2.2313,-2.2313,-2.2313,-2.2313,-2.2245,-2.2124,-2.2073,-2.207,-2.2122,-2.2264,-2.2522,-2.297,-2.3359,-2.3599,-2.3816,-2.4064,-2.4199,-2.4199,-2.4199,-2.4199,-2.4254,-2.4713,-2.5154,-2.5154,-2.5273,-2.5676,-2.6135,-2.6007,-2.6371,-2.7259,-2.7103,-2.6718,-2.6609,-2.6728,-2.6677,-2.6268,-2.57,-2.5418,-2.5308,-2.5308,-2.5308,-2.5308,-2.5308,-2.5308,-2.5308,-2.5308,-2.5308,-2.5308,-2.5308,-2.5308,-2.5308,-2.5317,-2.5341,-2.5414,-2.5538,-2.5642,-2.5696,-2.5702,-2.5703,-2.5703,-2.5703,-2.5703,-2.5703,-2.5703,-2.5664,-2.5527,-2.5547,-2.5488,-2.5586,-2.5703,-2.5703,-2.5703,-2.5703,-2.5702,-2.8198,-2.8143,-2.7861,-2.7866,-2.8054,-2.7775,-2.7339,-2.6924,-2.6877,-2.6484,-2.6058,-2.612,-2.6296,-2.6469,-2.6624,-2.6708,-2.6708,-2.6708,-2.6708,-2.6708,-2.6708,-2.6708,-2.6708,-2.664,-2.6319,-2.5575,-2.4846,-2.4118,-2.3376,-2.2702,-2.2313,-2.2313,-2.2313,-2.2313,-2.2313,-2.2313,-2.2313,-2.2313,-2.2313,-2.2313,-2.2313,-2.2313,-2.2313,-2.2313,-2.2313,-2.2313,-2.2279,-2.2296,-2.2296,-2.2324,-2.2405,-2.2579,-2.2863,-2.3182,-2.3448,-2.3703,-2.4016,-2.418,-2.4199,-2.4199,-2.4199,-2.4236,-2.4952,-2.5274,-2.5448,-2.564,-2.6043,-2.6455,-2.6594,-2.6864,-2.7269,-2.7123,-2.6963,-2.7086,-2.7272,-2.7231,-2.6918,-2.6324,-2.5672,-2.5432,-2.5308,-2.5308,-2.5308,-2.5308,-2.5308,-2.5308,-2.5308,-2.5308,-2.5308,-2.5308,-2.5308,-2.5308,-2.5308,-2.5332,-2.5367,-2.5476,-2.5613,-2.5659,-2.5697,-2.5702,-2.5703,-2.5703,-2.5703,-2.5625,-2.5527,-2.5293,-2.5176,-2.5254,-2.541,-2.5605,-2.5703,-2.5703,-2.5703,-2.5703,-2.5703,-2.7585,-2.754,-2.6856,-2.6748,-2.6883,-2.6479,-2.6109,-2.5832,-2.5941,-2.5753,-2.5543,-2.576,-2.5995,-2.6226,-2.6487,-2.6624,-2.6624,-2.6607,-2.6572,-2.6572,-2.6572,-2.6556,-2.6573,-2.6522,-2.6101,-2.5408,-2.4797,-2.4085,-2.3207,-2.2665,-2.233,-2.2313,-2.2313,-2.2313,-2.2313,-2.2313,-2.2313,-2.2313,-2.2313,-2.2313,-2.2313,-2.2313,-2.2313,-2.2313,-2.2313,-2.2313,-2.2313,-2.2313,-2.2313,-2.2313,-2.2313,-2.2432,-2.2668,-2.3,-2.3318,-2.3584,-2.3945,-2.4123,-2.417,-2.4198,-2.4226,-2.4346,-2.5154,-2.5668,-2.5888,-2.6355,-2.6785,-2.7097,-2.7409,-2.7537,-2.7053,-2.7277,-2.7317,-2.7372,-2.7502,-2.7576,-2.7533,-2.7141,-2.6562,-2.5471,-2.5308,-2.5308,-2.5308,-2.5308,-2.5308,-2.5308,-2.5308,-2.5308,-2.5308,-2.5308,-2.5308,-2.5308,-2.5308,-2.5308,-2.5336,-2.5397,-2.5532,-2.5629,-2.5664,-2.5699,-2.5684,-2.5703,-2.5644,-2.541,-2.5234,-2.5078,-2.498,-2.5039,-2.5254,-2.5547,-2.5703,-2.5703,-2.5703,-2.5703,-2.5703,-2.7585,-2.754,-2.6856,-2.6684,-2.6656,-2.5749,-2.5336,-2.5333,-2.5015,-2.4945,-2.5036,-2.5329,-2.5575,-2.5813,-2.6136,-2.6277,-2.6226,-2.6226,-2.6242,-2.6242,-2.6226,-2.6226,-2.6226,-2.6263,-2.5648,-2.4758,-2.4365,-2.3818,-2.2818,-2.233,-2.2313,-2.2313,-2.2313,-2.2313,-2.2313,-2.2313,-2.2313,-2.2313,-2.2313,-2.2313,-2.2313,-2.2313,-2.2313,-2.2313,-2.2313,-2.2313,-2.2313,-2.2313,-2.2313,-2.2313,-2.2313,-2.2411,-2.2668,-2.3001,-2.3324,-2.3502,-2.3824,-2.4044,-2.4222,-2.4244,-2.4575,-2.5144,-2.5933,-2.6686,-2.7265,-2.7897,-2.8088,-2.8326,-2.8491,-2.862,-2.862,-2.8401,-2.8629,-2.8785,-2.876,-2.8783,-2.8482,-2.8115,-2.7549,-2.6324,-2.5812,-2.5308,-2.5308,-2.5308,-2.5308,-2.5308,-2.5308,-2.5308,-2.5308,-2.5308,-2.5308,-2.5308,-2.5308,-2.5308,-2.5298,-2.5354,-2.546,-2.5573,-2.5614,-2.5673,-2.5684,-2.5684,-2.5586,-2.5449,-2.5254,-2.5098,-2.5019,-2.4961,-2.5195,-2.5566,-2.5644,-2.5703,-2.5703,-2.5703,-2.5703,-2.7585,-2.7495,-2.6497,-2.6102,-2.5963,-2.4844,-2.4358,-2.4392,-2.4173,-2.4224,-2.4477,-2.4744,-2.5005,-2.5237,-2.5538,-2.5668,-2.5687,-2.5703,-2.5703,-2.5687,-2.5687,-2.5687,-2.5705,-2.5799,-2.5072,-2.4348,-2.411,-2.3609,-2.2431,-2.2313,-2.2313,-2.2313,-2.2313,-2.2313,-2.2313,-2.2313,-2.2313,-2.2313,-2.2313,-2.2313,-2.2313,-2.2313,-2.2313,-2.2313,-2.2313,-2.2313,-2.2313,-2.2313,-2.2313,-2.2381,-2.2651,-2.2875,-2.315,-2.3509,-2.3776,-2.3549,-2.3707,-2.4122,-2.4553,-2.4744,-2.5199,-2.597,-2.6759,-2.7328,-2.786,-2.8393,-2.895,-2.8987,-2.8987,-2.8987,-2.8932,-2.904,-2.9067,-2.9104,-2.9246,-2.9218,-2.9017,-2.8764,-2.8179,-2.7425,-2.699,-2.6301,-2.5308,-2.5308,-2.5308,-2.5308,-2.5308,-2.5308,-2.5308,-2.5308,-2.5308,-2.5308,-2.5308,-2.5308,-2.5308,-2.5322,-2.54,-2.5483,-2.5566,-2.5629,-2.5684,-2.5684,-2.5703,-2.5625,-2.543,-2.5215,-2.5078,-2.5039,-2.5312,-2.5547,-2.5644,-2.5703,-2.5703,-2.5703,-2.5703,-2.7585,-2.7495,-2.6288,-2.5809,-2.5585,-2.4373,-2.3834,-2.3774,-2.3676,-2.3782,-2.3967,-2.4235,-2.4466,-2.4652,-2.4926,-2.5102,-2.5067,-2.5082,-2.5102,-2.5102,-2.5118,-2.5082,-2.5109,-2.4973,-2.458,-2.3783,-2.3572,-2.3261,-2.2507,-2.2313,-2.2313,-2.2313,-2.2313,-2.2313,-2.2313,-2.2313,-2.2313,-2.2313,-2.2313,-2.2313,-2.2313,-2.2313,-2.2313,-2.2313,-2.2313,-2.2313,-2.2313,-2.2313,-2.2448,-2.2682,-2.3038,-2.3456,-2.375,-2.4347,-2.4336,-2.3727,-2.388,-2.4491,-2.5038,-2.5444,-2.5884,-2.6681,-2.7347,-2.7735,-2.8161,-2.8627,-2.8987,-2.8987,-2.8987,-2.8987,-2.8987,-2.8987,-2.9017,-2.9021,-2.9112,-2.9206,-2.9169,-2.9139,-2.9276,-2.8691,-2.8179,-2.7165,-2.5959,-2.5308,-2.5308,-2.5308,-2.5308,-2.5308,-2.5308,-2.5308,-2.5308,-2.5308,-2.5308,-2.5308,-2.5308,-2.5308,-2.5354,-2.5441,-2.5508,-2.5556,-2.5632,-2.5703,-2.5684,-2.5684,-2.5664,-2.5469,-2.5293,-2.5176,-2.5391,-2.5566,-2.5664,-2.5703,-2.5703,-2.5703,-2.5703,-2.7585,-2.7525,-2.6782,-2.6482,-2.6243,-2.4993,-2.4485,-2.441,-2.3909,-2.3696,-2.4021,-2.4082,-2.4311,-2.4426,-2.4595,-2.4686,-2.4655,-2.4639,-2.4619,-2.4603,-2.4619,-2.4588,-2.4554,-2.4239,-2.3792,-2.3128,-2.2833,-2.2594,-2.2247,-2.2194,-2.2268,-2.2268,-2.2324,-2.2333,-2.2391,-2.2514,-2.2313,-2.2316,-2.2316,-2.2282,-2.2282,-2.2282,-2.2282,-2.2313,-2.2296,-2.2313,-2.233,-2.2398,-2.2632,-2.3173,-2.3342,-2.3763,-2.4252,-2.4454,-2.4564,-2.4686,-2.5022,-2.5483,-2.5762,-2.5967,-2.6462,-2.7174,-2.7608,-2.8024,-2.8507,-2.8792,-2.8987,-2.8987,-2.8987,-2.8987,-2.8987,-2.8987,-2.8987,-2.9028,-2.9074,-2.9127,-2.9164,-2.9204,-2.9411,-2.9578,-2.8958,-2.7625,-2.6326,-2.5767,-2.5308,-2.5308,-2.5308,-2.5308,-2.5308,-2.5308,-2.5308,-2.5308,-2.5308,-2.5308,-2.5308,-2.5308,-2.5346,-2.5417,-2.5444,-2.5508,-2.5564,-2.5632,-2.5664,-2.5664,-2.5667,-2.5684,-2.5527,-2.5488,-2.5547,-2.5586,-2.5684,-2.5703,-2.5703,-2.5703,-2.5703,-2.7585,-2.7525,-2.6881,-2.6602,-2.6422,-2.5158,-2.4829,-2.4963,-2.4455,-2.4425,-2.4777,-2.4905,-2.4813,-2.4552,-2.4587,-2.4365,-2.4112,-2.4063,-2.4042,-2.4063,-2.4048,-2.3874,-2.3534,-2.3383,-2.3025,-2.2366,-2.2054,-2.1874,-2.1753,-2.1871,-2.2005,-2.2089,-2.2423,-2.2658,-2.266,-2.3027,-2.2927,-2.2658,-2.2272,-2.2051,-2.2077,-2.212,-2.218,-2.2257,-2.2282,-2.2313,-2.2398,-2.2784,-2.3021,-2.3562,-2.4036,-2.4763,-2.5152,-2.5489,-2.5825,-2.597,-2.6245,-2.6344,-2.6249,-2.6392,-2.6972,-2.761,-2.7983,-2.8343,-2.8827,-2.8982,-2.8987,-2.8987,-2.8987,-2.9005,-2.9023,-2.8987,-2.8987,-2.9017,-2.904,-2.9044,-2.9115,-2.9225,-2.9346,-2.9561,-2.9631,-2.8369,-2.7155,-2.6384,-2.5788,-2.5405,-2.5383,-2.5365,-2.5336,-2.5308,-2.5308,-2.5308,-2.5308,-2.5308,-2.5308,-2.5308,-2.5341,-2.5378,-2.5397,-2.5437,-2.5475,-2.5518,-2.5546,-2.5568,-2.5552,-2.5605,-2.5664,-2.5684,-2.5625,-2.5664,-2.5703,-2.5703,-2.5703,-2.5703,-2.5703,-2.7585,-2.7555,-2.7061,-2.6851,-2.6761,-2.5576,-2.5382,-2.5734,-2.5128,-2.5128,-2.5412,-2.5375,-2.5016,-2.4634,-2.4395,-2.4049,-2.3631,-2.3595,-2.3595,-2.3595,-2.355,-2.3398,-2.3218,-2.301,-2.2511,-2.1476,-2.1601,-2.1375,-2.1213,-2.1407,-2.1774,-2.1881,-2.2556,-2.2834,-2.3031,-2.3243,-2.3243,-2.2883,-2.2457,-2.2307,-2.2317,-2.2239,-2.2293,-2.2343,-2.236,-2.2381,-2.2632,-2.3021,-2.3359,-2.4255,-2.4898,-2.5507,-2.5879,-2.6234,-2.6505,-2.6604,-2.6749,-2.6722,-2.664,-2.6775,-2.7282,-2.7792,-2.8281,-2.8498,-2.8833,-2.8959,-2.9177,-2.9354,-2.906,-2.9133,-2.9207,-2.9189,-2.8987,-2.8987,-2.8987,-2.8987,-2.901,-2.9134,-2.92,-2.9289,-2.9404,-2.9444,-2.8285,-2.7209,-2.6417,-2.5701,-2.5488,-2.5468,-2.5379,-2.5341,-2.5322,-2.5322,-2.5308,-2.5308,-2.5308,-2.5313,-2.5346,-2.5361,-2.5378,-2.5376,-2.5401,-2.5425,-2.5426,-2.543,-2.5459,-2.5566,-2.5664,-2.5684,-2.5703,-2.5703,-2.5703,-2.5703,-2.5703,-2.5703,-2.5703,-2.7585,-2.7585,-2.7525,-2.748,-2.7435,-2.6767,-2.6452,-2.6452,-2.5839,-2.5585,-2.5591,-2.5068,-2.4889,-2.4515,-2.4111,-2.3804,-2.3595,-2.3595,-2.3595,-2.3595,-2.358,-2.349,-2.3233,-2.2902,-2.2496,-2.1847,-2.1461,-2.0974,-2.0821,-2.1282,-2.1666,-2.2045,-2.2701,-2.2922,-2.3067,-2.3232,-2.3279,-2.3023,-2.2767,-2.2837,-2.2847,-2.2769,-2.2665,-2.2716,-2.2591,-2.2615,-2.3257,-2.3444,-2.4019,-2.5084,-2.5542,-2.5947,-2.6387,-2.659,-2.6708,-2.6758,-2.6775,-2.6739,-2.6733,-2.6985,-2.745,-2.7786,-2.8186,-2.8683,-2.9167,-2.9034,-2.9313,-2.9965,-2.9732,-2.9555,-2.9647,-2.9555,-2.9244,-2.8987,-2.8987,-2.8987,-2.8998,-2.9044,-2.9089,-2.9055,-2.9112,-2.9203,-2.9206,-2.81,-2.7121,-2.6405,-2.591,-2.5866,-2.5498,-2.5403,-2.5356,-2.5336,-2.5308,-2.5308,-2.5303,-2.5308,-2.5317,-2.5332,-2.5332,-2.5337,-2.5317,-2.5317,-2.5355,-2.5364,-2.5401,-2.5522,-2.5625,-2.5644,-2.5664,-2.5684,-2.5703,-2.5703,-2.5703,-2.5703,-2.5703,-2.7585,-2.7585,-2.7585,-2.7585,-2.7555,-2.6896,-2.6851,-2.7076,-2.6497,-2.6213,-2.6183,-2.5914,-2.5352,-2.4694,-2.438,-2.3969,-2.3655,-2.3595,-2.3595,-2.3595,-2.358,-2.3385,-2.3107,-2.2753,-2.225,-2.1476,-2.1005,-2.0573,-2.0145,-2.1176,-2.1572,-2.2052,-2.2852,-2.3252,-2.3381,-2.3327,-2.3346,-2.3221,-2.2954,-2.2825,-2.2947,-2.3016,-2.2899,-2.2717,-2.2895,-2.2942,-2.3352,-2.3849,-2.4628,-2.5423,-2.5998,-2.637,-2.6607,-2.6674,-2.6708,-2.6708,-2.6708,-2.6708,-2.6742,-2.6992,-2.7289,-2.8121,-2.8573,-2.9072,-2.9723,-3.0098,-3.041,-3.068,-3.0595,-3.0436,-3.0051,-2.9922,-2.9647,-2.9207,-2.8987,-2.8987,-2.8998,-2.9033,-2.9033,-2.9021,-2.904,-2.9067,-2.9067,-2.892,-2.7998,-2.7145,-2.6661,-2.6184,-2.5743,-2.5787,-2.5918,-2.5707,-2.5627,-2.525,-2.5206,-2.5238,-2.5298,-2.5293,-2.5293,-2.5303,-2.5308,-2.5313,-2.5327,-2.5322,-2.5322,-2.5406,-2.5489,-2.5576,-2.5625,-2.5684,-2.5703,-2.5703,-2.5703,-2.5703,-2.5703,-2.7585,-2.7585,-2.7585,-2.7585,-2.7525,-2.7106,-2.7151,-2.7465,-2.7121,-2.6752,-2.6611,-2.6378,-2.5704,-2.4799,-2.4321,-2.4066,-2.3684,-2.3595,-2.3595,-2.3595,-2.3535,-2.3325,-2.3107,-2.2868,-2.2553,-2.15,-2.1246,-2.1045,-2.0587,-2.1524,-2.1959,-2.24,-2.2985,-2.3477,-2.3579,-2.3599,-2.3583,-2.3425,-2.3179,-2.2948,-2.3191,-2.3154,-2.3291,-2.2976,-2.2996,-2.3397,-2.3803,-2.4365,-2.4966,-2.5761,-2.637,-2.6623,-2.6691,-2.6708,-2.6708,-2.6708,-2.6708,-2.6708,-2.6742,-2.708,-2.7436,-2.8177,-2.89,-2.9637,-3.0406,-3.0892,-3.0925,-3.1581,-3.1499,-3.1212,-3.0711,-3.0558,-3.0063,-2.9592,-2.9078,-2.8987,-2.8987,-2.8998,-2.8998,-2.8998,-2.9017,-2.9017,-2.9044,-2.903,-2.8557,-2.7703,-2.7123,-2.6427,-2.5629,-2.5969,-2.6891,-2.6537,-2.6079,-2.5573,-2.5074,-2.5149,-2.5228,-2.5228,-2.5233,-2.5298,-2.5308,-2.5308,-2.5308,-2.5313,-2.5313,-2.5308,-2.5357,-2.5476,-2.5576,-2.5684,-2.5684,-2.5684,-2.5703,-2.5703,-2.5703,-2.7575,-2.7585,-2.756,-2.756,-2.7534,-2.757,-2.757,-2.7585,-2.7525,-2.7121,-2.6492,-2.5959,-2.5285,-2.453,-2.3962,-2.3729,-2.3655,-2.3595,-2.3595,-2.3595,-2.3595,-2.355,-2.352,-2.334,-2.3017,-2.2763,-2.2373,-2.1954,-2.1505,-2.2134,-2.2493,-2.2733,-2.3203,-2.358,-2.3599,-2.3593,-2.3593,-2.3578,-2.3516,-2.361,-2.3682,-2.3515,-2.3552,-2.3453,-2.3254,-2.3622,-2.4398,-2.4591,-2.5209,-2.6202,-2.6489,-2.6657,-2.6691,-2.6708,-2.6708,-2.6708,-2.6708,-2.6708,-2.6759,-2.7521,-2.8049,-2.8425,-2.9159,-2.9993,-3.0355,-3.0749,-3.1361,-3.2192,-3.1989,-3.1944,-3.164,-3.1311,-3.0687,-3.0118,-2.9629,-2.9317,-2.9354,-2.9262,-2.9317,-2.906,-2.8987,-2.8998,-2.9055,-2.9023,-2.8823,-2.8278,-2.7609,-2.6809,-2.5931,-2.6348,-2.7448,-2.7662,-2.7062,-2.5842,-2.5333,-2.5182,-2.5168,-2.5174,-2.5201,-2.5253,-2.5284,-2.5308,-2.5308,-2.5308,-2.5308,-2.5308,-2.5327,-2.5369,-2.5473,-2.5574,-2.5664,-2.5684,-2.5684,-2.5703,-2.5703,-2.6982,-2.6997,-2.6997,-2.6982,-2.7049,-2.7433,-2.7585,-2.7585,-2.7525,-2.7001,-2.6063,-2.5651,-2.4941,-2.4133,-2.3752,-2.3573,-2.3588,-2.3595,-2.3595,-2.3595,-2.3595,-2.3595,-2.3595,-2.3535,-2.3302,-2.2868,-2.2643,-2.2398,-2.165,-2.2428,-2.2673,-2.2853,-2.3281,-2.355,-2.358,-2.3595,-2.3595,-2.3595,-2.3601,-2.3666,-2.3831,-2.3819,-2.3762,-2.3728,-2.3613,-2.4017,-2.4767,-2.4713,-2.5296,-2.625,-2.6435,-2.6521,-2.6607,-2.6657,-2.6708,-2.6708,-2.6708,-2.6962,-2.7452,-2.8147,-2.864,-2.9021,-2.9607,-3.0491,-3.1149,-3.1659,-3.2273,-3.2748,-3.278,-3.2742,-3.2417,-3.2216,-3.172,-3.1127,-3.0668,-3.0301,-3.0173,-2.9941,-2.9776,-2.9244,-2.8987,-2.8987,-2.9021,-2.9044,-2.8893,-2.8738,-2.8146,-2.7587,-2.6808,-2.7233,-2.81,-2.8575,-2.8212,-2.6635,-2.5637,-2.5215,-2.5032,-2.5037,-2.5121,-2.5238,-2.5264,-2.5303,-2.5308,-2.5308,-2.5308,-2.5308,-2.5322,-2.5341,-2.535,-2.5421,-2.5537,-2.5627,-2.5646,-2.5679,-2.5703,-2.6256,-2.627,-2.627,-2.6256,-2.6363,-2.6982,-2.728,-2.728,-2.7251,-2.6673,-2.578,-2.5435,-2.4731,-2.3896,-2.3503,-2.3465,-2.3501,-2.3545,-2.3588,-2.3595,-2.3595,-2.3595,-2.3595,-2.358,-2.3415,-2.3077,-2.2972,-2.2742,-2.2503,-2.2817,-2.3032,-2.3182,-2.3385,-2.355,-2.3595,-2.3595,-2.3595,-2.3595,-2.3595,-2.3616,-2.3739,-2.3797,-2.3844,-2.3782,-2.3842,-2.4156,-2.4512,-2.4814,-2.5096,-2.5799,-2.619,-2.6314,-2.6469,-2.6607,-2.6674,-2.6708,-2.6759,-2.7097,-2.7722,-2.8501,-2.8977,-2.9453,-3.0228,-3.0976,-3.1629,-3.1969,-3.2411,-3.2896,-3.3404,-3.3351,-3.3016,-3.2852,-3.2392,-3.1799,-3.1433,-3.1066,-3.0375,-3.0125,-2.9819,-2.9288,-2.9005,-2.8987,-2.8987,-2.8987,-2.8952,-2.8835,-2.8661,-2.8143,-2.7695,-2.8111,-2.8472,-2.8825,-2.8864,-2.7448,-2.6005,-2.4949,-2.4832,-2.49,-2.512,-2.5384,-2.5264,-2.5308,-2.5308,-2.5308,-2.5308,-2.5308,-2.5308,-2.5303,-2.5327,-2.5372,-2.5437,-2.5524,-2.5593,-2.5647,-2.5681,-2.537,-2.5384,-2.537,-2.5398,-2.5536,-2.6229,-2.659,-2.6657,-2.6642,-2.6295,-2.5662,-2.5026,-2.4336,-2.3743,-2.3277,-2.3186,-2.3275,-2.3385,-2.3501,-2.3588,-2.3595,-2.3595,-2.3595,-2.358,-2.3505,-2.355,-2.349,-2.334,-2.3505,-2.3415,-2.3445,-2.3505,-2.3535,-2.3595,-2.3595,-2.3595,-2.3595,-2.3595,-2.3595,-2.3595,-2.3674,-2.3638,-2.3764,-2.3752,-2.3804,-2.4064,-2.4316,-2.4516,-2.4826,-2.5292,-2.5797,-2.6049,-2.6296,-2.6539,-2.6641,-2.6708,-2.6708,-2.7165,-2.7925,-2.8756,-2.9467,-3.0042,-3.0762,-3.1289,-3.1564,-3.184,-3.2127,-3.2584,-3.3032,-3.3321,-3.3417,-3.3063,-3.2705,-3.2303,-3.1968,-3.1294,-3.0414,-2.9995,-2.9698,-2.935,-2.9074,-2.8994,-2.8987,-2.8987,-2.8964,-2.8948,-2.8857,-2.8784,-2.8452,-2.8522,-2.8806,-2.8832,-2.8699,-2.8077,-2.6794,-2.5569,-2.5342,-2.5629,-2.556,-2.571,-2.5529,-2.5298,-2.5308,-2.5308,-2.5308,-2.5308,-2.5308,-2.5308,-2.5313,-2.5345,-2.5393,-2.5452,-2.552,-2.5626,-2.5672,-2.4766,-2.4766,-2.4753,-2.4753,-2.4781,-2.5035,-2.537,-2.5742,-2.5755,-2.5419,-2.4791,-2.4609,-2.3949,-2.2982,-2.2983,-2.2935,-2.2989,-2.3127,-2.3392,-2.3486,-2.3595,-2.3595,-2.3595,-2.3595,-2.3595,-2.3595,-2.3595,-2.3595,-2.358,-2.361,-2.364,-2.358,-2.3774,-2.3729,-2.3714,-2.3625,-2.3699,-2.367,-2.3699,-2.3595,-2.3595,-2.3595,-2.3717,-2.3725,-2.3823,-2.4045,-2.4194,-2.4396,-2.4666,-2.4999,-2.5387,-2.5684,-2.6008,-2.6296,-2.6521,-2.6691,-2.6826,-2.7216,-2.84,-2.8874,-2.9517,-3.0514,-3.1094,-3.1145,-3.1329,-3.1485,-3.1714,-3.2162,-3.2553,-3.2846,-3.3217,-3.3103,-3.2994,-3.2908,-3.2538,-3.1924,-3.1048,-3.0329,-2.9961,-2.9205,-2.8935,-2.8959,-2.8952,-2.894,-2.8917,-2.8964,-2.8987,-2.8975,-2.8987,-2.8975,-2.8987,-2.8987,-2.8815,-2.8279,-2.7639,-2.6524,-2.6413,-2.6346,-2.6214,-2.5955,-2.5556,-2.5379,-2.5321,-2.5288,-2.5284,-2.5284,-2.5308,-2.5308,-2.5308,-2.5317,-2.5364,-2.5402,-2.5479,-2.5547,-2.5648,-2.3943,-2.3943,-2.393,-2.393,-2.3943,-2.3943,-2.4192,-2.4525,-2.4879,-2.4762,-2.4436,-2.4191,-2.3566,-2.284,-2.2749,-2.2698,-2.2572,-2.2912,-2.3224,-2.353,-2.364,-2.3595,-2.3595,-2.3595,-2.3595,-2.3595,-2.3595,-2.3595,-2.367,-2.3924,-2.4007,-2.4051,-2.4193,-2.4358,-2.4462,-2.4515,-2.447,-2.4253,-2.3984,-2.3699,-2.3625,-2.3625,-2.3653,-2.3717,-2.3888,-2.3952,-2.4036,-2.4183,-2.4328,-2.4558,-2.4843,-2.5176,-2.5589,-2.603,-2.647,-2.6708,-2.7114,-2.7774,-2.8739,-2.9314,-3.0091,-3.0818,-3.119,-3.119,-3.121,-3.1291,-3.1487,-3.1786,-3.2056,-3.2352,-3.2782,-3.3172,-3.3379,-3.3564,-3.3099,-3.2636,-3.1779,-3.0908,-3.003,-2.9125,-2.8876,-2.89,-2.89,-2.8846,-2.8846,-2.8858,-2.8881,-2.8905,-2.8929,-2.8964,-2.8975,-2.8987,-2.8895,-2.8631,-2.7974,-2.7482,-2.7284,-2.6998,-2.6673,-2.6327,-2.5778,-2.5346,-2.5193,-2.5208,-2.5274,-2.5279,-2.5298,-2.5308,-2.5308,-2.5317,-2.5317,-2.535,-2.5386,-2.5441,-2.5529,-2.3125,-2.3125,-2.3095,-2.3185,-2.3095,-2.3155,-2.3198,-2.3185,-2.4031,-2.4352,-2.422,-2.3809,-2.3212,-2.2578,-2.2587,-2.2586,-2.2705,-2.3008,-2.3516,-2.3693,-2.3819,-2.3789,-2.3625,-2.3595,-2.3595,-2.3595,-2.3625,-2.3684,-2.3872,-2.4156,-2.447,-2.4679,-2.5128,-2.5315,-2.5255,-2.5285,-2.5211,-2.5091,-2.4507,-2.4029,-2.3819,-2.3729,-2.3655,-2.3595,-2.3616,-2.3638,-2.3616,-2.3659,-2.3717,-2.3994,-2.4287,-2.4643,-2.5272,-2.5793,-2.6262,-2.6807,-2.728,-2.8124,-2.8952,-2.9595,-3.0292,-3.0869,-3.119,-3.119,-3.119,-3.119,-3.1351,-3.1447,-3.171,-3.1967,-3.2368,-3.2682,-3.2905,-3.3063,-3.2857,-3.2259,-3.1446,-3.0358,-2.9133,-2.8497,-2.8612,-2.8625,-2.837,-2.8304,-2.8422,-2.8551,-2.8718,-2.8755,-2.8893,-2.8952,-2.8964,-2.8975,-2.8932,-2.8803,-2.8539,-2.8103,-2.7989,-2.7719,-2.7369,-2.7261,-2.7112,-2.6196,-2.5037,-2.5086,-2.5134,-2.5238,-2.5269,-2.5259,-2.5259,-2.5308,-2.5308,-2.5303,-2.5317,-2.5367,-2.5418,-2.3095,-2.3095,-2.3095,-2.3095,-2.3095,-2.3095,-2.3095,-2.3108,-2.3305,-2.3484,-2.3386,-2.3238,-2.2719,-2.2095,-2.2704,-2.2814,-2.2787,-2.3392,-2.4049,-2.4296,-2.4343,-2.4141,-2.3759,-2.3849,-2.3729,-2.3595,-2.3655,-2.3984,-2.435,-2.4634,-2.4918,-2.5307,-2.5704,-2.5809,-2.5809,-2.5794,-2.5794,-2.5824,-2.548,-2.4852,-2.45,-2.4306,-2.4201,-2.3849,-2.3625,-2.3595,-2.3595,-2.3595,-2.3696,-2.3867,-2.4057,-2.4578,-2.5307,-2.5663,-2.627,-2.6954,-2.7379,-2.8287,-2.9137,-2.9835,-3.0417,-3.0917,-3.119,-3.119,-3.119,-3.119,-3.121,-3.1269,-3.1426,-3.1675,-3.1914,-3.2196,-3.2435,-3.2536,-3.2568,-3.1805,-3.1044,-2.9768,-2.8386,-2.8158,-2.8282,-2.8132,-2.7861,-2.7847,-2.7957,-2.8134,-2.8386,-2.857,-2.8839,-2.8952,-2.894,-2.8952,-2.8987,-2.8877,-2.873,-2.865,-2.8481,-2.8544,-2.8379,-2.8357,-2.8351,-2.6412,-2.4663,-2.4865,-2.498,-2.5069,-2.5132,-2.5171,-2.5182,-2.5248,-2.5288,-2.5278,-2.5298,-2.5322,-2.5359,-2.3095,-2.3095,-2.3095,-2.3095,-2.3095,-2.3095,-2.3095,-2.3095,-2.3095,-2.3095,-2.3095,-2.3045,-2.2619,-2.1993,-2.2768,-2.3108,-2.3051,-2.3789,-2.436,-2.4726,-2.4916,-2.4821,-2.4575,-2.4388,-2.4582,-2.4492,-2.4507,-2.4754,-2.5023,-2.5465,-2.5809,-2.6063,-2.6213,-2.6408,-2.6422,-2.6452,-2.6422,-2.6512,-2.6408,-2.6063,-2.5382,-2.4963,-2.4545,-2.4103,-2.3819,-2.3729,-2.3595,-2.3595,-2.3638,-2.376,-2.3946,-2.4271,-2.4898,-2.5433,-2.6028,-2.6766,-2.7499,-2.8438,-2.9294,-2.9972,-3.0432,-3.092,-3.1171,-3.1171,-3.119,-3.119,-3.119,-3.1249,-3.1329,-3.1581,-3.1712,-3.195,-3.2109,-3.2231,-3.2092,-3.162,-3.1094,-3.0349,-2.8766,-2.7509,-2.7537,-2.7365,-2.7195,-2.718,-2.738,-2.7872,-2.8106,-2.8448,-2.8694,-2.8881,-2.8881,-2.8893,-2.8893,-2.8952,-2.8895,-2.8877,-2.8881,-2.9012,-2.9104,-2.892,-2.8378,-2.5959,-2.4312,-2.4884,-2.5098,-2.4832,-2.4903,-2.512,-2.5164,-2.5212,-2.5247,-2.5266,-2.5335,-2.5457,-2.5394,-2.3095,-2.3095,-2.3095,-2.3095,-2.3095,-2.3095,-2.3095,-2.3095,-2.3095,-2.3095,-2.3095,-2.3095,-2.2769,-2.2618,-2.286,-2.3022,-2.3393,-2.4112,-2.4679,-2.5102,-2.5401,-2.5316,-2.5373,-2.5465,-2.536,-2.5345,-2.5375,-2.5525,-2.5734,-2.6108,-2.6422,-2.6791,-2.718,-2.7555,-2.7585,-2.7555,-2.7405,-2.733,-2.724,-2.7151,-2.6408,-2.554,-2.5053,-2.4605,-2.4201,-2.3894,-2.3864,-2.3879,-2.3879,-2.4019,-2.4323,-2.4625,-2.4977,-2.5582,-2.6104,-2.6818,-2.7708,-2.8561,-2.9337,-3.003,-3.0549,-3.0975,-3.1072,-3.1092,-3.1055,-3.1075,-3.1055,-3.1114,-3.1213,-3.1387,-3.1523,-3.1618,-3.1768,-3.1841,-3.1626,-3.1499,-3.1122,-3.0798,-2.9326,-2.7639,-2.7232,-2.7114,-2.708,-2.703,-2.7295,-2.7751,-2.7982,-2.8291,-2.8541,-2.8637,-2.87,-2.8712,-2.8724,-2.881,-2.894,-2.9005,-2.9017,-2.9028,-2.9044,-2.901,-2.8583,-2.7034,-2.5899,-2.5425,-2.5504,-2.5305,-2.5182,-2.5338,-2.5304,-2.5582,-2.5853,-2.6132,-2.6126,-2.6114,-2.561,-2.3095,-2.3095,-2.3095,-2.3095,-2.3095,-2.3095,-2.3095,-2.3095,-2.3095,-2.3095,-2.3095,-2.3058,-2.2794,-2.2347,-2.3149,-2.3462,-2.3522,-2.4286,-2.4968,-2.5441,-2.5704,-2.5726,-2.5789,-2.5965,-2.5689,-2.5734,-2.5884,-2.5974,-2.6318,-2.6572,-2.6911,-2.736,-2.739,-2.7585,-2.7585,-2.7585,-2.7585,-2.7585,-2.7585,-2.745,-2.73,-2.6557,-2.5959,-2.5585,-2.53,-2.5202,-2.5202,-2.5226,-2.5202,-2.5264,-2.525,-2.5402,-2.5611,-2.5911,-2.6435,-2.6938,-2.7854,-2.8506,-2.9231,-2.974,-3.0204,-3.0514,-3.0555,-3.0593,-3.0593,-3.0634,-3.0634,-3.0654,-3.0797,-3.1114,-3.1271,-3.131,-3.1408,-3.1408,-3.1317,-3.1298,-3.1116,-3.1043,-3.0455,-2.9184,-2.8318,-2.8283,-2.83,-2.8317,-2.8387,-2.8576,-2.8253,-2.8451,-2.8085,-2.8273,-2.8471,-2.8427,-2.8427,-2.8706,-2.8863,-2.8964,-2.9005,-2.8987,-2.8987,-2.8987,-2.8968,-2.8895,-2.8018,-2.7103,-2.6391,-2.606,-2.5957,-2.5708,-2.6416,-2.6779,-2.7001,-2.7172,-2.7069,-2.676,-2.6233]},{"header":{"parameterUnit":"m.s-1","parameterCategory":1,"la1":31.0,"la2":29.5877,"lo1":-88.7671,"lo2":-86.6584,"dy":0.0162,"dx":0.0185,"nx":115,"ny":88,"refTime":"2026-05-05T12:00:00:Z","depth":0,"parameterNumber":3,"parameterNumberName":"V-component_of_WINDS"},"data":[0.0,0.0,0.0,0.0,0.0,0.0,0.0,0.0,0.0,0.0,0.0,0.0,0.0,0.0,0.0,0.0,0.0,0.0,0.0,0.0,0.0,0.0,0.0,0.0,0.0,0.0,0.0,0.0,0.0,0.0,0.0,0.0,0.0,0.0,0.0,0.0,0.0,0.0,0.0,0.0,0.0,0.0,0.0,0.0,0.0,0.0,0.0,0.0,0.0,0.0,0.0,0.0,0.0,0.0,0.0,0.0,0.0,0.0,0.0,0.0,0.0,0.0,0.0,0.0,0.0,0.0,0.0,0.0,0.0,0.0,0.0,0.0,0.0,0.0,0.0,0.0,0.0,0.0,0.0,0.0,0.0,0.0,0.0,0.0,0.0,0.0,0.0,0.0,0.0,0.0,0.0,0.0,0.0,0.0,0.0,0.0,0.0,0.0,0.0,0.0,0.0,0.0,0.0,0.0,0.0,0.0,0.0,0.0,0.0,0.0,0.0,0.0,0.0,0.0,0.0,0.0,0.0,0.0,0.0,0.0,0.0,0.0,0.0,0.0,0.0,0.0,0.0,0.0,0.0,0.0,0.0,0.0,0.0,0.0,0.0,0.0,0.0,0.0,0.0,0.0,0.0,0.0,0.0,0.0,0.0,0.0,0.0,0.0,0.0,0.0,0.0,0.0,0.0,0.0,0.0,0.0,0.0,0.0,0.0,0.0,0.0,0.0,0.0,0.0,0.0,0.0,0.0,0.0,0.0,0.0,0.0,0.0,0.0,0.0,0.0,0.0,0.0,0.0,0.0,0.0,0.0,0.0,0.0,0.0,0.0,0.0,0.0,0.0,0.0,0.0,0.0,0.0,0.0,0.0,0.0,0.0,0.0,0.0,0.0,0.0,0.0,0.0,0.0,0.0,0.0,0.0,0.0,0.0,0.0,0.0,0.0,0.0,0.0,0.0,0.0,0.0,0.0,0.0,0.0,0.0,0.0,0.0,0.0,0.0,0.0,0.0,0.0,0.0,0.0,0.0,0.0,0.0,0.0,0.0,0.0,0.0,0.0,0.0,0.0,0.0,0.0,0.0,0.0,0.0,0.0,0.0,0.0,0.0,0.0,0.0,0.0,0.0,0.0,0.0,0.0,0.0,0.0,0.0,0.0,0.0,0.0,0.0,0.0,0.0,0.0,0.0,0.0,0.0,0.0,0.0,0.0,0.0,0.0,0.0,0.0,0.0,0.0,0.0,0.0,0.0,0.0,0.0,0.0,0.0,0.0,0.0,0.0,0.0,0.0,0.0,0.0,0.0,0.0,0.0,0.0,0.0,0.0,0.0,0.0,0.0,0.0,0.0,0.0,0.0,0.0,0.0,0.0,0.0,0.0,0.0,0.0,0.0,0.0,0.0,0.0,0.0,0.0,0.0,0.0,0.0,0.0,0.0,0.0,0.0,0.0,0.0,0.0,0.0,0.0,0.0,0.0,0.0,0.0,0.0,0.0,0.0,0.0,0.0,0.0,0.0,0.0,0.0,0.0,0.0,0.0,0.0,0.0,0.0,0.0,0.0,0.0,0.0,0.0,0.0,0.0,0.0,0.0,0.0,0.0,0.0,0.0,0.0,0.0,0.0,0.0,0.0,0.0,0.0,0.0,0.0,0.0,0.0,0.0,0.0,0.0,0.0,0.0,0.0,0.0,0.0,0.0,0.0,0.0,0.0,0.0,0.0,0.0,0.0,0.0,0.0,0.0,0.0,0.0,0.0,0.0,0.0,0.0,0.0,0.0,0.0,0.0,0.0,0.0,0.0,0.0,0.0,0.0,0.0,0.0,0.0,0.0,0.0,0.0,0.0,0.0,0.0,0.0,0.0,0.0,0.0,0.0,0.0,0.0,0.0,0.0,0.0,0.0,0.0,0.0,0.0,0.0,0.0,0.0,0.0,0.0,0.0,0.0,0.0,0.0,0.0,0.0,0.0,0.0,0.0,0.0,0.0,0.0,0.0,0.0,0.0,0.0,0.0,0.0,0.0,0.0,0.0,0.0,0.0,0.0,0.0,0.0,0.0,0.0,0.0,0.0,0.0,0.0,0.0,0.0,0.0,0.0,0.0,0.0,0.0,0.0,0.0,0.0,0.0,0.0,0.0,0.0,0.0,0.0,0.0,0.0,0.0,0.0,0.0,0.0,0.0,0.0,0.0,0.0,0.0,0.0,0.0,0.0,0.0,0.0,0.0,0.0,0.0,0.0,0.0,0.0,0.0,0.0,0.0,0.0,0.0,0.0,0.0,0.0,0.0,0.0,0.0,0.0,0.0,0.0,0.0,0.0,0.0,0.0,0.0,0.0,0.0,0.0,0.0,0.0,0.0,0.0,0.0,0.0,0.0,0.0,0.0,0.0,0.0,0.0,0.0,0.0,0.0,0.0,0.0,0.0,0.0,0.0,0.0,0.0,0.0,0.0,0.0,0.0,0.0,0.0,0.0,0.0,0.0,0.0,0.0,0.0,0.0,0.0,0.0,0.0,0.0,0.0,0.0,0.0,0.0,0.0,0.0,0.0,0.0,0.0,0.0,0.0,0.0,0.0,0.0,0.0,0.0,0.0,0.0,0.0,0.0,0.0,0.0,0.0,0.0,0.0,0.0,0.0,0.0,0.0,0.0,0.0,0.0,0.0,0.0,0.0,0.0,0.0,0.0,0.0,0.0,0.0,0.0,0.0,0.0,0.0,0.0,0.0,0.0,0.0,0.0,0.0,0.0,0.0,0.0,0.0,0.0,0.0,0.0,0.0,0.0,0.0,0.0,0.0,0.0,0.0,0.0,0.0,0.0,0.0,0.0,0.0,0.0,0.0,0.0,0.0,0.0,0.0,0.0,0.0,0.0,0.0,0.0,0.0,0.0,0.0,0.0,0.0,0.0,0.0,0.0,0.0,0.0,0.0,0.0,0.0,0.0,0.0,0.0,0.0,0.0,0.0,0.0,0.0,0.0,0.0,0.0,0.0,0.0,0.0,0.0,0.0,0.0,0.0,0.0,0.0,0.0,0.0,0.0,0.0,0.0,0.0,0.0,0.0,0.0,0.0,0.0,0.0,0.0,0.0,0.0,0.0,0.0,0.0,0.0,0.0,0.0,0.0,0.0,0.0,0.0,0.0,0.0,0.0,0.0,0.0,0.0,0.0,0.0,0.0,0.0,0.0,0.0,0.0,0.0,0.0,0.0,0.0,0.0,0.0,0.0,0.0,0.0,0.0,0.0,0.0,0.0,0.0,0.0,0.0,0.0,0.0,0.0,0.0,0.0,0.0,0.0,0.0,0.0,0.0,0.0,0.0,0.0,0.0,0.0,0.0,0.0,0.0,0.0,0.0,0.0,0.0,0.0,0.0,0.0,0.0,0.0,0.0,0.0,0.0,0.0,0.0,0.0,0.0,0.0,0.0,0.0,0.0,0.0,0.0,0.0,0.0,0.0,0.0,0.0,0.0,0.0,0.0,0.0,0.0,0.0,0.0,0.0,0.0,0.0,0.0,0.0,0.0,0.0,0.0,0.0,0.0,0.0,0.0,0.0,0.0,0.0,0.0,0.0,0.0,0.0,0.0,0.0,0.0,0.0,0.0,0.0,0.0,0.0,0.0,0.0,0.0,0.0,0.0,0.0,0.0,0.0,0.0,0.0,0.0,0.0,0.0,0.0,0.0,0.0,0.0,0.0,0.0,0.0,0.0,0.0,0.0,0.0,0.0,0.0,0.0,0.0,0.0,0.0,0.0,0.0,0.0,0.0,0.0,0.0,0.0,0.0,0.0,0.0,0.0,0.0,0.0,0.0,0.0,0.0,0.0,0.0,0.0,0.0,0.0,0.0,0.0,0.0,0.0,0.0,0.0,0.0,0.0,0.0,0.0,0.0,0.0,0.0,0.0,0.0,0.0,0.0,0.0,0.0,0.0,0.0,0.0,0.0,0.0,0.0,0.0,0.0,0.0,0.0,0.0,0.0,0.0,0.0,0.0,0.0,0.0,0.0,0.0,0.0,0.0,0.0,0.0,0.0,0.0,0.0,0.0,0.0,0.0,0.0,0.0,0.0,0.0,0.0,0.0,0.0,0.0,0.0,0.0,0.0,0.0,0.0,0.0,0.0,0.0,0.0,0.0,0.0,0.0,0.0,0.0,0.0,0.0,0.0,0.0,0.0,0.0,0.0,0.0,0.0,0.0,0.0,0.0,0.0,0.0,0.0,0.0,0.0,0.0,0.0,0.0,0.0,0.0,0.0,0.0,0.0,0.0,0.0,0.0,0.0,0.0,0.0,0.199,0.0,0.0,0.0,0.0,0.0,0.0,0.0,0.0,0.0,0.0,0.0,0.0,0.0,0.0,0.0,0.0,0.0,0.0,0.0,0.0,0.0,0.0,0.0,0.0,0.0,0.0,0.0,0.0,0.0,0.0,0.0,0.0,0.0,0.0,0.0,0.0,0.0,0.0,0.0,0.0,0.0,0.0,0.0,0.0,0.0,0.0,0.0,0.0,0.0,0.0,0.0,0.0,0.0,0.0,0.0,0.0,0.0,0.0,0.0,0.0,0.0,0.0,0.0,0.0,0.0,0.0,0.0,0.0,0.0,0.0,0.0,0.0,0.0,0.0,0.0,0.0,0.0,0.0,0.0,0.0,0.0,0.0,0.0,0.0,0.0,0.0,0.0,0.0,0.0,0.0,0.0,0.0,0.0,0.0,0.0,0.0,0.0,0.0,0.0,0.0,0.0,0.0,0.0,0.0,0.0,0.0,0.0,0.0,0.0,0.0,0.4159,0.358,0.3185,0.267,0.204,0.0,0.0,0.0,0.0,0.0,0.0,0.0,0.0,0.0,0.0,0.0,0.0,0.0,0.0,0.0,0.0,0.0,0.0,0.0,0.0,0.0,0.0,0.0,0.0,0.0,0.0,0.0,0.0,0.0,0.0,0.0,0.0,0.0,0.0,0.0,0.0,0.0,0.0,0.0,0.0,0.0,0.0,0.0,0.0,0.0,0.0,0.0,0.0,0.0,0.0,0.0,0.0,0.0,0.0,0.0,0.0,0.0,0.0,0.0,0.0,0.0,0.0,0.0,0.0,0.0,0.0,0.0,0.0,0.0,0.0,0.0,0.0,0.0,0.0,0.0,0.0,0.0,0.0,0.0,0.0,0.0,0.0,0.0,0.0,0.0,0.0,0.0,0.0,0.0,0.0,0.0,0.0,0.0,0.0,0.0,0.0,0.0,0.0,0.0,0.0,0.0,0.0,0.0,0.0,0.0,0.0,0.0,0.0,0.0,0.0,0.0,0.0,0.3392,0.2788,0.2021,0.0,0.0,0.0,0.0,0.0,0.0,0.0,0.0,0.0,0.0,0.0,0.0,0.0,0.0,0.0,0.0,0.0,0.0,0.0,0.0,0.0,0.0,0.0,0.0,0.0,0.0,0.0,0.0,0.0,0.0,0.0,0.0,0.0,0.0,0.0,0.0,0.0,0.0,0.0,0.0,0.0,0.0,0.0,0.0,0.0,0.0,0.0,0.0,0.0,0.0,0.0,0.0,0.0,0.0,0.0,0.0,0.0,0.0,0.0,0.0,0.0,0.0,0.0,0.0,0.0,0.0,0.0,0.0,0.0,0.0,0.0,0.0,0.0,0.0,0.0,0.0,0.0,0.0,0.0,0.0,0.0,0.0,0.0,0.0,0.0,0.0,0.0,0.0,0.0,0.0,0.0,0.0,0.0,0.0,0.0,0.0,0.0,0.0,0.0,0.0,0.0,0.0,0.0,0.0,0.0,0.0,0.0,0.0,0.0,0.0,0.4257,0.3878,0.3313,0.0,0.1975,0.0,0.0,0.0,0.0,0.0,0.0,0.0,0.0,0.0,0.0,0.0,0.0,0.0,0.0,0.0,0.0,0.0,0.0,0.0,0.0,0.0,0.0,0.0,0.0,0.0,0.0,0.0,0.0,0.0,0.0,0.0,0.0,0.0,0.0,0.0,0.0,0.0,0.0,0.0,0.0,0.0,0.0,0.0,0.0,0.0,0.0,0.0,0.0,0.0,0.0,0.0,0.0,0.0,0.0,0.0,0.0,0.0,0.0,0.0,0.0,0.0,0.0,0.0,0.0,0.0,0.0,0.0,0.0,0.0,0.0,0.0,0.0,0.0,0.0,0.0,0.0,0.0,0.0,0.0,0.0,0.0,0.0,0.0,0.0,0.0,0.0,0.0,0.0,0.0,0.0,0.0,0.0,0.0,0.0,0.0,0.0,0.0,0.0,0.0,0.0,0.0,0.0,0.0,0.0,0.0,0.0,0.0,0.0,0.0,0.0,0.4187,0.3849,0.318,0.2613,0.0,0.0,0.0,0.0,0.0,0.0,0.0,0.0,0.0,0.0,0.0,0.0,0.0,0.0,0.0,0.0,0.0,0.0,0.0,0.0,0.0,0.0,0.0,0.0,0.0,0.0,0.0,0.0,0.0,0.0,0.0,0.0,0.0,0.0,0.0,0.0,0.0,0.0,0.0,0.0,0.0,0.0,0.0,0.0,0.0,0.0,0.0,0.0,0.0,0.0,0.0,0.0,0.0,0.0,0.0,0.0,0.0,0.0,0.0,0.0,0.0,0.0,0.0,0.0,0.0,0.0,0.0,0.0,0.0,0.0,0.0,0.0,0.0,0.0,0.0,0.0,0.0,0.0,0.0,0.0,0.0,0.0,0.0,0.0,0.0,0.0,0.0,0.0,0.0,0.0,0.0,0.0,0.0,0.0,0.0,0.0,0.0,0.0,0.0,0.0,0.0,0.0,0.0,0.0,0.0,0.0,0.0,0.0,0.0,0.0,0.3943,0.3898,0.3537,0.2981,0.2546,0.2226,0.0,0.0,0.0,0.0,0.0,0.0,0.0,0.0,0.0,0.0,0.0,0.0,0.0,0.0,0.0,0.0,0.0,0.0,0.0,0.0,0.0,0.0,0.0,0.0,0.0,0.0,0.0,0.0,0.0,0.0,0.0,0.0,0.0,0.0,0.0,0.0,0.0,0.0,0.0,0.0,0.0,0.0,0.0,0.0,0.0,0.0,0.0,0.0,0.0,0.0,0.0,0.0,0.0,0.0,0.0,0.0,0.0,0.0,0.0,0.0,0.0,0.0,0.0,0.0,0.0,0.0,0.0,0.0,0.0,0.0,0.0,0.0,0.0,0.0,0.0,0.0,0.0,0.0,0.0,0.0,0.0,0.0,0.0,0.0,0.0,0.0,0.0,0.0,0.0,0.0,0.0,0.0,0.0,0.0,0.0,0.0,0.0,0.0,0.0,0.0,0.0,0.0,0.0,0.0,0.0,0.0,0.0,0.0,0.3679,0.3597,0.3311,0.2881,0.2753,0.2481,0.0,0.0,0.0,0.0,0.0,0.0,0.0,0.0,0.0,0.0,0.0,0.0,0.0,0.0,0.0,0.0,0.0,0.0,0.0,0.0,0.0,0.0,0.0,0.0,0.0,0.0,0.0,0.0,0.0,0.0,0.0,0.0,0.0,0.0,0.0,0.0,0.0,0.0,0.0,0.0,0.0,0.0,0.0,0.0,0.0,0.0,0.0,0.0,0.0,0.0,0.0,0.0,0.0,0.0,0.0,0.0,0.0,0.0,0.0,0.0,0.0,0.0,0.0,0.0,0.0,0.0,0.0,0.0,0.0,0.0,0.0,0.0,0.0,0.0,0.0,0.0,0.0,0.0,0.0,0.0,0.0,0.0,0.0,0.0,0.0,0.0,0.0,0.0,0.0,0.0,0.0,0.0,0.0,0.0,0.0,0.0,0.0,0.0,0.0,0.0,0.0,0.0,0.0,0.0,0.0,0.0,0.0,0.0,0.0,0.3205,0.321,0.3115,0.2884,0.2767,0.2462,0.0,0.0,0.0,0.0,0.0,0.0,0.0,0.0,0.0,0.0,0.0,0.0,0.0,0.0,0.0,0.0,0.0,0.0,0.0,0.0,0.0,0.0,0.0,0.0,0.0,0.0,0.0,0.0,0.0,0.0,0.0,0.0,0.0,0.0,0.0,0.0,0.0,0.0,0.0,0.0,0.0,0.0,0.0,0.0,0.0,0.0,0.0,0.0,0.0,0.0,0.0,0.0,0.0,0.0,0.0,0.0,0.0,0.0,0.0,0.0,0.0,0.0,0.0,0.0,0.0,0.0,0.0,0.0,0.0,0.0,0.0,0.0,0.0,0.0,0.0,0.0,0.0,0.0,0.0,0.0,0.0,0.0,0.0,0.0,0.0,0.0,0.0,0.0,0.0,0.0,0.0,0.0,0.0,0.0,0.0,0.0,0.0,0.0,0.0,0.0,0.0,0.0,0.0,0.0,0.0,0.0,0.0,0.0,0.0,0.3134,0.0,0.318,0.2967,0.2826,0.2492,0.0,0.0,0.0,0.0,0.0,0.0,0.0,0.0,0.0,0.0,0.0,0.0,0.0,0.0,0.0,0.0,0.0,0.0,0.0,0.0,0.0,0.0,0.0,0.0,0.0,0.0,0.0,0.0,0.0,0.0,0.0,0.0,0.0,0.0,0.0,0.0,0.0,0.0,0.0,0.0,0.0,0.0,0.0,0.0,0.0,0.0,0.0,0.0,0.0,0.0,0.0,0.0,0.0,0.0,0.0,0.0,0.0,0.0,0.0,0.0,0.0,0.0,0.0,0.0,0.0,0.0,0.0,0.0,0.0,0.0,0.0,0.0,0.0,0.0,0.0,0.0,0.0,0.0,0.0,0.0,0.0,0.0,0.0,0.0,0.0,0.0,0.0,0.0,0.0,0.0,0.0,0.0,0.0,0.0,0.0,0.0,0.0,0.0,0.0,0.0,0.0,0.0,0.0,0.0,0.0,0.0,0.0,0.0,0.362,0.3621,0.3693,0.3557,0.3115,0.2978,0.2593,0.0,0.0,0.0,0.0,0.0,0.0,0.0,0.0,0.0,0.0,0.0,0.0,0.0,0.0,0.0,0.0,0.0,0.0,0.0,0.0,0.0,0.0,0.0,0.0,0.0,0.0,0.0,0.0,0.0,0.0,0.0,0.0,0.0,0.0,0.0,0.0,0.0,0.0,0.0,0.0,0.0,0.0,0.0,0.0,0.0,0.0,0.0,0.0,0.0,0.0,0.0,0.0,0.0,0.0,0.0,0.0,0.0,0.0,0.0,0.0,0.0,0.0,0.0,0.0,0.0,0.0,0.0,0.0,0.0,0.0,0.0,0.0,0.0,0.0,0.0,0.0,0.0,0.0,0.0,0.0,0.0,0.0,0.0,0.0,0.0,0.0,0.0,0.0,0.0,0.0,0.0,0.0,0.0,0.0,0.0,0.0,0.0,0.0,0.0,0.0,0.0,0.0,0.0,0.0,0.0,0.0,0.0,0.0,0.0,0.4358,0.4561,0.4393,0.3786,0.3198,0.2608,0.0,0.0,0.0,0.0,0.0,0.0,0.0,0.0,0.0,0.0,0.0,0.0,0.0,0.0,0.0,0.0,0.0,0.0,0.0,0.0,0.0,0.0,0.0,0.0,0.0,0.0,0.0,0.0,0.0,0.0,0.0,0.0,0.0,0.0,0.0,0.0,0.0,0.0,0.0,0.0,0.0,0.0,0.0,0.0,0.0,0.0,0.0,0.0,0.0,0.0,0.0,0.0,0.0,0.0,0.0,0.0,0.0,0.0,0.0,0.0,0.0,0.0,0.0,0.0,0.0,0.0,0.0,0.0,0.0,0.0,0.0,0.0,0.0,0.0,0.0,0.0,0.0,0.0,0.0,0.0,0.0,0.0,0.0,0.0,0.0,0.0,0.0,0.0,0.0,0.0,0.0,0.0,0.0,0.0,0.0,0.0,0.0,0.0,0.0,0.0,0.0,0.0,0.0,0.0,0.0,0.0,0.0,0.0,0.0,0.5234,0.5271,0.4953,0.4264,0.3535,0.2858,0.2191,0.0,0.0,0.0,0.0,0.0,0.0,0.0,0.0,0.0,0.0,0.0,0.0,0.0,0.0,0.0,0.0,0.0,0.0,0.0,0.0,0.0,0.0,0.0,0.0,0.0,0.0,0.0,0.0,0.0,0.0,0.0,0.0,0.0,0.0,0.0,0.0,0.0,0.0,0.0,0.0,0.0,0.0,0.0,0.0,0.0,0.0,0.0,0.0,0.0,0.0,0.0,0.0,0.0,0.0,0.0,0.0,0.0,0.0,0.0,0.0,0.0,0.0,0.0,0.0,0.0,0.0,0.0,0.0,0.0,0.0,0.0,0.0,0.0,0.0,0.0,0.0,0.0,0.0,0.0,0.0,0.0,0.0,0.0,0.0,0.0,0.0,0.0,0.0,0.0,0.0,0.0,0.0,0.0,0.0,0.0,0.0,0.0,0.0,0.0,0.0,0.0,0.0,0.0,0.0,0.0,0.0,0.0,0.0,0.6061,0.5792,0.5313,0.458,0.3965,0.3272,0.0,0.0,0.0,0.0,0.0,0.0,0.0,0.0,0.0,0.0,0.0,0.0,0.0,0.0,0.0,0.0,0.0,0.0,0.0,0.0,0.0,0.0,0.0,0.0,0.0,0.0,0.0,0.0,0.0,0.0,0.0,0.0,0.0,0.0,0.0,0.0,0.0,0.0,0.0,0.0,0.0,0.0,0.0,0.0,0.0,0.0,0.0,0.0,0.0,0.0,0.0,0.0,0.0,0.0,0.0,0.0,0.0,0.0,0.0,0.0,0.0,0.0,0.0,0.0,0.0,0.0,0.0,0.0,0.0,0.0,0.0,0.0,0.0,0.0,0.0,0.0,0.0,0.0,0.0,0.0,0.0,0.0,0.0,0.0,0.0,0.0,0.0,0.0,0.0,0.0,0.0,0.0,0.0,0.0,0.0,0.0,0.0,0.0,0.0,0.0,0.0,0.0,0.0,0.0,0.0,0.0,0.0,0.0,0.0,0.5744,0.6134,0.6033,0.5389,0.4522,0.3644,0.0,0.0,0.0,0.0,0.0,0.0,0.0,0.0,0.0,0.0,0.0,0.0,0.0,0.0,0.0,0.0,0.0,0.0,0.0,0.0,0.0,0.0,0.0,0.0,0.0,0.0,0.0,0.0,0.0,0.0,0.0,0.0,0.0,0.0,0.0,0.0,0.0,0.0,0.0,0.0,0.0,0.0,0.0,0.0,0.0,0.0,0.0,0.0,0.0,0.0,0.0,0.0,0.0,0.0,0.0,0.0,0.0,0.0,0.0,0.0,0.0,0.0,0.0,0.0,0.0,0.0,0.0,0.0,0.0,0.0,0.0,0.0,0.0,0.0,0.0,0.0,0.0,0.0,0.0,0.0,0.0,0.0,0.0,0.0,0.0,0.0,0.0,0.0,0.0,0.0,0.0,0.0,0.0,0.0,0.0,0.0,0.0,0.0,0.0,0.0,0.0,0.0,0.0,0.0,0.0,0.0,0.0,0.0,0.5221,0.561,0.6186,0.6231,0.5692,0.4843,0.4026,0.0,0.0,0.0,0.0,0.0,0.0,0.0,0.0,0.0,0.0,0.0,0.0,0.0,0.0,0.0,0.0,0.0,0.0,0.0,0.0,0.0,0.0,0.0,0.0,0.0,0.0,0.0,0.0,0.0,0.0,0.0,0.0,0.0,0.0,0.0,0.0,0.0,0.0,0.0,0.0,0.0,0.0,0.0,0.0,0.0,0.0,0.0,0.0,0.0,0.0,0.0,0.0,0.0,0.0,0.0,0.0,0.0,0.0,0.0,0.0,0.0,0.0,0.0,0.0,0.0,0.0,0.0,0.0,0.0,0.0,0.0,0.0,0.0,0.0,0.0,0.0,0.0,0.0,0.0,0.0,0.0,0.0,0.0,0.0,0.0,0.0,0.0,0.0,0.0,0.0,0.0,0.0,0.0,0.0,0.0,0.0,0.0,0.0,0.0,0.0,0.0,0.0,0.0,0.0,0.0,0.0,0.0,0.0,0.504,0.5614,0.6067,0.6088,0.5616,0.504,0.4399,0.0,0.0,0.0,0.0,0.0,0.0,0.0,0.0,0.0,0.0,0.0,0.0,0.0,0.0,0.0,0.0,0.0,0.0,0.0,0.0,0.0,0.0,0.0,0.0,0.0,0.0,0.0,0.0,0.0,0.0,0.0,0.0,0.0,0.0,0.0,0.0,0.0,0.0,0.0,0.0,0.0,0.0,0.0,0.0,0.0,0.0,0.0,0.0,0.0,0.0,0.0,0.0,0.0,0.0,0.0,0.0,0.0,0.0,0.0,0.0,0.0,0.0,0.0,0.0,0.0,0.0,0.0,0.0,0.0,0.0,0.0,0.0,0.0,0.0,0.0,0.0,0.0,0.0,0.0,0.0,0.0,0.0,0.0,0.0,0.0,0.0,0.0,0.0,0.0,0.0,0.0,0.0,0.0,0.0,0.0,0.0,0.0,0.0,0.0,0.0,0.0,0.0,0.0,0.0,0.0,0.0,0.0,0.0,0.5535,0.5748,0.6101,0.6139,0.5762,0.5287,0.463,0.0,0.0,0.0,0.0,0.0,0.0,0.0,0.0,0.0,0.0,0.0,0.0,0.0,0.0,0.0,0.0,0.0,0.0,0.0,0.0,0.0,0.0,0.0,0.0,0.0,0.0,0.0,0.0,0.0,0.0,0.0,0.0,0.0,0.0,0.0,0.0,0.0,0.0,0.0,0.0,0.0,0.0,0.0,0.0,0.0,0.0,0.0,0.0,0.0,0.0,0.0,0.0,0.0,0.0,0.0,0.0,0.0,0.0,0.0,0.0,0.0,0.0,0.0,0.0,0.0,0.0,0.0,0.0,0.0,0.0,0.0,0.0,0.0,0.0,0.0,0.0,0.0,0.0,0.0,0.0,0.0,0.0,0.0,0.0,0.0,0.0,0.0,0.0,0.0,0.0,0.0,0.0,0.0,0.0,0.0,0.0,0.0,0.0,0.0,0.0,0.0,0.0,0.0,0.0,0.0,0.0,0.0,0.0,0.6139,0.6169,0.6248,0.6153,0.5806,0.5437,0.486,0.0,0.0,0.0,0.0,0.0,0.0,0.0,0.0,0.0,0.0,0.0,0.0,0.0,0.0,0.0,0.0,0.0,0.0,0.0,0.0,0.0,0.0,0.0,0.0,0.0,0.0,0.0,0.0,0.0,0.0,0.0,0.0,0.0,0.0,0.0,0.0,0.0,0.0,0.0,0.0,0.0,0.0,0.0,0.0,0.0,0.0,0.0,0.0,0.0,0.0,0.0,0.0,0.0,0.0,0.0,0.0,0.0,0.0,0.0,0.0,0.0,0.0,0.0,0.0,0.0,0.0,0.0,0.0,0.0,0.0,0.0,0.0,0.0,0.0,0.0,0.0,0.0,0.0,0.0,0.0,0.0,0.0,0.0,0.0,0.0,0.0,0.0,0.0,0.0,0.0,0.0,0.0,0.0,0.0,0.0,0.0,0.0,0.0,0.0,0.0,0.0,0.0,0.0,0.0,0.0,0.0,0.0,0.6586,0.6718,0.6608,0.6364,0.6071,0.5742,0.5481,0.4982,0.4286,0.0,0.0,0.0,0.0,0.0,0.0,0.0,0.0,0.0,0.0,0.0,0.0,0.0,0.0,0.0,0.0,0.0,0.0,0.0,0.0,0.0,0.0,0.0,0.0,0.0,0.0,0.0,0.0,0.0,0.0,0.0,0.0,0.0,0.0,0.0,0.0,0.0,0.0,0.0077,0.0603,0.0,0.0,0.0,0.0,0.0,0.0,0.0,0.0,-0.109,0.0,0.0,0.0,0.0,0.0,0.0,0.0,0.0,0.0,0.0,0.0,0.0,0.0,0.0,0.0,0.0,0.0,0.0,0.0,0.0,0.0,0.0,0.0,0.0,0.0,0.0,0.0,0.0,0.0,0.0,0.0,0.0,0.0,0.0,0.0,0.0,0.0,0.0,0.0,0.0,0.0,0.0,0.0,0.0,0.0,0.0,0.0,0.0,0.0,0.0,0.0,0.0,0.0,0.0,0.0,0.0,0.6507,0.6971,0.6992,0.6613,0.6237,0.5864,0.5481,0.5145,0.4682,0.407,0.0,0.0,0.0,0.0,0.0,0.0,0.0,0.0,0.0,0.0,0.0,0.0,0.0,0.0,0.0,0.0,0.0,0.0,0.0,0.0,0.0,0.0,0.0,0.0,0.0,0.0,0.0,0.0,0.0,0.0,0.0,0.0,0.0,0.0,0.0,0.0,0.0,0.0,0.0,0.0985,0.1519,0.0,0.0,0.0,0.0,0.0,0.0,0.0,0.0,-0.1826,0.0,0.0,0.0,0.0,0.0,0.0,0.0,0.0,0.0,0.0,0.0,0.0,0.0,0.0,0.0,0.0,0.0,0.0,0.0,0.0,0.0,0.0,0.0,0.0,0.0,0.0,0.0,0.0,0.0,0.0,0.0,0.0,0.0,0.0,0.0,0.0,0.0,0.0,0.0,0.0,0.0,0.0,0.0,0.0,0.0,0.0,0.0,0.0,0.0,0.0,0.0,0.0,0.0,0.0,0.0,0.7009,0.7338,0.731,0.6916,0.6258,0.5735,0.5405,0.503,0.4527,0.0,0.0,0.0,0.0,0.0,0.0,0.0,0.0,0.0,0.0,0.0,0.0,0.0,0.0,0.0,0.0,0.0,0.0,0.0,0.0,0.0,0.0,0.0,0.0,0.0,0.0,0.0,0.0,0.0,0.0,0.0,0.0,0.0,0.0,0.0,0.0,0.0,0.0,0.0,0.0,0.1253,0.1935,0.2401,0.0,0.0,0.0,0.0,0.0,0.0,-0.129,-0.1914,0.0,0.0,0.0,0.0,0.0,0.0,0.0,0.0,0.0,0.0,0.0,0.0,0.0,0.0,0.0,0.0,0.0,0.0,0.0,0.0,0.0,0.0,0.0,0.0,0.0,0.0,0.0,0.0,0.0,0.0,0.0,0.0,0.0,0.0,0.0,0.0,0.0,0.0,0.0,0.0,0.0,0.0,0.0,0.0,0.0,0.0,0.0,0.0,0.0,0.0,0.0,0.0,0.0,0.0,0.0,0.7456,0.77,0.7659,0.7297,0.6414,0.5773,0.547,0.5014,0.4501,0.0,0.0,0.0,0.0,0.0,0.0,0.0,0.0,0.0,0.0,0.0,0.0,0.0,0.0,0.0,0.0,0.0,0.0,0.0,0.0,0.0,0.0,0.0,0.0,0.0,0.0,0.0,0.0,0.0,0.0,0.0,0.0,0.0,0.0,0.0,0.0,0.0,0.0,0.0,0.0,0.0,0.2178,0.2768,0.2816,0.0,0.0,0.0,0.0,-0.05,-0.1304,0.0,0.0,0.0,0.0,0.0,0.0,0.0,0.0,0.0,0.0,0.0,0.0,0.0,0.0,0.0,0.0,0.0,0.0,0.0,0.0,0.0,0.0,0.0,0.0,0.0,0.0,0.0,0.0,0.0,0.0,0.0,0.0,0.0,0.0,0.0,0.0,0.0,0.0,0.0,0.0,0.0,0.0,0.0,0.0,0.0,0.0,0.0,0.0,0.0,0.0,0.0,0.0,0.0,0.0,0.0,0.0,0.7643,0.803,0.8042,0.762,0.6912,0.6228,0.5682,0.5199,0.4606,0.0,0.0,0.0,0.0,0.0,0.0,0.0,0.0,0.0,0.0,0.0,0.0,0.0,0.0,0.0,0.0,0.0,0.0,0.0,0.0,0.0,0.0,0.0,0.0,0.0,0.0,0.0,0.0,0.0,0.0,0.0,0.0,0.0,0.0,0.0,0.0,0.0,0.0,0.0,0.0,0.0,0.2109,0.2876,0.3126,0.2475,0.0,0.0,-0.0109,-0.0376,-0.1205,0.0,0.0,0.0,0.0,0.0,0.0,0.0,0.0,0.0,0.0,0.0,0.0,0.0,0.0,0.0,0.0,0.0,0.0,0.0,0.0,0.0,0.0,0.0,0.0,0.0,0.0,0.0,0.0,0.0,0.0,0.0,0.0,0.0,0.0,0.0,0.0,0.0,0.0,0.0,0.0,0.0,0.0,0.0,0.0,0.0,0.0,0.0,0.0,0.0,0.0,0.0,0.0,0.0,0.0,0.0,0.6708,0.7566,0.8103,0.8269,0.8028,0.7601,0.7053,0.6401,0.5671,0.4893,0.0,0.0,0.0,0.0,0.0,0.0,0.0,0.0,0.0,0.0,0.0,0.0,0.0,0.0,0.0,0.0,0.0,0.0,0.0,0.0,0.0,0.0,0.0,0.0,0.0,0.0,0.0,0.0,0.0,0.0,0.0,0.0,0.0,0.0,0.0,0.0,0.0,0.0,0.0,0.0,0.0,0.0,0.2376,0.2763,0.0,0.0,0.0,-0.0101,-0.0404,0.0,0.0,0.0,0.0,0.0,0.0,0.0,0.0,0.0,0.0,0.0,0.0,0.0,0.0,0.0,0.0,0.0,0.0,0.0,0.0,0.0,0.0,0.0,0.0,0.0,0.0,0.0,0.0,0.0,0.0,0.0,0.0,0.0,0.0,0.0,0.0,0.0,0.0,0.0,0.0,0.0,0.0,0.0,0.0,0.0,0.0,0.0,0.0,0.0,0.0,0.0,0.0,0.0,0.0,0.0,0.0,0.0,0.748,0.8163,0.8515,0.85,0.827,0.7829,0.7136,0.6168,0.0,0.0,0.0,0.0,0.0,0.0,0.0,0.0,0.0,0.0,0.0,0.0,0.0,0.0,0.0,0.0,0.0,0.0,0.0,0.0,0.0,0.0,0.0,0.0,0.0,0.0,0.0,0.0536,0.0,0.0,0.0,0.0,0.0,0.0,0.0,0.0,0.0,0.0,0.0,0.0,0.0,0.0,0.1159,0.1608,0.2063,0.1785,0.0,0.0,-0.0082,-0.0377,-0.0453,-0.0713,0.0,0.0,0.0,0.0,0.0,0.0,0.0,0.0,0.0,0.0,0.0,0.0,0.0,0.0,0.0,0.0,0.0,0.0,0.0,0.0,0.0,0.0,0.0,0.0,0.0,0.0,0.0,0.0,0.0,0.0,0.0,0.0,0.0,0.0,0.0,0.0,0.0,0.0,0.0,0.0,0.0,0.0,0.0,0.0,0.0,0.0,0.0,0.0,0.0,0.0,0.0,0.0,0.0,0.0,0.6605,0.7489,0.8389,0.8937,0.9022,0.8719,0.8293,0.7744,0.6712,0.5736,0.0,0.0,0.0,0.0,0.0,0.0,0.0,0.0,0.0,0.0,0.0,0.0,0.0,0.0,0.0,0.0,0.0,0.0,0.0,0.0,0.0,0.0,0.0,0.0,0.0,0.0,0.0,0.0,0.0,0.0,0.0,0.0,0.0,0.0,0.0,0.0,0.0,0.0,0.0,0.0,0.0,0.07,0.0527,0.102,0.1064,0.0,0.0,-0.0055,-0.0184,-0.0484,-0.0806,-0.1179,0.0,0.0,0.0,0.0,0.0,0.0,0.0,0.0,0.0,0.0,0.0,0.0,0.0,0.0,0.0,0.0,0.0,0.0,0.0,0.0,0.0,0.0,0.0,0.0,0.0,0.0,0.0,0.0,0.0,0.0,0.0,0.0,0.0,0.0,0.0,0.0,0.0,0.0,0.0,0.0,0.0,0.0,0.0,0.0,0.0,0.0,0.0,0.0,0.0,0.0,0.0,0.0,0.0,0.6632,0.7475,0.854,0.9112,0.917,0.9225,0.8999,0.8429,0.7494,0.6487,0.0,0.0,0.0,0.0,0.0,0.0,0.0,0.0,0.0,0.0,0.0,0.0,0.0,0.0,0.0,0.0,0.0,0.0,0.0,0.0,0.0,0.0,0.0,0.0,0.0,0.0,0.0,0.0,0.0119,0.006,0.0,0.0,0.0,0.0,0.0,0.0,0.0,0.0,0.0,0.0,0.0,0.0242,0.015,0.0349,0.0,0.0,0.0,-0.0028,-0.0082,-0.0939,-0.1693,-0.1971,-0.2213,0.0,0.0,0.0,0.0,0.0,0.0,0.0,0.0,0.0,0.0,0.0,0.0,0.0,0.0,0.0,0.0,0.0,0.0,0.0,0.0,0.0,0.0,0.0,0.0,0.0,0.0,0.0,0.0,0.0,0.0,0.0,0.0,0.0,0.0,0.0,0.0,0.0,0.0,0.0,0.0,0.0,0.0,0.0,0.0,0.0,0.0,0.0,0.0,0.0,0.0,0.0,0.0,0.6586,0.735,0.8565,0.9176,0.9183,0.9446,0.9332,0.8837,0.7951,0.6996,0.0,0.0,0.0,0.0,0.0,0.0,0.0,0.0,0.0,0.0,0.0,0.0,0.0,0.0,0.0,0.0,0.0,0.0,0.0,0.0,0.0,0.0,0.0,0.0,0.0,0.0,0.0,0.0,0.0218,0.0047,0.0,0.0,0.0,0.0,0.0,0.0,0.0,0.0,0.0,0.0,0.0,0.0,0.0,0.0,0.0,0.0,0.0,0.0,0.0,-0.1271,-0.2412,-0.2755,0.0,0.0,0.0,0.0,0.0,0.0,0.0,0.0,0.0,0.0,0.0,0.0,0.0,0.0,0.0,0.0,0.0,0.0,0.0,0.0,0.0,0.0,0.0,0.0,0.0,0.0,0.0,0.5735,0.0,0.0,0.5935,0.0,0.0,0.0,0.0,0.0,0.0,0.0,0.0,0.0,0.0,0.0,0.0,0.0,0.0,0.0,0.0,0.0,0.0,0.0,0.0,0.0,0.0,0.6466,0.7026,0.8452,0.9198,0.9176,0.9211,0.9134,0.8969,0.7955,0.7131,0.6554,0.0,0.0,0.0,0.0,0.0,0.0,0.0,0.0,0.0,0.0,0.0,0.0,0.0,0.0,0.0,0.0,0.0,0.0,0.0,0.0,0.0,0.0,0.0,0.0,0.0,0.0,0.0716,0.0271,0.0,0.0,0.0,0.0,0.0,0.0,0.0,0.0,0.0,0.0,0.0,0.0,0.0,0.0,0.0,0.0,0.0,0.0,0.0,0.0,-0.1393,-0.2734,0.0,0.0,0.0,0.0,0.0,0.0,0.0,0.0,0.0,0.0,0.0,0.0,0.0,0.0,0.0,0.0,0.0,0.0,0.0,0.0,0.0,0.0,0.0,0.0,0.0,0.0,0.0,0.7535,0.7398,0.0,0.0,0.0,0.0,0.0,0.0,0.0,0.0,0.0,0.0,0.0,0.9961,0.9874,0.0,0.0,0.0,0.0,0.0,0.0,0.0,0.0,0.0,0.0,0.0,0.0,0.6239,0.7013,0.8103,0.8758,0.8918,0.8951,0.8904,0.8864,0.8134,0.718,0.6043,0.0,0.0,0.0,0.0,0.0,0.0,0.0,0.0,0.0,0.0,0.0,0.0,0.0,0.0,0.0,0.0,0.0,0.0,0.0,0.0,0.0,0.0,0.0,0.0,0.0,0.1299,0.0,0.0,0.0,0.0,0.0,0.0,0.0,0.0,0.0,0.0,0.0,0.0,0.0,0.0,0.0,0.0,0.0,0.0,0.0,0.0,0.0,0.0,0.0,0.0,0.0,0.0,0.0,0.0,0.0,0.0,0.0,0.0,-0.3422,-0.2902,-0.3018,-0.3221,-0.3286,0.0,0.0,0.0,0.0,0.0,0.0,0.0,0.0,0.0,0.0,0.0,0.0,0.0,0.0,0.9251,0.9138,0.8648,0.0,0.0,0.0,0.0,0.0,0.0,0.0,0.0,1.1067,1.1568,1.1538,1.1187,1.0887,0.0,1.0306,0.9512,0.0,0.0,0.0,0.0,0.0,0.0,0.0,0.0,0.64,0.7174,0.807,0.8617,0.8791,0.8704,0.8657,0.8644,0.8034,0.7104,0.592,0.5436,0.4914,0.0,0.0,0.0,0.0,0.0,0.0,0.0,0.0,0.0,0.0,0.0,0.0,0.0,0.0,0.0,0.0,0.0,0.0,0.0,0.0,0.0,0.0,0.0,0.137,0.0,0.0,0.0,0.0,0.0,0.0,0.0,0.0,0.0,0.0,0.0,0.0,0.0,0.0,0.0,0.0,0.0,0.0,0.0,0.0,0.0,0.0,0.0,-0.2627,-0.3303,-0.3499,-0.3602,-0.3724,-0.3483,-0.3347,-0.357,0.0,0.0,-0.3317,-0.3337,-0.3447,-0.3576,-0.3546,-0.3569,-0.3715,-0.4145,-0.4464,0.0,0.0,0.0,0.0,0.0,0.0,0.0,0.0,1.1242,1.1094,0.0,1.0427,0.0,0.0,0.0,0.0,0.0,0.9202,0.0,0.0,1.2944,1.3568,1.361,1.2828,1.2297,1.1965,1.1149,1.0582,1.0178,0.8694,0.0,0.0,0.0,0.0,0.0,0.0,0.6901,0.7506,0.833,0.8791,0.8784,0.8524,0.8389,0.8355,0.7689,0.6985,0.6268,0.6017,0.5548,0.4782,0.4277,0.0,0.0,0.0,0.0,0.0,0.0,0.0,0.0,0.0,0.0,0.0,0.0,0.0,0.0,0.0,0.0,0.0,0.0,0.0,0.0,0.2026,0.0,0.0,0.0,0.0,0.0,0.0,0.0,0.0,0.0,0.0,0.0,0.0,0.0,0.0,0.0,0.0,0.0,0.0,0.0,0.0,0.0,0.0,0.0,-0.1202,-0.232,-0.2935,0.0,0.0,-0.3908,-0.3792,-0.361,-0.3604,-0.36,-0.36,-0.3593,-0.3587,-0.3593,-0.36,-0.3741,-0.3951,-0.4194,-0.4646,-0.505,1.3406,0.0,0.0,0.0,0.0,1.1234,1.1791,1.2414,1.2387,1.2378,1.2281,1.1916,0.0,0.0,0.0,0.0,0.0,0.0,1.1308,1.2144,1.3372,1.3828,1.3665,1.2882,1.2298,1.1904,1.101,1.0397,1.0011,0.958,0.8667,0.7424,0.0,0.0,0.0,0.0,0.6901,0.7484,0.8174,0.8523,0.8523,0.8442,0.8188,0.7759,0.7539,0.7222,0.6783,0.6392,0.5983,0.5575,0.4831,0.0,0.0,0.0,0.0,0.0,0.0,0.0,0.0,0.0,0.0,0.0,0.0,0.0,0.0,0.0,0.0,0.0,0.0,0.0,0.2571,0.207,0.1625,0.0,0.0,0.0,0.0,0.0,0.0,0.0,0.0,0.0,0.0,0.0,0.0,0.0,0.0,0.0,0.0,0.0,0.0,0.0,0.0,0.0,0.0,-0.0504,-0.1113,-0.1719,-0.2287,-0.2975,-0.3863,-0.3942,-0.3826,-0.3622,-0.36,-0.36,-0.36,-0.36,-0.36,-0.3622,-0.3774,-0.3979,-0.4306,-0.4825,-0.5329,1.5055,1.3544,1.285,1.2713,1.2887,1.3243,1.3751,1.4378,1.4249,1.4165,1.4128,1.3597,1.3017,1.2358,1.1429,0.0,0.0,0.0,1.2282,1.3027,1.3936,1.4318,1.4156,1.3194,1.2494,1.2021,1.0807,1.0089,0.9847,0.9691,0.9244,0.851,0.0,0.0,0.6514,0.6799,0.7196,0.7672,0.8154,0.8402,0.8402,0.8185,0.7829,0.7315,0.731,0.7208,0.7006,0.6696,0.6364,0.6025,0.5353,0.4812,0.0,0.0,0.0,0.0,0.0,0.0,0.0,0.0,0.0,0.0,0.0,0.183,0.1865,0.0,0.0,0.0,0.2595,0.2821,0.2667,0.2363,0.0,0.0,0.0,0.0,0.0,0.0,0.0,0.0039,0.0,0.0,0.0,0.0,0.0,0.0,0.0,0.0,0.0,0.0,0.0,0.0,0.0,0.0,0.0,-0.014,-0.0477,-0.1178,-0.1872,-0.2481,-0.3136,-0.3591,-0.3782,-0.3644,-0.36,-0.36,-0.36,-0.36,-0.36,-0.36,-0.3689,-0.3928,-0.4316,-0.4857,-0.5421,1.6434,1.6092,1.5108,1.4878,1.5195,1.5479,1.5985,1.6658,1.624,1.6125,1.6026,1.5224,1.459,1.4051,1.2728,0.0,1.271,1.2781,1.331,1.4232,1.4646,1.4906,1.4923,1.3719,1.2813,1.228,1.0632,0.984,0.9825,0.9472,0.9291,0.9296,0.852,0.7769,0.7062,0.7364,0.7642,0.7905,0.8223,0.8368,0.8315,0.7752,0.7301,0.7013,0.6973,0.6966,0.6966,0.689,0.6662,0.625,0.5856,0.5383,0.4778,0.0,0.0,0.0,0.0,0.0,0.0,0.0,0.0,0.0,0.0,0.0,0.0,0.0,0.0,0.25,0.2901,0.0,0.2936,0.2783,0.0,0.0,0.0,0.1738,0.1455,0.1128,0.0685,0.01,0.0,0.0,0.0,0.0,0.0,0.0,0.0,0.0,0.0,0.0,0.0,0.0,0.0,0.0,0.0,0.0,-0.028,-0.0982,-0.1597,-0.1928,-0.2176,-0.2936,-0.347,-0.361,-0.3621,-0.3628,-0.361,-0.3624,-0.3631,-0.361,-0.36,-0.3751,-0.4264,-0.4722,-0.534,1.7595,1.7518,1.7239,1.6607,1.5819,1.6122,1.6442,1.6658,1.629,1.6125,1.6065,1.5498,1.4972,1.4434,1.3545,1.3279,1.3508,1.3745,1.4081,1.4514,1.5022,1.5148,1.4932,1.3746,1.2913,1.2374,1.0841,1.012,1.0172,1.0043,0.9799,0.953,0.943,0.892,0.8056,0.7881,0.7826,0.7905,0.8223,0.8174,0.7718,0.7343,0.7073,0.7,0.6787,0.6693,0.6687,0.648,0.6401,0.6488,0.6218,0.6081,0.6115,0.5513,0.0,0.0,0.0,0.0,0.0,0.0,0.0,0.0,0.0,0.2065,0.2355,0.0,0.2628,0.0,0.3084,0.3212,0.315,0.2974,0.0,0.0,0.2377,0.2061,0.1812,0.1398,0.0923,0.0371,0.014,0.0,0.0,0.0,0.0,0.0,0.0,0.0,0.0,0.0,0.0,0.0,0.0,0.0,0.0,0.0,0.0,-0.028,-0.0785,-0.1149,-0.1205,-0.2321,-0.3279,-0.3556,-0.3771,-0.3812,-0.3641,-0.3754,-0.3809,-0.3636,-0.36,-0.3707,-0.4092,-0.4461,-0.4879,1.8008,1.8008,1.8008,1.7557,1.6915,1.7098,1.7229,1.7233,1.6877,1.6574,1.6328,1.5693,1.5225,1.4925,1.4524,1.4391,1.4503,1.4668,1.483,1.4954,1.5079,1.4993,1.4677,1.346,1.2717,1.2286,1.1066,1.0498,1.0514,1.0498,1.0368,1.0136,1.0075,0.9866,0.9472,0.882,0.8362,0.816,0.8075,0.7812,0.7281,0.7108,0.6993,0.6993,0.674,0.6587,0.6587,0.6332,0.633,0.6579,0.6204,0.6092,0.6404,0.5687,0.5013,0.0,0.0,0.0,0.0,0.0,0.0,0.0,0.0,0.0,0.0,0.0,0.2876,0.3048,0.3212,0.3342,0.3465,0.3365,0.3303,0.3324,0.3173,0.289,0.2529,0.1934,0.1324,0.0782,0.0295,0.0,0.0,0.0,0.0,0.0,0.0,0.0,0.0,0.0,0.0,0.0,0.0,0.0,0.0,0.0,0.0,0.0,-0.0505,-0.0897,-0.0926,-0.2127,-0.3293,-0.3849,-0.4002,-0.3924,-0.3659,-0.3819,-0.3955,-0.3822,-0.3689,-0.3674,-0.3832,-0.4074,-0.4381,1.8008,1.8008,1.8008,1.8008,1.8008,1.8008,1.8008,1.7978,1.751,1.7021,1.6482,1.5722,1.542,1.542,1.542,1.542,1.542,1.542,1.542,1.5391,1.5039,1.4722,1.4354,1.3148,1.2421,1.2123,1.1285,1.0863,1.0871,1.0863,1.0847,1.0838,1.0581,1.059,1.0763,0.9816,0.9059,0.8488,0.7901,0.7382,0.7006,0.6993,0.6993,0.6986,0.6707,0.6553,0.6546,0.6256,0.6236,0.6512,0.6012,0.5865,0.6209,0.5488,0.4862,0.0,0.4152,0.0,0.0,0.0,0.0,0.0,0.0,0.0,0.0,0.3003,0.3103,0.3316,0.335,0.3489,0.3765,0.3809,0.3873,0.3977,0.3994,0.3795,0.3268,0.2524,0.182,0.1186,0.0457,0.0,0.0,0.0,0.0,0.0,0.0,0.0,0.0,0.0,0.0,0.0,0.0,0.0,0.0,0.0,0.0,0.0,-0.0505,-0.0869,-0.0897,-0.2125,-0.3403,-0.42,-0.4269,-0.3982,-0.3672,-0.3846,-0.4035,-0.4005,-0.3775,-0.361,-0.3648,-0.3774,-0.3858,1.8008,1.8008,1.8008,1.8008,1.8008,1.8008,1.8008,1.7959,1.7187,1.6375,1.5654,1.5488,1.542,1.542,1.542,1.542,1.542,1.542,1.542,1.542,1.5332,1.4974,1.4374,1.3497,1.285,1.2393,1.1592,1.1259,1.1377,1.1242,1.1133,1.1032,1.0864,1.0822,1.0863,0.0,0.0,0.0,0.7817,0.7356,0.7006,0.6993,0.6993,0.6986,0.6533,0.0,0.6263,0.5759,0.5726,0.6211,0.5916,0.0,0.0,0.0,0.0,0.0,0.0,0.0,0.0,0.0,0.0,0.0,0.4471,0.4071,0.3581,0.3503,0.3476,0.3556,0.3643,0.3731,0.3785,0.3907,0.3964,0.3991,0.3994,0.382,0.3399,0.2787,0.2078,0.119,0.0451,0.0,0.0,0.0,0.0,0.0,0.0,0.0,0.0,0.0,0.0,0.0,0.0,0.0,0.0,0.0,0.0,0.0,-0.0505,-0.0841,-0.0981,-0.2127,-0.338,-0.4294,-0.4447,-0.4221,-0.373,-0.4034,-0.4313,-0.4066,-0.3782,-0.36,-0.36,-0.3663,-0.3722,1.8008,1.8008,1.8008,1.8008,0.0,1.8008,1.8008,1.7969,1.7324,1.6562,1.5752,1.5508,1.542,1.542,1.542,1.542,1.542,1.542,1.542,1.54,1.5195,1.4742,1.4088,1.3248,1.2633,1.2191,1.1749,1.1601,1.1694,1.1601,1.1451,1.1234,1.0973,1.0846,1.083,1.0197,0.9368,0.8371,0.7759,0.7294,0.7021,0.6993,0.6993,0.6986,0.662,0.0,0.0,0.0,0.0,0.0,0.0,0.0,0.0,0.0,0.0,0.5545,0.5262,0.5051,0.5005,0.5087,0.5198,0.5382,0.5197,0.4759,0.3972,0.3727,0.3631,0.3699,0.3751,0.3853,0.3977,0.4065,0.4136,0.4226,0.4236,0.4105,0.372,0.323,0.2622,0.1738,0.0796,0.0168,0.0,0.0,0.0,0.0,0.0,0.0,0.0,0.0,0.0,0.0,0.0,0.0,0.0,0.0,0.0,0.0,-0.0449,-0.0785,-0.0869,-0.2125,-0.3408,-0.427,-0.4491,-0.4368,-0.4182,-0.4326,-0.4399,-0.4077,-0.3782,-0.361,-0.36,-0.3622,-0.3641,1.8008,1.8008,1.8008,1.7959,1.791,1.7978,1.7896,1.7764,0.0,0.0,0.0,1.5566,1.542,1.542,1.542,1.542,1.542,1.542,1.542,1.54,1.5059,1.4518,1.3819,1.3035,1.2448,1.2011,1.1916,1.1916,1.1977,1.1866,1.1683,1.141,1.1007,1.0705,1.0499,0.9659,0.8889,0.826,0.7688,0.7286,0.7,0.6993,0.6993,0.6993,0.674,0.6587,0.6587,0.6332,0.6324,0.6579,0.635,0.6324,0.656,0.6244,0.6019,0.5939,0.5857,0.5744,0.5684,0.5843,0.594,0.5926,0.5853,0.5332,0.4329,0.395,0.3776,0.3846,0.388,0.3978,0.417,0.4247,0.4304,0.4477,0.4491,0.4377,0.4049,0.371,0.3201,0.2517,0.151,0.0533,0.014,0.0,0.0,0.0,0.0,0.0,0.0,0.0,0.0,0.0,0.0,0.0,0.0,0.0,0.0,0.0,-0.0364,-0.0673,-0.0981,-0.1987,-0.3211,-0.4132,-0.4408,-0.4481,-0.4484,-0.4474,-0.4361,-0.4009,-0.3751,-0.36,-0.36,-0.36,-0.36,1.8008,1.8008,1.8008,1.7803,1.75,1.7861,1.7555,1.6882,1.6814,1.6287,1.5508,1.5439,1.542,1.542,1.542,1.542,1.542,1.542,1.542,1.5381,1.5342,1.4856,1.3982,1.3555,1.3027,1.2444,1.2289,1.2224,1.2224,1.1993,1.1744,1.1469,1.1091,1.0442,0.9604,0.8889,0.8245,0.7637,0.7524,0.7314,0.7021,0.6993,0.6993,0.6986,0.6747,0.6587,0.6587,0.6338,0.633,0.6586,0.635,0.6305,0.656,0.6326,0.6266,0.648,0.6448,0.6554,0.6757,0.6795,0.684,0.69,0.6876,0.6289,0.4922,0.453,0.4311,0.4168,0.4151,0.4143,0.4227,0.4358,0.446,0.4484,0.4491,0.4408,0.419,0.3938,0.3738,0.3658,0.2683,0.1512,0.0588,0.0168,0.0056,0.0112,0.0056,0.0,0.0,0.0,0.0,0.0,0.0,0.0,0.0,0.0,0.0,0.0,0.0,-0.0477,-0.0477,-0.1428,-0.2545,-0.3555,-0.4061,-0.4419,-0.4484,-0.4491,-0.4252,-0.3799,-0.3631,-0.36,-0.36,-0.36,-0.36,1.8008,1.8008,1.8008,1.7764,1.7373,1.7344,1.6953,1.6387,1.6367,1.6016,1.5449,1.542,1.542,1.542,1.542,1.542,1.542,1.542,1.542,1.542,1.542,1.4904,1.4109,1.3899,1.3422,1.2729,1.2652,1.2554,1.2397,1.2033,1.1701,1.1417,1.0739,0.9843,0.8837,0.8387,0.786,0.7265,0.7301,0.7217,0.7,0.6993,0.6993,0.6993,0.6894,0.6827,0.682,0.6693,0.6707,0.68,0.668,0.6687,0.6814,0.67,0.6687,0.6793,0.6827,0.686,0.6986,0.7174,0.7328,0.7412,0.743,0.7044,0.607,0.528,0.4749,0.459,0.4365,0.4254,0.4355,0.4453,0.4491,0.4491,0.4491,0.4463,0.4353,0.427,0.4211,0.4211,0.363,0.2657,0.1318,0.0617,0.0168,0.0112,0.0028,0.0,0.0,0.0,0.0,0.0,0.0,0.0,0.0,0.0,0.0,0.0,0.0,-0.0252,-0.0224,-0.084,-0.154,-0.2456,-0.3266,-0.3984,-0.4348,-0.4321,-0.4043,-0.3754,-0.36,-0.36,-0.36,-0.36,-0.36,1.8008,1.8008,1.8008,1.7764,1.7367,1.6807,1.6377,1.6105,1.6105,1.584,1.5439,1.542,1.542,1.542,1.542,1.542,1.542,1.542,1.542,1.542,1.542,1.4923,1.4172,1.4114,1.3675,1.2993,1.2915,1.2774,1.2529,1.2113,1.1688,1.127,1.0416,0.9447,0.8459,0.8187,0.7745,0.7188,0.7272,0.7223,0.7,0.6993,0.6993,0.6993,0.6993,0.6993,0.6993,0.6993,0.6993,0.6993,0.6993,0.6993,0.6993,0.6993,0.6993,0.6993,0.6993,0.7033,0.7141,0.7491,0.7746,0.7852,0.7916,0.7718,0.7124,0.6228,0.5408,0.5026,0.4559,0.4348,0.446,0.4487,0.4491,0.4491,0.4491,0.4491,0.4491,0.4491,0.4491,0.446,0.427,0.3633,0.2575,0.1484,0.07,0.0336,0.0168,0.014,0.0028,0.0028,0.0028,0.0,0.0,0.0,0.0,0.0,0.0,0.0,-0.0084,-0.0112,-0.0084,-0.0196,-0.0645,-0.1505,-0.2278,-0.3001,-0.3766,-0.3949,-0.3748,-0.352,-0.3534,-0.36,-0.36,-0.36,-0.36,1.8008,1.8008,1.8008,1.7764,1.7295,1.6506,1.6124,1.6085,1.6095,1.582,1.543,1.542,1.542,1.542,1.542,1.542,1.542,1.542,1.542,1.542,1.542,1.4923,1.4153,1.4114,1.3675,1.2993,1.2915,1.2808,1.2686,1.2397,1.185,1.1065,1.0455,0.9768,0.8968,0.8459,0.8017,0.7628,0.7649,0.7433,0.7021,0.6993,0.6993,0.6993,0.7,0.6993,0.6993,0.6993,0.6993,0.6993,0.6993,0.6993,0.6993,0.6993,0.6993,0.6993,0.7,0.7134,0.745,0.7986,0.8308,0.8343,0.8532,0.8396,0.7829,0.7382,0.6603,0.5517,0.4789,0.4467,0.4491,0.4491,0.4491,0.4491,0.4491,0.4491,0.4491,0.4491,0.4491,0.4491,0.4436,0.4377,0.3935,0.2822,0.1709,0.0953,0.0757,0.0504,0.014,0.014,0.014,0.0,0.0,0.0,0.0,0.0,0.0,0.0,0.0,0.0,0.0,0.0,-0.0252,-0.0836,-0.1235,-0.1781,-0.2303,-0.2842,-0.3271,-0.3186,-0.3309,-0.3578,-0.36,-0.36,-0.36,1.8008,1.8008,1.8008,1.7617,1.6882,1.6055,1.5674,1.5674,1.5674,1.5576,1.543,1.542,1.542,1.542,1.542,1.542,1.542,1.542,1.542,1.542,1.541,1.4933,1.4172,1.4114,1.3691,1.2964,1.2915,1.2881,1.2808,1.2725,1.2211,1.141,1.1006,1.0319,0.9347,0.8954,0.8622,0.8296,0.8296,0.8193,0.7972,0.7537,0.728,0.7245,0.716,0.707,0.7,0.6993,0.6993,0.6993,0.6993,0.6993,0.6993,0.6993,0.6993,0.7006,0.7188,0.7524,0.8,0.8261,0.8476,0.8643,0.8731,0.856,0.7925,0.7364,0.6637,0.5714,0.4928,0.4491,0.4491,0.4491,0.4491,0.4491,0.4491,0.4491,0.4491,0.4491,0.4491,0.4491,0.4491,0.4491,0.4349,0.3463,0.249,0.1789,0.1483,0.1091,0.042,0.0364,0.0336,0.0,0.0,0.0,0.0,0.0,0.0,0.0,0.0,0.0,0.0,0.0,0.0,0.0,0.0,0.0,-0.0843,-0.1483,-0.2039,-0.235,-0.3015,-0.3372,-0.3464,-0.3556,-0.3578,1.8008,1.7969,1.7764,1.7272,1.6629,1.5791,1.542,1.542,1.542,1.542,1.542,1.542,1.542,1.542,1.542,1.542,1.542,1.542,1.542,1.542,1.542,1.4991,1.4338,1.4289,1.3867,1.3164,1.3057,1.3023,1.2935,1.2915,1.2514,1.1846,1.1583,1.0931,0.9883,0.9598,0.9273,0.8886,0.8857,0.8857,0.8777,0.8239,0.7801,0.7538,0.737,0.7181,0.7,0.6993,0.6993,0.6993,0.6993,0.6993,0.6993,0.6993,0.704,0.714,0.7422,0.7846,0.8368,0.845,0.8584,0.8778,0.8778,0.856,0.7931,0.723,0.6524,0.5828,0.5007,0.4491,0.4491,0.4491,0.4491,0.4491,0.4491,0.4491,0.4491,0.4491,0.4491,0.4491,0.4491,0.4491,0.4405,0.3907,0.3239,0.2567,0.2207,0.1818,0.1064,0.0897,0.0673,0.0,0.0,0.0,0.0,0.0,0.0,0.0,0.0,0.0,0.0,0.0,0.0,0.0,0.0,0.0,0.0,-0.0675,-0.1124,-0.1749,-0.2464,-0.3087,-0.3236,-0.342,-0.3578,1.8008,1.7891,1.7106,1.6785,1.6629,1.5771,1.542,1.542,1.542,1.542,1.542,1.542,1.542,1.542,1.542,1.542,1.542,1.542,1.542,1.542,1.542,1.5176,1.4785,1.4746,1.4297,1.35,1.3428,1.3242,1.2935,1.2905,1.2656,1.2194,1.2056,1.1516,1.0576,1.0347,0.9937,0.9419,0.9364,0.9288,0.925,0.9047,0.859,0.7974,0.7614,0.7356,0.7063,0.6993,0.6993,0.6993,0.6993,0.6993,0.6993,0.7006,0.7161,0.7457,0.7736,0.8025,0.837,0.865,0.8751,0.8798,0.8778,0.856,0.7951,0.7251,0.6551,0.585,0.5038,0.4515,0.4519,0.4491,0.4491,0.4491,0.4491,0.4491,0.4491,0.4491,0.4491,0.4491,0.4491,0.4491,0.4491,0.4491,0.3962,0.3294,0.285,0.2541,0.2181,0.1681,0.0981,0.028,0.0,0.0,0.0,0.0,0.0,0.0,0.0,0.0,0.0,0.0,0.0,0.0,0.0,0.0,0.0,-0.0247,-0.0696,-0.1325,-0.2162,-0.2697,-0.2993,-0.3344,-0.3534,1.8008,1.7959,1.7393,1.6992,1.6638,1.6084,1.5703,1.542,1.542,1.542,1.542,1.542,1.542,1.542,1.542,1.542,1.542,1.542,1.542,1.542,1.542,1.5186,1.4842,1.4785,1.4492,1.3929,1.3643,1.3291,1.2954,1.2915,1.2656,1.2281,1.218,1.1814,1.1306,1.1166,1.086,1.0376,1.0329,1.0206,0.9931,0.9734,0.9397,0.8926,0.8206,0.7648,0.7259,0.7181,0.7091,0.7,0.6993,0.6993,0.7013,0.7201,0.7464,0.7749,0.8043,0.8343,0.8611,0.8751,0.8778,0.8778,0.8778,0.8613,0.8076,0.7423,0.6723,0.6073,0.5258,0.4763,0.4629,0.4546,0.4491,0.4491,0.4491,0.4491,0.4491,0.4491,0.4491,0.4491,0.4491,0.4491,0.4491,0.4491,0.4349,0.4045,0.3738,0.3463,0.3241,0.2597,0.1593,0.056,0.0,0.0,0.0,0.0,0.0,0.0,0.0,0.0,0.0,0.0,0.0,0.0,0.0,0.0,0.0,0.0,0.0,-0.0751,-0.1596,-0.2301,-0.2743,-0.3184,-0.3475,1.8008,1.7949,1.7559,1.7217,1.6875,1.6349,1.5928,1.5605,1.5478,1.542,1.542,1.542,1.542,1.542,1.542,1.542,1.542,1.542,1.542,1.542,1.542,1.5254,1.5029,1.499,1.4756,1.4307,1.376,1.3291,1.2954,1.2915,1.2734,1.2461,1.2418,1.2217,1.1868,1.1768,1.1553,1.1191,1.0986,1.0741,1.0498,1.0175,0.9892,0.9527,0.8817,0.8131,0.7587,0.7391,0.7202,0.7021,0.6993,0.7046,0.7174,0.7377,0.7672,0.8036,0.8281,0.8529,0.8758,0.8778,0.8778,0.8778,0.8778,0.8646,0.8268,0.7676,0.7052,0.6426,0.5632,0.5034,0.4822,0.4656,0.4491,0.4491,0.4491,0.4491,0.4491,0.4491,0.4491,0.4491,0.4491,0.4491,0.4491,0.4491,0.4487,0.4491,0.4242,0.4107,0.4021,0.3264,0.2263,0.1203,0.0617,0.0,0.0,0.0,0.0,0.0,0.0,0.0,0.0,0.0,0.0,0.0,0.0,0.0,0.0,0.0,0.0,0.0,-0.0935,-0.1696,-0.2345,-0.3092,-0.3389,1.8008,1.7959,1.7602,1.7393,1.7227,1.6545,1.6134,1.5987,1.5615,1.5459,1.542,1.542,1.542,1.542,1.542,1.542,1.542,1.542,1.542,1.542,1.542,1.541,1.5361,1.5352,1.5127,1.4697,1.3926,1.332,1.2983,1.2935,1.2876,1.2886,1.2846,1.2607,1.2213,1.2194,1.2002,1.1614,1.1221,1.0986,1.0839,1.0456,1.0115,0.9869,0.9493,0.8891,0.8023,0.7697,0.7398,0.7084,0.7021,0.7161,0.741,0.7511,0.7765,0.8261,0.8402,0.8556,0.8758,0.8778,0.8778,0.8778,0.8778,0.8672,0.8401,0.7969,0.7456,0.6885,0.6109,0.5458,0.5128,0.4781,0.4532,0.4491,0.4491,0.4491,0.4491,0.4491,0.4491,0.4491,0.4491,0.4491,0.4491,0.4491,0.4491,0.4463,0.4356,0.4273,0.4325,0.3683,0.2907,0.2238,0.1485,0.0841,0.0505,0.0,0.0,0.0,0.0,0.0,0.0,0.0,0.0,0.0,0.0,0.0,0.0,0.0,0.0,0.0,0.0,-0.1219,-0.1902,-0.2623,-0.338,1.8008,1.7998,1.7871,1.7646,1.7406,1.7112,1.6682,1.6114,1.5908,1.5723,1.5449,1.542,1.542,1.542,1.542,1.542,1.542,1.542,1.542,1.542,1.542,1.542,1.542,1.542,1.5195,1.4756,1.4219,1.3695,1.332,1.3042,1.2915,1.2915,1.2915,1.2822,1.2676,1.2666,1.2461,1.207,1.1872,1.1658,1.1418,1.1199,1.0932,1.0579,1.0326,0.9817,0.9016,0.8341,0.7835,0.7524,0.7384,0.7432,0.7575,0.7721,0.7969,0.8355,0.8571,0.8697,0.8784,0.8778,0.8778,0.8778,0.8778,0.8718,0.8553,0.8242,0.7842,0.7376,0.6714,0.6151,0.5665,0.5205,0.4879,0.4556,0.4491,0.4491,0.4491,0.4491,0.4491,0.4491,0.4491,0.4491,0.4491,0.4491,0.4491,0.4491,0.4436,0.4436,0.438,0.4215,0.391,0.3438,0.2434,0.1429,0.1008,0.0,0.0,0.0,0.0,0.0,0.0,0.0,0.0,0.0,0.0,0.0,0.0,0.0,0.0,0.0,0.0,-0.0977,-0.1489,-0.2107,-0.2779,1.8008,1.8008,1.8008,1.7861,1.7598,1.7494,1.7112,1.6564,1.6232,1.5938,1.5664,1.5478,1.542,1.542,1.542,1.542,1.542,1.542,1.542,1.542,1.542,1.542,1.542,1.542,1.5195,1.4766,1.4309,1.389,1.3506,1.312,1.2915,1.2915,1.2915,1.2905,1.2915,1.2905,1.2725,1.248,1.2281,1.2067,1.1836,1.1685,1.1447,1.117,1.0983,1.0543,0.9892,0.9295,0.8692,0.8165,0.7905,0.7903,0.808,0.8123,0.823,0.8504,0.8691,0.8778,0.8778,0.8778,0.8778,0.8778,0.8778,0.8752,0.8666,0.848,0.8267,0.7991,0.7527,0.7069,0.6553,0.5864,0.5351,0.4924,0.4633,0.4522,0.4491,0.4491,0.4491,0.4491,0.4491,0.4491,0.4491,0.4491,0.4491,0.4491,0.4491,0.4491,0.4491,0.4491,0.4325,0.4132,0.3574,0.2569,0.1593,0.0,0.0,0.0,0.0,0.0,0.0,0.0,0.0,0.0,0.0,0.0,0.0,0.0,0.0,0.0,0.0,-0.0639,-0.1047,-0.134,-0.2035,1.8076,1.8076,1.8076,1.81,1.8031,1.7674,1.7419,1.7191,1.6515,1.6105,1.5928,1.5557,1.542,1.542,1.542,1.542,1.542,1.542,1.542,1.542,1.542,1.542,1.542,1.542,1.5225,1.4853,1.4348,1.3919,1.3603,1.315,1.2915,1.2915,1.2915,1.2915,1.2915,1.2915,1.2895,1.2807,1.248,1.2272,1.2233,1.1937,1.1694,1.1633,1.1504,1.1159,1.0637,1.0372,0.9813,0.8906,0.8538,0.8602,0.8839,0.8664,0.8553,0.879,0.8798,0.8778,0.8778,0.8778,0.8778,0.8778,0.8778,0.8778,0.8752,0.8732,0.8698,0.8614,0.8357,0.8012,0.7452,0.6702,0.5957,0.542,0.4836,0.4522,0.4491,0.4491,0.4491,0.4491,0.4491,0.4491,0.4491,0.4491,0.4491,0.4491,0.4491,0.4491,0.4491,0.4491,0.4491,0.4322,0.4073,0.3378,0.2291,0.0,0.0,0.0,0.0,0.0,0.0,0.0,0.0,0.0,0.0,0.0,0.0,0.0,0.0,0.0,0.0,0.0,-0.0633,-0.1003,-0.1651,1.8808,1.8798,1.8808,1.8741,1.8563,1.8308,1.7757,1.7115,1.6711,1.6182,1.5684,1.5469,1.542,1.542,1.542,1.542,1.542,1.542,1.542,1.542,1.542,1.542,1.542,1.542,1.5361,1.5137,1.4455,1.4019,1.389,1.3223,1.2925,1.2915,1.2915,1.2915,1.2915,1.2915,1.2915,1.2895,1.2817,1.2695,1.2676,1.2612,1.2373,1.207,1.2005,1.1746,1.1359,1.1267,1.0659,0.9478,0.9346,0.9345,0.9419,0.9008,0.879,0.8894,0.8857,0.8778,0.8778,0.8778,0.8778,0.8778,0.8778,0.8778,0.8778,0.8778,0.8765,0.8708,0.8633,0.84,0.7712,0.7143,0.6351,0.525,0.4761,0.4519,0.4491,0.4491,0.4491,0.4491,0.4491,0.4491,0.4491,0.4491,0.4491,0.4491,0.4491,0.4491,0.4491,0.4491,0.4491,0.4491,0.4267,0.3713,0.2764,0.1091,0.0,0.0,0.0,0.0,0.0,0.0,0.0,0.0,0.0,0.0,0.0,0.0,0.0,0.0,0.0,0.0,0.0,-0.0925,-0.1651,1.9737,1.9737,1.9737,1.9584,1.933,1.8998,1.8334,1.749,1.6914,1.6317,1.5752,1.5478,1.542,1.542,1.542,1.542,1.542,1.542,1.542,1.542,1.542,1.542,1.542,1.542,1.542,1.5284,1.4513,1.4153,1.3948,1.3291,1.2954,1.2915,1.2915,1.2915,1.2915,1.2915,1.2915,1.2905,1.2915,1.2915,1.2915,1.2915,1.2798,1.2539,1.25,1.2295,1.1914,1.1846,1.1398,1.0669,1.0417,1.0295,1.0179,0.9577,0.9234,0.9185,0.8962,0.8778,0.8778,0.8778,0.8778,0.8778,0.8778,0.8778,0.8778,0.8785,0.8765,0.8889,0.8976,0.872,0.8271,0.7645,0.6587,0.5452,0.4897,0.4712,0.4546,0.4491,0.4491,0.4491,0.4491,0.4491,0.4491,0.4491,0.4491,0.4491,0.4491,0.4491,0.4491,0.4491,0.4491,0.4491,0.4436,0.3962,0.3072,0.1539,0.0336,0.0,0.0,0.0,0.0,0.0,0.0,0.0,0.0,0.0,0.0,0.0,0.0,0.0,0.0,0.0,0.0,-0.0617,-0.1399,2.0719,2.073,2.073,2.0494,2.0117,1.9575,1.8856,1.8108,1.7176,1.6491,1.6038,1.5645,1.5507,1.542,1.5439,1.542,1.542,1.542,1.542,1.542,1.542,1.542,1.542,1.542,1.5361,1.5157,1.4475,1.4114,1.3821,1.3223,1.2944,1.2915,1.2915,1.2915,1.2915,1.2915,1.2915,1.2915,1.2915,1.2915,1.2915,1.2915,1.2876,1.2856,1.2827,1.2656,1.2369,1.2248,1.2103,1.1902,1.1531,1.1248,1.104,1.0303,0.9736,0.938,0.9035,0.8778,0.8778,0.8778,0.8778,0.8785,0.8818,0.8825,0.8884,0.8918,0.9004,0.921,0.921,0.9171,0.8982,0.8074,0.6991,0.6011,0.5485,0.5072,0.4681,0.4529,0.4491,0.4491,0.4491,0.4491,0.4491,0.4491,0.4491,0.4491,0.4491,0.4491,0.4491,0.4491,0.4491,0.4491,0.438,0.4242,0.3186,0.1987,0.098,0.0,0.0,0.0,0.0,0.0,0.0,0.0,0.0,0.0,0.0,0.0,0.0,0.0,0.0,0.0,-0.0308,-0.0336,-0.0812,2.1396,2.1385,2.1396,2.1175,2.078,1.9914,1.911,1.8369,1.7378,1.6696,1.6162,1.5885,1.5739,1.5643,1.5478,1.542,1.542,1.542,1.542,1.542,1.542,1.542,1.542,1.542,1.5234,1.4902,1.4377,1.3948,1.3568,1.3203,1.2915,1.2915,1.2915,1.2915,1.2915,1.2915,1.2915,1.2915,1.2915,1.2915,1.2915,1.2915,1.2915,1.2915,1.2915,1.2876,1.2773,1.2744,1.271,1.258,1.2246,1.1849,1.1359,1.0584,0.9987,0.9562,0.9087,0.8778,0.8778,0.8778,0.8778,0.8798,0.8964,0.9124,0.9124,0.9198,0.9345,0.9512,0.9466,0.9436,0.932,0.861,0.7724,0.6944,0.6386,0.5823,0.5195,0.4734,0.4539,0.4491,0.4491,0.4491,0.4491,0.4491,0.4491,0.4491,0.4491,0.4491,0.4491,0.4491,0.4491,0.4491,0.4436,0.4298,0.3713,0.2543,0.1456,0.0617,0.028,0.0,0.0,0.0,0.0,0.0,0.0,0.0,0.0,0.0,0.0,0.0,0.0,0.0,-0.0168,-0.014,-0.0196,2.2279,2.2286,2.2013,2.1722,2.1285,2.0319,1.9455,1.8721,1.7958,1.724,1.6641,1.6322,1.6075,1.5865,1.5565,1.542,1.542,1.542,1.542,1.542,1.542,1.542,1.542,1.5381,1.5195,1.4766,1.4309,1.389,1.3496,1.314,1.2915,1.2915,1.2915,1.2915,1.2915,1.2915,1.2915,1.2915,1.2915,1.2915,1.2915,1.2915,1.2915,1.2915,1.2915,1.2915,1.2895,1.2905,1.2905,1.2856,1.2676,1.2323,1.1744,1.0964,1.0287,0.9788,0.9159,0.8831,0.8778,0.8778,0.8778,0.8791,0.9051,0.9137,0.9231,0.9332,0.9479,0.9662,0.9679,0.9678,0.959,0.9174,0.8469,0.7927,0.7339,0.6632,0.5814,0.5117,0.4671,0.457,0.4491,0.4491,0.4491,0.4491,0.4491,0.4491,0.4491,0.4491,0.4491,0.4491,0.4491,0.4491,0.4491,0.4353,0.4018,0.31,0.1903,0.112,0.0561,0.0224,0.0,0.0,0.0,0.0,0.0,0.0,0.0,0.0,0.0,0.0,0.0,0.0,0.0,0.0,0.0,2.3095,2.3058,2.2535,2.2147,2.1673,2.0641,1.9809,1.9202,1.8589,1.7907,1.7351,1.6849,1.6521,1.6189,1.5758,1.5565,1.5565,1.5594,1.5652,1.5652,1.5652,1.5642,1.5613,1.5584,1.526,1.478,1.4316,1.387,1.3398,1.3086,1.2925,1.2915,1.2915,1.2915,1.2915,1.2915,1.2915,1.2915,1.2915,1.2915,1.2915,1.2915,1.2915,1.2915,1.2915,1.2915,1.2915,1.2915,1.2915,1.2915,1.2915,1.2627,1.2116,1.1342,1.0626,1.0072,0.9342,0.8929,0.8857,0.8837,0.8818,0.8831,0.9124,0.9311,0.9391,0.9593,0.9782,0.9896,1.001,1.0057,0.9846,0.9626,0.9273,0.8795,0.8244,0.7486,0.6547,0.5707,0.5223,0.4577,0.4491,0.4491,0.4491,0.4491,0.4491,0.4491,0.4491,0.4491,0.4491,0.4491,0.4491,0.4491,0.4491,0.4491,0.4211,0.3824,0.2599,0.168,0.1008,0.0477,0.0,0.0,0.0,0.0,0.0,0.0,0.0,0.0,0.0,0.0,0.0,0.0,0.0,0.0,0.0,2.3095,2.3058,2.2535,2.2193,2.1828,2.062,1.9884,1.957,1.8893,1.8332,1.7941,1.749,1.7129,1.6803,1.6371,1.6181,1.6189,1.6189,1.62,1.62,1.6189,1.6189,1.6189,1.6054,1.5525,1.473,1.4281,1.3786,1.3174,1.2925,1.2915,1.2915,1.2915,1.2915,1.2915,1.2915,1.2915,1.2915,1.2915,1.2915,1.2915,1.2915,1.2915,1.2915,1.2915,1.2915,1.2915,1.2915,1.2915,1.2915,1.2915,1.2744,1.2404,1.1688,1.1031,1.031,0.9595,0.914,0.9056,0.8884,0.8945,0.9152,0.9439,0.9713,0.989,1.0154,1.0258,1.0345,1.0405,1.0452,1.0452,1.0197,0.9963,0.9562,0.9068,0.8389,0.7499,0.6717,0.5856,0.4908,0.4668,0.4491,0.4491,0.4491,0.4491,0.4491,0.4491,0.4491,0.4491,0.4491,0.4491,0.4491,0.4491,0.4491,0.4432,0.4101,0.338,0.2378,0.1595,0.0728,0.0,0.0,0.0,0.0,0.0,0.0,0.0,0.0,0.0,0.0,0.0,0.0,0.0,0.0,0.0,2.3095,2.302,2.2234,2.1854,2.1594,2.0434,1.9857,1.9752,1.9401,1.9054,1.8697,1.8309,1.7918,1.7589,1.7185,1.6989,1.6961,1.6972,1.6972,1.6961,1.6961,1.6961,1.6933,1.6754,1.5934,1.5141,1.4558,1.3872,1.2983,1.2915,1.2915,1.2915,1.2915,1.2915,1.2915,1.2915,1.2915,1.2915,1.2915,1.2915,1.2915,1.2915,1.2915,1.2915,1.2915,1.2915,1.2915,1.2915,1.2915,1.2954,1.3111,1.3074,1.2865,1.2533,1.1887,1.0919,1.0032,0.9532,0.9394,0.9221,0.9172,0.9452,0.974,0.9947,1.014,1.0334,1.0573,1.0586,1.0586,1.0586,1.0566,1.0498,1.0364,1.0199,0.9786,0.9177,0.8492,0.7808,0.67,0.5486,0.5063,0.4815,0.4491,0.4491,0.4491,0.4491,0.4491,0.4491,0.4491,0.4491,0.4491,0.4491,0.4491,0.4491,0.4491,0.4294,0.3938,0.3044,0.2237,0.1343,0.0,0.0,0.0,0.0,0.0,0.0,0.0,0.0,0.0,0.0,0.0,0.0,0.0,0.0,0.0,2.3095,2.302,2.2058,2.1656,2.1468,2.0451,1.9999,1.9949,1.9823,1.9604,1.9408,1.8977,1.8647,1.8367,1.8027,1.7781,1.7797,1.7809,1.7781,1.7781,1.7793,1.7809,1.7704,1.7284,1.6579,1.5519,1.4909,1.415,1.3126,1.2915,1.2915,1.2915,1.2915,1.2915,1.2915,1.2915,1.2915,1.2915,1.2915,1.2915,1.2915,1.2915,1.2915,1.2915,1.2915,1.2915,1.2915,1.2915,1.2993,1.3096,1.3301,1.3474,1.3471,1.3565,1.2974,1.1766,1.0757,1.0333,1.0084,0.9799,0.9742,1.0009,1.0123,1.0198,1.0285,1.049,1.0586,1.0586,1.0586,1.0586,1.0586,1.0586,1.0561,1.0491,1.0238,0.9843,0.9267,0.8562,0.7708,0.6657,0.5797,0.5188,0.484,0.4491,0.4491,0.4491,0.4491,0.4491,0.4491,0.4491,0.4491,0.4491,0.4491,0.4491,0.4491,0.4491,0.4101,0.3519,0.2822,0.2124,0.1287,0.0,0.0,0.0,0.0,0.0,0.0,0.0,0.0,0.0,0.0,0.0,0.0,0.0,0.0,2.3095,2.3045,2.2472,2.2221,2.202,2.1018,2.0591,2.0528,2.0062,1.9708,1.9713,1.9328,1.9165,1.8955,1.8703,1.8518,1.8494,1.8483,1.8509,1.8498,1.8509,1.8486,1.8335,1.7611,1.6893,1.597,1.5256,1.4152,1.3335,1.3041,1.2954,1.2954,1.3052,1.2959,1.3091,1.3229,1.2915,1.2949,1.2949,1.2929,1.2929,1.2929,1.2929,1.2915,1.2905,1.2915,1.2925,1.2964,1.3066,1.3379,1.3477,1.3685,1.3931,1.4012,1.3897,1.323,1.2408,1.1479,1.1235,1.0855,1.0624,1.0738,1.0701,1.0652,1.0588,1.0551,1.0586,1.0586,1.0586,1.0586,1.0586,1.0586,1.0586,1.053,1.0403,1.0136,0.9723,0.9348,0.8468,0.7787,0.6885,0.5872,0.5207,0.4805,0.4491,0.4491,0.4491,0.4491,0.4491,0.4491,0.4491,0.4491,0.4491,0.4491,0.4491,0.4491,0.427,0.3827,0.335,0.2822,0.2265,0.1624,0.0,0.0,0.0924,0.0,0.0,0.0,0.0,0.0,0.0,0.0,0.0,0.0,0.0,2.3095,2.3045,2.2506,2.2322,2.2171,2.1157,2.088,2.0993,2.0566,2.045,2.0607,2.0575,2.0318,1.9927,1.9822,1.9599,1.9352,1.9226,1.9253,1.9226,1.9214,1.9118,1.8762,1.8228,1.7509,1.64,1.5731,1.5069,1.4127,1.3501,1.332,1.3371,1.3573,1.3749,1.3784,1.4008,1.3947,1.3749,1.3482,1.3282,1.32,1.3128,1.3065,1.3012,1.2929,1.2915,1.2964,1.3154,1.3291,1.3603,1.3877,1.4297,1.4521,1.4679,1.476,1.4544,1.3918,1.3171,1.252,1.2028,1.1833,1.1684,1.1448,1.1129,1.085,1.0656,1.0586,1.0586,1.0586,1.0593,1.06,1.0586,1.0586,1.0561,1.0498,1.0428,1.0168,0.9849,0.9288,0.8651,0.8044,0.7238,0.6363,0.5789,0.5305,0.4823,0.4733,0.4615,0.4553,0.4491,0.4491,0.4491,0.4491,0.4491,0.4491,0.4491,0.4411,0.4076,0.3824,0.3405,0.3269,0.2907,0.2657,0.2434,0.2179,0.0,0.0,0.0,0.0,0.0,0.0,0.0,0.0,0.0,0.0,2.3095,2.307,2.2656,2.2481,2.2406,2.1509,2.1345,2.1594,2.1131,2.1131,2.137,2.1292,2.0991,2.0717,2.0425,2.0046,1.9785,1.9798,1.9798,1.9798,1.9761,1.9546,1.9182,1.8758,1.7946,1.6703,1.6315,1.5637,1.4992,1.4541,1.4344,1.4108,1.4683,1.4829,1.4956,1.5131,1.5167,1.4896,1.4584,1.4348,1.4115,1.3762,1.3561,1.3326,1.3106,1.2954,1.3066,1.3291,1.3486,1.4004,1.4375,1.4727,1.4941,1.5146,1.5225,1.509,1.4751,1.4434,1.3794,1.3313,1.294,1.2629,1.2151,1.1478,1.0888,1.0719,1.0692,1.072,1.0613,1.064,1.0667,1.066,1.0586,1.0586,1.0586,1.0586,1.0523,1.0174,0.9983,0.9658,0.9236,0.9107,0.8211,0.7195,0.6342,0.5434,0.5012,0.4807,0.4646,0.4525,0.4522,0.4522,0.4491,0.4491,0.4491,0.4463,0.4384,0.4301,0.4076,0.3962,0.3796,0.3771,0.363,0.3461,0.3239,0.0,0.0,0.0,0.0,0.0,0.0,0.0,0.0,0.0,0.0,2.3095,2.3095,2.3045,2.3007,2.297,2.246,2.2196,2.2196,2.1681,2.1468,2.1521,2.1081,2.093,2.0616,2.0277,1.9974,1.9798,1.9798,1.9798,1.9798,1.9786,1.971,1.9409,1.8921,1.8339,1.7495,1.6881,1.6203,1.5761,1.5928,1.5669,1.5508,1.5933,1.6162,1.6227,1.623,1.63,1.6121,1.5941,1.5806,1.5411,1.4928,1.4369,1.3955,1.3407,1.3057,1.3428,1.3535,1.3867,1.4482,1.4784,1.5019,1.5234,1.5352,1.5381,1.5332,1.5303,1.509,1.478,1.4273,1.3798,1.329,1.266,1.1954,1.1379,1.0964,1.0887,1.0981,1.0822,1.0794,1.0827,1.0794,1.068,1.0586,1.0586,1.0586,1.0555,1.0428,1.0301,1.0396,1.0238,0.9913,0.9843,0.8759,0.7299,0.6309,0.5389,0.5116,0.4755,0.4622,0.4556,0.4553,0.4491,0.4491,0.4519,0.4491,0.4436,0.4467,0.4353,0.4325,0.4322,0.4322,0.4215,0.4159,0.3796,0.288,0.0,0.0,0.0,0.0,0.0,0.0,0.0,0.0,0.0,2.3095,2.3095,2.3095,2.3095,2.307,2.2518,2.2481,2.2669,2.2234,2.1995,2.197,2.1744,2.132,2.0767,2.0503,2.0112,1.9849,1.9798,1.9798,1.9798,1.9786,1.9623,1.9346,1.9008,1.8423,1.7703,1.72,1.6771,1.6276,1.6957,1.7275,1.7267,1.722,1.7206,1.7262,1.7301,1.7275,1.7182,1.6985,1.6698,1.633,1.5856,1.5228,1.4542,1.3962,1.3581,1.3653,1.3769,1.4219,1.4678,1.501,1.5225,1.5361,1.54,1.542,1.542,1.542,1.542,1.54,1.5039,1.474,1.429,1.359,1.283,1.2198,1.1894,1.1521,1.1357,1.1136,1.1115,1.0975,1.0928,1.0827,1.0667,1.0586,1.0586,1.0555,1.046,1.046,1.0491,1.0498,1.0364,1.0364,1.0312,0.8694,0.721,0.6247,0.5416,0.5033,0.5012,0.5155,0.491,0.4808,0.4908,0.4928,0.4763,0.4546,0.4574,0.4574,0.4519,0.4491,0.4463,0.438,0.4408,0.4408,0.3769,0.2989,0.2125,0.0,0.0,0.0,0.0,0.0,0.0,0.0,2.3095,2.3095,2.3095,2.3095,2.3045,2.2694,2.2732,2.2995,2.2706,2.2447,2.228,2.2133,2.1568,2.0855,2.0453,2.0239,1.9874,1.9798,1.9798,1.9798,1.9748,1.9572,1.9346,1.9146,1.8882,1.8041,1.7827,1.7581,1.7122,1.7981,1.8223,1.8301,1.8448,1.8425,1.8422,1.8396,1.8384,1.8301,1.8109,1.7769,1.7516,1.6977,1.6384,1.5534,1.4721,1.4302,1.4196,1.4281,1.4414,1.4873,1.5225,1.5371,1.541,1.542,1.542,1.542,1.542,1.542,1.54,1.5438,1.5365,1.4943,1.4567,1.3899,1.3339,1.2796,1.2299,1.1847,1.1621,1.1438,1.1216,1.1122,1.0942,1.0807,1.062,1.0586,1.0586,1.0555,1.0555,1.0555,1.0561,1.0561,1.0428,1.0351,0.9382,0.7976,0.7141,0.6131,0.5302,0.549,0.6116,0.5731,0.5247,0.5378,0.5473,0.5117,0.4818,0.4818,0.4791,0.4546,0.4491,0.4491,0.4491,0.4463,0.4463,0.4491,0.3959,0.31,0.1873,0.0,0.0,0.0,0.0,0.0,0.0,2.3138,2.3095,2.3125,2.3125,2.3155,2.3083,2.3083,2.3095,2.3045,2.2706,2.218,2.1782,2.1217,2.0629,2.0151,1.9911,1.9849,1.9798,1.9798,1.9798,1.9798,1.9761,1.9736,1.9585,1.9271,1.9058,1.8732,1.8381,1.8005,1.8531,1.8832,1.9033,1.917,1.9481,1.9671,1.9709,1.9709,1.9697,1.9558,1.929,1.8922,1.8249,1.7587,1.6729,1.5575,1.5085,1.5098,1.4667,1.4812,1.5319,1.5409,1.5468,1.5449,1.542,1.542,1.542,1.542,1.542,1.5449,1.565,1.5668,1.5554,1.5301,1.4913,1.4115,1.353,1.299,1.26,1.204,1.1824,1.1633,1.1396,1.1169,1.0962,1.0821,1.0707,1.072,1.0687,1.0707,1.0613,1.0586,1.0555,1.0396,1.0135,0.9574,0.8713,0.7949,0.7027,0.6106,0.6295,0.7131,0.7315,0.6747,0.6473,0.6493,0.5525,0.512,0.5093,0.4956,0.468,0.4515,0.4491,0.4491,0.4491,0.4491,0.4491,0.438,0.4132,0.2959,0.19,0.1008,0.0,0.0,0.0,0.0,2.3767,2.378,2.378,2.3767,2.3721,2.3275,2.3095,2.3095,2.3045,2.2606,2.187,2.1571,2.0928,2.025,1.9975,1.9824,1.9837,1.9798,1.9798,1.9798,1.9798,1.9798,1.9798,1.9748,1.9509,1.9146,1.8958,1.8794,1.8166,1.8819,1.8983,1.9133,1.9535,1.9761,1.9786,1.9798,1.9798,1.9798,1.976,1.9683,1.9514,1.9031,1.844,1.7678,1.6572,1.6086,1.6084,1.5442,1.5464,1.5812,1.5845,1.57,1.5594,1.5507,1.542,1.542,1.542,1.5566,1.585,1.6169,1.6369,1.6252,1.6201,1.5999,1.5658,1.5016,1.4285,1.3314,1.2542,1.2201,1.1839,1.1765,1.1584,1.1329,1.1162,1.1029,1.0982,1.0935,1.0874,1.068,1.0586,1.0586,1.0491,1.0428,0.9914,0.9581,0.8874,0.8434,0.7624,0.7841,0.8424,0.8941,0.8794,0.8207,0.7594,0.6639,0.5837,0.5637,0.5254,0.4763,0.4625,0.4519,0.4491,0.4491,0.4491,0.4491,0.4408,0.4298,0.4128,0.3375,0.2347,0.1371,0.0952,0.0504,0.0,2.4538,2.4551,2.4551,2.4538,2.4423,2.3767,2.3454,2.3454,2.3429,2.2932,2.2263,2.1916,2.1356,2.059,2.0118,1.9952,1.9939,1.9888,1.9837,1.9798,1.9798,1.9798,1.9798,1.9786,1.9648,1.9321,1.9233,1.9083,1.8882,1.9145,1.9284,1.9409,1.9623,1.9761,1.9798,1.9798,1.9798,1.9798,1.9798,1.9773,1.9656,1.94,1.9094,1.8414,1.7722,1.7191,1.6886,1.658,1.6259,1.6357,1.6247,1.6046,1.5826,1.5594,1.5439,1.542,1.5449,1.5644,1.6046,1.6455,1.6646,1.6876,1.7015,1.6994,1.6729,1.5939,1.5114,1.4176,1.32,1.2635,1.2303,1.2242,1.191,1.1653,1.1518,1.1384,1.1281,1.1226,1.1038,1.0841,1.0593,1.0586,1.0586,1.0586,1.0395,1.014,0.9869,0.9451,0.9065,0.9236,0.9389,0.975,0.9939,0.9251,0.8512,0.7777,0.7003,0.6295,0.5713,0.5136,0.4625,0.4491,0.4491,0.4491,0.4491,0.4491,0.4491,0.4405,0.4267,0.399,0.3405,0.2486,0.1621,0.0924,0.0336,2.5425,2.5439,2.5425,2.5398,2.5259,2.4567,2.4205,2.416,2.4147,2.3832,2.331,2.2732,2.2154,2.1472,2.0821,2.0423,2.0233,2.0105,1.9939,1.9837,1.9798,1.9798,1.9798,1.9786,1.9723,1.9761,1.971,1.9585,1.9723,1.9648,1.9673,1.9723,1.9748,1.9798,1.9798,1.9798,1.9798,1.9798,1.9798,1.9798,1.9734,1.9747,1.9503,1.9021,1.8514,1.8175,1.787,1.7527,1.7222,1.706,1.6793,1.6436,1.6075,1.5671,1.5497,1.542,1.542,1.5684,1.6163,1.656,1.697,1.7301,1.7538,1.7478,1.7182,1.6707,1.6018,1.5065,1.4106,1.3462,1.2953,1.2568,1.2187,1.2037,1.1873,1.1778,1.1675,1.1514,1.1251,1.101,1.069,1.0624,1.0586,1.0586,1.0649,1.0465,1.0254,1.0228,0.9936,1.003,1.0165,1.021,1.0233,0.9942,0.9291,0.8586,0.796,0.7198,0.6314,0.567,0.5107,0.4546,0.4491,0.4491,0.4491,0.4491,0.4491,0.4491,0.4463,0.4156,0.3852,0.3294,0.2317,0.1399,0.0756,2.6041,2.6041,2.6027,2.6027,2.6,2.5755,2.5425,2.5077,2.5035,2.4708,2.415,2.3973,2.3279,2.234,2.2001,2.1341,2.0791,2.0372,2.0067,1.9927,1.9798,1.9798,1.9798,1.9798,1.9798,1.9798,1.9798,1.9798,1.9786,1.9811,1.9836,1.9786,1.9949,1.9911,1.9899,1.9823,1.9886,1.9861,1.9886,1.9798,1.9798,1.9798,1.9682,1.9427,1.912,1.8871,1.8649,1.8384,1.8086,1.7791,1.7407,1.7,1.6609,1.6075,1.57,1.5449,1.5488,1.5673,1.6356,1.6629,1.6999,1.7617,1.7862,1.7891,1.7725,1.7407,1.6862,1.5948,1.518,1.4581,1.3716,1.3165,1.2748,1.2427,1.2409,1.2535,1.2465,1.2369,1.2029,1.1065,1.0782,1.0719,1.0681,1.0713,1.0776,1.0649,1.0586,1.0618,1.0586,1.0618,1.0586,1.0586,1.0488,1.0188,0.989,0.9295,0.871,0.8086,0.7208,0.6261,0.5461,0.4962,0.4636,0.4487,0.4515,0.4515,0.4491,0.4491,0.4491,0.4436,0.4159,0.3655,0.3072,0.2235,0.1344,2.6826,2.6826,2.6811,2.6811,2.6826,2.6826,2.6575,2.6242,2.5933,2.553,2.5194,2.4941,2.4297,2.3395,2.2799,2.2015,2.0957,2.0585,2.0232,1.9875,1.9836,1.9798,1.9798,1.9798,1.9798,1.9798,1.9798,1.9798,1.9861,2.0075,2.0189,2.0226,2.03,2.0439,2.0526,2.0616,2.0578,2.0351,2.0125,1.9886,1.9823,1.9823,1.9759,1.9682,1.9474,1.9396,1.9291,1.9107,1.8922,1.859,1.8174,1.771,1.7179,1.6503,1.5787,1.5537,1.5654,1.5995,1.6551,1.6882,1.7373,1.7793,1.8008,1.8008,1.7974,1.7794,1.7364,1.6768,1.6289,1.5692,1.4724,1.3825,1.3317,1.2842,1.3122,1.3435,1.3408,1.3359,1.2477,1.1326,1.094,1.0877,1.0877,1.0965,1.0965,1.0933,1.087,1.0807,1.0744,1.0649,1.0618,1.0586,1.0553,1.0421,1.0113,0.9867,0.9428,0.887,0.8218,0.7239,0.6159,0.5416,0.5097,0.4814,0.457,0.4543,0.4546,0.4491,0.4491,0.4436,0.4436,0.4128,0.3766,0.3378,0.243,2.756,2.756,2.7585,2.7509,2.7585,2.7534,2.7524,2.7509,2.6747,2.6402,2.6258,2.5813,2.5221,2.4425,2.3801,2.2685,2.1783,2.1176,2.0669,1.9925,1.9987,1.9962,1.9823,1.9798,1.9798,1.9798,1.9823,1.9874,2.0075,2.0314,2.0578,2.0754,2.1131,2.1242,2.1192,2.1217,2.1154,2.1054,2.0564,2.0162,1.9987,1.9911,1.9849,1.9798,1.9773,1.9747,1.9773,1.9721,1.9682,1.9344,1.8975,1.8444,1.7573,1.687,1.6093,1.5909,1.6029,1.6443,1.6884,1.7216,1.7533,1.7822,1.8008,1.8008,1.8008,1.8008,1.7647,1.7476,1.6994,1.642,1.5525,1.4851,1.435,1.4034,1.4117,1.4363,1.4455,1.4156,1.3315,1.2243,1.156,1.1529,1.2042,1.2197,1.1919,1.1608,1.124,1.1146,1.0839,1.0681,1.0649,1.0618,1.0566,1.0519,1.0388,1.0159,1.0015,0.9544,0.8992,0.8628,0.7838,0.6744,0.555,0.5418,0.5285,0.4763,0.4598,0.4653,0.4653,0.4491,0.4491,0.4519,0.4322,0.4018,0.3544,2.7585,2.7585,2.7585,2.7585,2.7585,2.7585,2.7585,2.76,2.7408,2.7255,2.7261,2.7028,2.6367,2.5305,2.505,2.3989,2.2539,2.2053,2.1511,2.0843,2.0517,2.0302,1.9936,2.0012,1.9911,1.9798,1.9849,2.0125,2.0478,2.0717,2.0955,2.1282,2.1568,2.1656,2.1656,2.1644,2.1644,2.1669,2.138,2.0853,2.0603,2.044,2.0352,2.0012,1.9823,1.9798,1.9798,1.9798,1.9708,1.95,1.9265,1.8563,1.7556,1.7067,1.6816,1.672,1.6737,1.7123,1.7378,1.7618,1.7783,1.7895,1.8008,1.8008,1.8008,1.8008,1.7974,1.7872,1.7554,1.6975,1.6437,1.5877,1.5384,1.5215,1.51,1.5298,1.552,1.4882,1.4153,1.328,1.2444,1.2636,1.3177,1.3208,1.2926,1.2489,1.1903,1.1507,1.0926,1.0681,1.0713,1.0681,1.0586,1.0546,1.0492,1.0428,1.0261,1.0143,0.9668,0.9488,0.9383,0.8201,0.6956,0.6431,0.6055,0.5586,0.5199,0.5007,0.4952,0.4708,0.4601,0.4656,0.4546,0.4294,0.4073,2.7585,2.7585,2.7585,2.7585,2.7585,2.7585,2.7585,2.7585,2.7585,2.7585,2.7585,2.7525,2.7016,2.6036,2.5962,2.5052,2.3406,2.3023,2.2273,2.1541,2.114,2.092,2.0666,2.0464,2.0627,2.0552,2.0564,2.0817,2.1043,2.1368,2.1656,2.187,2.1995,2.2159,2.2171,2.2196,2.2171,2.2246,2.2159,2.187,2.1345,2.0993,2.0641,2.0225,1.9987,1.9911,1.9798,1.9798,1.9747,1.963,1.9434,1.8963,1.8298,1.8057,1.7888,1.7842,1.7901,1.803,1.8172,1.8187,1.8105,1.8123,1.8042,1.8042,1.8008,1.8008,1.8008,1.7906,1.7725,1.7192,1.6906,1.6411,1.6097,1.5851,1.6,1.6198,1.6446,1.635,1.5376,1.4282,1.3842,1.4094,1.446,1.449,1.4064,1.3108,1.2551,1.1856,1.1303,1.087,1.087,1.0839,1.0839,1.0681,1.0553,1.0546,1.0476,1.0345,1.0199,1.0135,0.991,0.9193,0.8401,0.7786,0.7138,0.648,0.6122,0.58,0.5234,0.4901,0.4822,0.4825,0.4667,0.4546,0.4335,2.7585,2.7585,2.7585,2.7585,2.7585,2.7585,2.7585,2.7585,2.7585,2.7585,2.7585,2.7585,2.7195,2.6659,2.6297,2.529,2.449,2.4059,2.3165,2.2355,2.1984,2.1574,2.1385,2.1368,2.128,2.1267,2.1292,2.1418,2.1594,2.1907,2.2171,2.2431,2.2757,2.307,2.3095,2.307,2.2945,2.2882,2.2807,2.2732,2.2159,2.143,2.1069,2.0691,2.0352,2.0049,2.0024,2.0037,2.0037,2.0021,1.9961,1.9587,1.9296,1.9146,1.9097,1.9041,1.9132,1.9129,1.9052,1.8947,1.8629,1.8337,1.8212,1.8178,1.8202,1.8168,1.8202,1.81,1.793,1.7623,1.7339,1.7123,1.6802,1.662,1.686,1.7014,1.7296,1.7514,1.6507,1.5321,1.529,1.5458,1.5478,1.5527,1.4974,1.4025,1.3197,1.2375,1.1786,1.1498,1.1341,1.131,1.1279,1.1059,1.0713,1.0593,1.0561,1.053,1.0428,1.0523,1.0439,0.984,0.9362,0.9004,0.8348,0.7616,0.6984,0.6553,0.5958,0.5525,0.5377,0.5376,0.4901,0.4752,0.4573,2.7585,2.7585,2.7585,2.7585,2.7585,2.7585,2.7585,2.7585,2.7585,2.7585,2.7585,2.754,2.7225,2.6632,2.6925,2.6287,2.5334,2.4985,2.4164,2.3262,2.2942,2.2265,2.1832,2.1835,2.1556,2.1594,2.1719,2.1794,2.2083,2.2297,2.2531,2.2907,2.2932,2.3095,2.3095,2.3095,2.3095,2.3095,2.3095,2.2982,2.2857,2.2284,2.1782,2.1468,2.123,2.1194,2.1194,2.1167,2.1194,2.1152,2.0954,2.0616,2.0418,2.029,2.0284,2.0299,2.0377,2.024,2.009,1.9825,1.9474,1.9021,1.8954,1.8931,1.8931,1.8865,1.8865,1.8831,1.8596,1.81,1.7828,1.7759,1.7545,1.7545,1.7628,1.7662,1.7784,1.7833,1.7406,1.6638,1.6185,1.6247,1.6257,1.6226,1.6143,1.5274,1.463,1.38,1.2836,1.2367,1.1903,1.1957,1.1957,1.1272,1.0863,1.0649,1.0593,1.0586,1.0586,1.0586,1.0579,1.0553,1.0163,0.9764,0.9378,0.8783,0.8153,0.7493,0.7357,0.6988,0.642,0.6024,0.5476,0.502,0.4862]}]]